GEFSMA_prec_meanprecacc_006.txt.gz
Total_Precipitation_Accumulation
0.00 0.00 0.00 0.00 0.00 0.00 0.00 0.00 0.00 0.00 0.00 0.00 0.00 0.00 0.00 0.00 0.00 0.00 0.00 0.00 0.00 0.00 0.00 0.00 0.00 0.00 0.00 0.00 0.00 0.00 0.00 0.00 0.00 0.00 0.00 0.00 0.00 0.00 0.00 0.00 0.00 0.00 0.00
0.00 0.00 0.00 0.00 0.00 0.00 0.00 0.00 0.00 0.00 0.00 0.00 0.00 0.00 0.00 0.00 0.00 0.00 0.00 0.00 0.00 0.00 0.00 0.00 0.00 0.00 0.00 0.00 0.00 0.00 0.00 0.00 0.00 0.00 0.00 0.00 0.00 0.00 0.00 0.00 0.00 0.00 0.00
0.00 0.00 0.00 0.00 0.00 0.00 0.00 0.00 0.00 0.00 0.00 0.00 0.00 0.00 0.00 0.00 0.00 0.00 0.00 0.00 0.00 0.00 0.00 0.00 0.00 0.00 0.00 0.00 0.00 0.00 0.00 0.00 0.00 0.00 0.00 0.00 0.00 0.00 0.00 0.00 0.00 0.01 0.01
0.00 0.00 0.00 0.00 0.00 0.00 0.00 0.00 0.00 0.00 0.00 0.00 0.00 0.00 0.00 0.00 0.00 0.00 0.00 0.00 0.00 0.00 0.00 0.00 0.00 0.00 0.00 0.00 0.00 0.00 0.00 0.00 0.00 0.00 0.00 0.00 0.00 0.00 0.00 0.00 0.01 0.01 0.02
0.00 0.00 0.00 0.00 0.00 0.00 0.00 0.00 0.00 0.00 0.00 0.00 0.00 0.00 0.00 0.00 0.00 0.00 0.00 0.00 0.00 0.00 0.00 0.00 0.00 0.00 0.00 0.00 0.00 0.00 0.00 0.00 0.00 0.00 0.00 0.00 0.00 0.00 0.00 0.00 0.01 0.02 0.04
0.00 0.00 0.00 0.00 0.00 0.00 0.00 0.00 0.00 0.00 0.00 0.00 0.00 0.00 0.00 0.00 0.00 0.00 0.00 0.00 0.00 0.00 0.00 0.00 0.00 0.00 0.00 0.00 0.00 0.00 0.00 0.00 0.00 0.00 0.00 0.00 0.00 0.00 0.00 0.01 0.02 0.04 0.07
0.00 0.00 0.00 0.00 0.00 0.00 0.00 0.00 0.00 0.00 0.00 0.00 0.00 0.00 0.00 0.00 0.00 0.00 0.00 0.00 0.00 0.00 0.00 0.00 0.00 0.00 0.00 0.00 0.00 0.00 0.00 0.00 0.00 0.00 0.00 0.00 0.00 0.00 0.00 0.01 0.03 0.05 0.07
0.00 0.00 0.00 0.00 0.00 0.00 0.00 0.00 0.00 0.00 0.00 0.00 0.00 0.00 0.00 0.00 0.00 0.00 0.00 0.00 0.00 0.00 0.00 0.00 0.00 0.00 0.00 0.00 0.00 0.00 0.00 0.00 0.00 0.00 0.00 0.00 0.00 0.00 0.01 0.02 0.04 0.05 0.07
0.00 0.00 0.00 0.00 0.00 0.00 0.00 0.00 0.00 0.00 0.00 0.00 0.00 0.00 0.00 0.00 0.00 0.00 0.00 0.00 0.00 0.00 0.00 0.00 0.00 0.00 0.00 0.00 0.00 0.00 0.00 0.00 0.00 0.00 0.00 0.00 0.00 0.00 0.01 0.02 0.02 0.03 0.04
0.00 0.00 0.00 0.00 0.00 0.00 0.00 0.00 0.00 0.00 0.00 0.00 0.00 0.00 0.00 0.00 0.00 0.00 0.00 0.00 0.00 0.00 0.00 0.00 0.00 0.00 0.00 0.00 0.00 0.00 0.00 0.00 0.00 0.00 0.00 0.00 0.00 0.00 0.00 0.01 0.01 0.01 0.02
0.00 0.00 0.00 0.00 0.00 0.00 0.00 0.00 0.00 0.00 0.00 0.00 0.00 0.00 0.00 0.00 0.00 0.00 0.00 0.00 0.00 0.00 0.00 0.00 0.00 0.00 0.00 0.00 0.00 0.00 0.00 0.00 0.00 0.00 0.00 0.00 0.00 0.00 0.00 0.00 0.00 0.00 0.00
0.00 0.00 0.00 0.00 0.00 0.00 0.00 0.00 0.00 0.00 0.00 0.00 0.00 0.00 0.00 0.00 0.00 0.00 0.00 0.00 0.00 0.00 0.00 0.00 0.00 0.00 0.00 0.00 0.00 0.00 0.00 0.00 0.00 0.00 0.00 0.00 0.00 0.00 0.00 0.00 0.00 0.00 0.00
0.00 0.00 0.00 0.00 0.00 0.00 0.00 0.00 0.00 0.00 0.00 0.00 0.00 0.00 0.00 0.00 0.00 0.00 0.00 0.00 0.00 0.00 0.00 0.00 0.00 0.00 0.00 0.00 0.00 0.00 0.00 0.00 0.00 0.00 0.00 0.00 0.00 0.00 0.00 0.00 0.00 0.00 0.00
0.00 0.00 0.00 0.00 0.00 0.00 0.00 0.00 0.00 0.00 0.00 0.00 0.00 0.00 0.00 0.00 0.00 0.00 0.00 0.00 0.00 0.00 0.00 0.00 0.00 0.00 0.00 0.00 0.00 0.00 0.00 0.00 0.00 0.00 0.00 0.00 0.00 0.00 0.00 0.00 0.00 0.00 0.00
0.00 0.00 0.00 0.00 0.00 0.00 0.00 0.00 0.01 0.01 0.01 0.01 0.01 0.00 0.00 0.00 0.00 0.00 0.00 0.01 0.01 0.01 0.00 0.00 0.00 0.00 0.00 0.00 0.00 0.00 0.00 0.00 0.00 0.00 0.00 0.00 0.00 0.00 0.00 0.00 0.00 0.00 0.00
0.00 0.00 0.00 0.00 0.00 0.00 0.00 0.00 0.01 0.01 0.01 0.01 0.01 0.01 0.01 0.00 0.00 0.00 0.00 0.01 0.01 0.01 0.01 0.00 0.00 0.01 0.01 0.01 0.01 0.01 0.01 0.00 0.00 0.00 0.00 0.00 0.00 0.00 0.00 0.00 0.00 0.00 0.00
0.00 0.00 0.00 0.00 0.00 0.00 0.00 0.00 0.00 0.00 0.00 0.01 0.01 0.02 0.02 0.02 0.01 0.01 0.01 0.02 0.02 0.03 0.02 0.00 0.01 0.04 0.03 0.03 0.04 0.03 0.01 0.01 0.00 0.00 0.00 0.00 0.00 0.00 0.00 0.00 0.00 0.00 0.00
0.00 0.00 0.00 0.00 0.00 0.00 0.00 0.00 0.00 0.00 0.00 0.00 0.01 0.02 0.03 0.04 0.04 0.03 0.03 0.03 0.03 0.03 0.03 0.02 0.03 0.05 0.05 0.06 0.07 0.07 0.04 0.02 0.01 0.00 0.00 0.00 0.00 0.00 0.00 0.00 0.00 0.00 0.00
0.00 0.00 0.00 0.00 0.00 0.00 0.00 0.00 0.00 0.00 0.00 0.00 0.00 0.01 0.02 0.04 0.05 0.04 0.04 0.04 0.04 0.05 0.06 0.05 0.04 0.04 0.04 0.04 0.06 0.08 0.06 0.03 0.01 0.01 0.00 0.00 0.00 0.00 0.00 0.00 0.00 0.00 0.00
0.00 0.00 0.00 0.00 0.00 0.00 0.00 0.00 0.00 0.00 0.00 0.00 0.00 0.01 0.01 0.02 0.02 0.03 0.04 0.05 0.07 0.08 0.08 0.07 0.06 0.05 0.05 0.05 0.07 0.06 0.05 0.03 0.02 0.01 0.00 0.00 0.00 0.00 0.00 0.00 0.00 0.00 0.00
0.00 0.00 0.00 0.00 0.00 0.00 0.00 0.00 0.00 0.00 0.00 0.00 0.00 0.00 0.00 0.01 0.01 0.02 0.04 0.08 0.12 0.14 0.13 0.12 0.11 0.10 0.08 0.07 0.06 0.07 0.07 0.05 0.02 0.00 0.00 0.00 0.00 0.00 0.00 0.00 0.00 0.00 0.00
0.00 0.00 0.00 0.00 0.00 0.00 0.00 0.00 0.00 0.00 0.00 0.00 0.00 0.00 0.00 0.00 0.01 0.02 0.05 0.12 0.20 0.25 0.26 0.23 0.20 0.16 0.10 0.08 0.08 0.09 0.08 0.06 0.02 0.00 0.00 0.00 0.00 0.00 0.00 0.00 0.00 0.00 0.00
0.00 0.00 0.00 0.00 0.00 0.00 0.00 0.00 0.00 0.00 0.00 0.00 0.00 0.00 0.00 0.01 0.01 0.02 0.05 0.11 0.18 0.22 0.25 0.25 0.25 0.20 0.16 0.12 0.11 0.11 0.10 0.07 0.03 0.01 0.00 0.00 0.00 0.00 0.00 0.00 0.00 0.00 0.00
0.00 0.00 0.00 0.00 0.00 0.00 0.00 0.00 0.00 0.00 0.00 0.00 0.00 0.01 0.01 0.01 0.01 0.03 0.06 0.09 0.10 0.11 0.15 0.19 0.21 0.21 0.20 0.19 0.16 0.14 0.14 0.12 0.07 0.02 0.00 0.00 0.00 0.00 0.00 0.00 0.00 0.00 0.00
0.00 0.00 0.00 0.00 0.00 0.00 0.00 0.00 0.00 0.00 0.00 0.00 0.00 0.01 0.01 0.01 0.02 0.04 0.09 0.13 0.13 0.11 0.14 0.18 0.22 0.23 0.21 0.20 0.17 0.13 0.12 0.10 0.07 0.02 0.00 0.00 0.00 0.00 0.00 0.00 0.00 0.00 0.00
0.00 0.00 0.00 0.00 0.00 0.00 0.00 0.00 0.01 0.01 0.01 0.01 0.01 0.01 0.01 0.02 0.03 0.06 0.11 0.16 0.18 0.14 0.14 0.18 0.21 0.22 0.20 0.20 0.19 0.15 0.15 0.14 0.10 0.04 0.01 0.00 0.00 0.00 0.00 0.00 0.00 0.00 0.00

GEFSMA_prec_meanprecacc_012.txt.gz
Total_Precipitation_Accumulation
0.00 0.00 0.00 0.00 0.00 0.00 0.00 0.00 0.00 0.00 0.00 0.00 0.00 0.00 0.00 0.00 0.00 0.00 0.00 0.00 0.00 0.00 0.00 0.00 0.00 0.00 0.00 0.00 0.00 0.00 0.00 0.00 0.00 0.00 0.00 0.00 0.00 0.00 0.00 0.00 0.00 0.00 0.00
0.00 0.00 0.00 0.00 0.00 0.00 0.00 0.00 0.00 0.00 0.00 0.00 0.00 0.00 0.00 0.00 0.00 0.00 0.00 0.00 0.00 0.00 0.00 0.00 0.00 0.00 0.00 0.00 0.00 0.00 0.00 0.00 0.00 0.00 0.00 0.00 0.00 0.00 0.00 0.00 0.00 0.00 0.01
0.00 0.00 0.00 0.00 0.00 0.00 0.00 0.00 0.00 0.00 0.00 0.00 0.00 0.00 0.00 0.00 0.00 0.00 0.00 0.00 0.00 0.00 0.00 0.00 0.00 0.00 0.00 0.00 0.00 0.00 0.00 0.00 0.00 0.00 0.00 0.00 0.00 0.00 0.00 0.00 0.00 0.01 0.01
0.00 0.00 0.00 0.00 0.00 0.00 0.00 0.00 0.00 0.00 0.00 0.00 0.00 0.00 0.00 0.00 0.00 0.00 0.00 0.00 0.00 0.00 0.00 0.00 0.00 0.00 0.00 0.00 0.00 0.00 0.00 0.00 0.00 0.00 0.00 0.00 0.00 0.00 0.00 0.00 0.01 0.01 0.03
0.00 0.00 0.00 0.00 0.00 0.00 0.00 0.00 0.00 0.00 0.00 0.00 0.00 0.00 0.00 0.00 0.00 0.00 0.00 0.00 0.00 0.00 0.00 0.00 0.00 0.00 0.00 0.00 0.00 0.00 0.00 0.00 0.00 0.00 0.00 0.00 0.00 0.00 0.00 0.00 0.01 0.03 0.06
0.00 0.00 0.00 0.00 0.00 0.00 0.00 0.00 0.00 0.00 0.00 0.00 0.00 0.00 0.00 0.00 0.00 0.00 0.00 0.00 0.00 0.00 0.00 0.00 0.00 0.00 0.00 0.00 0.00 0.00 0.00 0.00 0.00 0.00 0.00 0.00 0.00 0.00 0.00 0.01 0.03 0.06 0.12
0.00 0.00 0.00 0.00 0.00 0.00 0.00 0.00 0.00 0.00 0.00 0.00 0.00 0.00 0.00 0.00 0.00 0.00 0.00 0.00 0.00 0.00 0.00 0.00 0.00 0.00 0.00 0.00 0.00 0.00 0.00 0.00 0.00 0.00 0.00 0.00 0.00 0.00 0.01 0.03 0.06 0.10 0.13
0.00 0.00 0.00 0.00 0.00 0.00 0.00 0.00 0.00 0.00 0.00 0.00 0.00 0.00 0.00 0.00 0.00 0.00 0.00 0.00 0.00 0.00 0.00 0.00 0.00 0.00 0.00 0.00 0.00 0.00 0.00 0.00 0.00 0.00 0.00 0.00 0.00 0.01 0.02 0.05 0.09 0.11 0.13
0.00 0.00 0.00 0.00 0.00 0.00 0.00 0.00 0.00 0.00 0.00 0.00 0.00 0.00 0.01 0.00 0.00 0.00 0.00 0.00 0.00 0.00 0.00 0.00 0.00 0.00 0.00 0.00 0.00 0.00 0.00 0.00 0.00 0.00 0.00 0.01 0.02 0.03 0.05 0.07 0.08 0.09 0.11
0.00 0.00 0.00 0.00 0.00 0.00 0.00 0.00 0.00 0.01 0.01 0.01 0.01 0.00 0.00 0.00 0.01 0.00 0.00 0.00 0.00 0.00 0.00 0.00 0.00 0.00 0.00 0.00 0.00 0.00 0.00 0.00 0.00 0.00 0.00 0.02 0.04 0.06 0.08 0.10 0.11 0.12 0.11
0.00 0.00 0.00 0.00 0.00 0.00 0.01 0.01 0.01 0.02 0.02 0.02 0.02 0.02 0.02 0.02 0.02 0.02 0.02 0.00 0.00 0.00 0.00 0.00 0.00 0.00 0.00 0.00 0.00 0.00 0.00 0.00 0.00 0.00 0.00 0.01 0.03 0.06 0.12 0.16 0.15 0.13 0.09
0.00 0.00 0.00 0.00 0.00 0.00 0.01 0.01 0.02 0.03 0.04 0.04 0.05 0.05 0.05 0.04 0.03 0.02 0.02 0.01 0.01 0.00 0.00 0.00 0.00 0.00 0.00 0.00 0.00 0.00 0.00 0.00 0.00 0.00 0.00 0.02 0.04 0.08 0.12 0.16 0.15 0.11 0.08
0.00 0.00 0.00 0.00 0.00 0.00 0.01 0.01 0.02 0.03 0.04 0.06 0.07 0.08 0.09 0.09 0.07 0.07 0.05 0.03 0.02 0.01 0.00 0.00 0.00 0.00 0.00 0.00 0.00 0.00 0.00 0.00 0.00 0.00 0.00 0.02 0.05 0.06 0.07 0.08 0.11 0.10 0.08
0.00 0.00 0.00 0.00 0.00 0.00 0.01 0.01 0.02 0.03 0.05 0.07 0.08 0.10 0.12 0.13 0.15 0.15 0.14 0.13 0.11 0.06 0.03 0.01 0.00 0.00 0.00 0.00 0.00 0.00 0.00 0.00 0.00 0.00 0.00 0.01 0.04 0.04 0.05 0.05 0.06 0.07 0.05
0.00 0.00 0.00 0.00 0.00 0.00 0.00 0.01 0.02 0.03 0.04 0.06 0.08 0.10 0.12 0.13 0.15 0.17 0.19 0.20 0.21 0.17 0.09 0.04 0.03 0.01 0.01 0.01 0.01 0.01 0.01 0.01 0.02 0.02 0.01 0.01 0.02 0.03 0.04 0.04 0.05 0.05 0.03
0.00 0.00 0.00 0.00 0.00 0.00 0.00 0.00 0.01 0.01 0.02 0.03 0.05 0.07 0.09 0.10 0.11 0.14 0.16 0.18 0.21 0.22 0.15 0.06 0.04 0.04 0.05 0.04 0.04 0.04 0.03 0.04 0.05 0.05 0.04 0.04 0.03 0.03 0.03 0.04 0.04 0.03 0.02
0.00 0.00 0.00 0.00 0.00 0.00 0.00 0.00 0.00 0.00 0.01 0.02 0.03 0.05 0.07 0.08 0.10 0.10 0.12 0.14 0.16 0.20 0.18 0.08 0.06 0.09 0.09 0.08 0.08 0.09 0.07 0.07 0.06 0.07 0.07 0.07 0.07 0.07 0.07 0.06 0.05 0.04 0.02
0.00 0.00 0.00 0.00 0.00 0.00 0.00 0.00 0.00 0.00 0.00 0.00 0.01 0.03 0.05 0.07 0.08 0.09 0.11 0.12 0.13 0.16 0.19 0.15 0.10 0.12 0.11 0.13 0.16 0.16 0.14 0.12 0.10 0.10 0.10 0.10 0.11 0.11 0.10 0.10 0.09 0.07 0.05
0.00 0.00 0.00 0.00 0.00 0.00 0.00 0.00 0.00 0.00 0.00 0.00 0.00 0.01 0.03 0.05 0.06 0.06 0.07 0.09 0.12 0.15 0.20 0.21 0.16 0.15 0.14 0.14 0.16 0.17 0.16 0.15 0.13 0.13 0.15 0.15 0.14 0.14 0.13 0.12 0.10 0.09 0.07
0.00 0.00 0.00 0.00 0.00 0.00 0.00 0.00 0.00 0.00 0.00 0.00 0.00 0.01 0.01 0.02 0.02 0.03 0.06 0.08 0.13 0.17 0.19 0.21 0.20 0.17 0.18 0.18 0.18 0.15 0.15 0.14 0.15 0.15 0.18 0.19 0.19 0.18 0.17 0.16 0.15 0.11 0.09
0.00 0.00 0.00 0.00 0.00 0.00 0.00 0.00 0.00 0.00 0.00 0.00 0.00 0.00 0.00 0.01 0.01 0.03 0.05 0.09 0.15 0.20 0.22 0.25 0.26 0.26 0.25 0.22 0.19 0.19 0.23 0.24 0.24 0.21 0.21 0.22 0.24 0.25 0.23 0.22 0.20 0.17 0.13
0.00 0.00 0.00 0.00 0.00 0.00 0.00 0.00 0.00 0.00 0.00 0.00 0.00 0.00 0.00 0.00 0.01 0.03 0.06 0.12 0.21 0.28 0.32 0.33 0.35 0.35 0.31 0.28 0.28 0.31 0.35 0.39 0.37 0.26 0.25 0.28 0.29 0.31 0.31 0.29 0.27 0.22 0.15
0.00 0.00 0.00 0.00 0.00 0.00 0.00 0.00 0.00 0.00 0.00 0.00 0.00 0.00 0.01 0.01 0.01 0.02 0.05 0.11 0.18 0.23 0.28 0.32 0.34 0.31 0.29 0.29 0.32 0.36 0.39 0.40 0.35 0.29 0.32 0.36 0.33 0.32 0.32 0.31 0.30 0.21 0.12
0.00 0.00 0.00 0.00 0.00 0.00 0.00 0.00 0.00 0.00 0.00 0.00 0.00 0.01 0.01 0.01 0.01 0.03 0.06 0.10 0.10 0.11 0.16 0.23 0.26 0.27 0.29 0.32 0.37 0.41 0.48 0.57 0.55 0.46 0.40 0.38 0.30 0.28 0.29 0.28 0.26 0.16 0.08
0.00 0.00 0.00 0.00 0.00 0.00 0.00 0.00 0.00 0.00 0.00 0.00 0.00 0.01 0.01 0.01 0.02 0.04 0.09 0.14 0.13 0.11 0.14 0.20 0.25 0.28 0.28 0.30 0.35 0.42 0.49 0.55 0.53 0.44 0.38 0.37 0.32 0.30 0.28 0.25 0.20 0.14 0.07
0.00 0.00 0.00 0.00 0.00 0.00 0.00 0.00 0.01 0.01 0.01 0.01 0.01 0.01 0.01 0.02 0.03 0.06 0.11 0.17 0.18 0.14 0.15 0.19 0.23 0.25 0.25 0.28 0.33 0.33 0.38 0.48 0.50 0.44 0.37 0.34 0.31 0.29 0.28 0.23 0.17 0.11 0.07

GEFSMA_prec_meanprecacc_018.txt.gz
Total_Precipitation_Accumulation
0.00 0.00 0.00 0.00 0.00 0.00 0.00 0.00 0.00 0.00 0.00 0.00 0.00 0.00 0.00 0.00 0.00 0.00 0.00 0.00 0.00 0.00 0.00 0.00 0.00 0.00 0.01 0.01 0.01 0.00 0.00 0.00 0.00 0.00 0.00 0.00 0.00 0.00 0.00 0.00 0.00 0.00 0.00
0.00 0.00 0.00 0.00 0.00 0.00 0.00 0.00 0.00 0.00 0.00 0.00 0.00 0.00 0.00 0.00 0.00 0.00 0.00 0.00 0.00 0.00 0.00 0.00 0.00 0.00 0.00 0.01 0.02 0.02 0.02 0.01 0.01 0.00 0.00 0.00 0.00 0.00 0.00 0.00 0.00 0.01 0.01
0.00 0.00 0.00 0.00 0.00 0.00 0.00 0.00 0.00 0.00 0.00 0.00 0.00 0.00 0.00 0.00 0.00 0.00 0.00 0.00 0.00 0.00 0.00 0.00 0.00 0.00 0.00 0.00 0.00 0.01 0.02 0.02 0.03 0.02 0.02 0.01 0.01 0.01 0.01 0.01 0.01 0.02 0.02
0.00 0.00 0.00 0.00 0.00 0.00 0.00 0.00 0.00 0.00 0.00 0.00 0.00 0.00 0.00 0.00 0.00 0.00 0.00 0.00 0.00 0.00 0.00 0.00 0.00 0.00 0.00 0.00 0.00 0.00 0.00 0.01 0.01 0.02 0.02 0.02 0.02 0.02 0.02 0.02 0.03 0.04 0.05
0.00 0.00 0.00 0.00 0.00 0.00 0.00 0.00 0.00 0.00 0.00 0.00 0.00 0.00 0.00 0.00 0.00 0.00 0.00 0.00 0.00 0.00 0.00 0.00 0.00 0.00 0.00 0.00 0.00 0.00 0.00 0.00 0.00 0.00 0.01 0.01 0.02 0.02 0.03 0.03 0.04 0.06 0.10
0.00 0.00 0.00 0.00 0.00 0.00 0.00 0.00 0.00 0.00 0.00 0.00 0.00 0.00 0.00 0.00 0.00 0.00 0.00 0.00 0.00 0.00 0.00 0.00 0.00 0.00 0.00 0.00 0.00 0.00 0.00 0.00 0.00 0.00 0.00 0.00 0.01 0.01 0.02 0.03 0.06 0.10 0.16
0.00 0.00 0.00 0.00 0.00 0.00 0.00 0.00 0.00 0.00 0.00 0.00 0.00 0.01 0.00 0.00 0.00 0.00 0.00 0.00 0.00 0.00 0.00 0.00 0.00 0.00 0.00 0.00 0.00 0.00 0.00 0.00 0.00 0.00 0.00 0.00 0.00 0.00 0.01 0.04 0.07 0.12 0.18
0.00 0.00 0.00 0.00 0.00 0.00 0.00 0.00 0.00 0.00 0.00 0.00 0.01 0.02 0.01 0.00 0.00 0.00 0.00 0.00 0.00 0.00 0.00 0.00 0.00 0.00 0.00 0.00 0.00 0.00 0.00 0.00 0.00 0.00 0.00 0.01 0.01 0.02 0.03 0.06 0.10 0.13 0.17
0.00 0.00 0.00 0.00 0.00 0.00 0.00 0.00 0.00 0.01 0.01 0.01 0.01 0.03 0.03 0.02 0.01 0.00 0.00 0.00 0.00 0.00 0.00 0.00 0.00 0.00 0.00 0.00 0.00 0.00 0.00 0.00 0.00 0.00 0.00 0.02 0.03 0.05 0.06 0.09 0.11 0.13 0.16
0.00 0.00 0.00 0.00 0.00 0.00 0.00 0.00 0.01 0.02 0.03 0.03 0.02 0.03 0.04 0.05 0.06 0.04 0.01 0.00 0.00 0.00 0.00 0.00 0.00 0.00 0.00 0.00 0.00 0.00 0.00 0.00 0.00 0.00 0.00 0.02 0.05 0.07 0.10 0.13 0.15 0.18 0.19
0.00 0.00 0.00 0.00 0.00 0.00 0.01 0.01 0.02 0.03 0.04 0.05 0.06 0.06 0.06 0.07 0.09 0.11 0.07 0.03 0.01 0.00 0.00 0.00 0.00 0.00 0.00 0.00 0.00 0.00 0.00 0.00 0.00 0.00 0.00 0.02 0.04 0.08 0.15 0.21 0.23 0.24 0.22
0.00 0.00 0.00 0.00 0.00 0.00 0.01 0.01 0.02 0.04 0.05 0.06 0.08 0.09 0.11 0.12 0.10 0.11 0.10 0.06 0.04 0.01 0.00 0.00 0.00 0.00 0.01 0.01 0.01 0.01 0.01 0.01 0.01 0.01 0.02 0.04 0.07 0.11 0.16 0.22 0.26 0.27 0.26
0.00 0.00 0.00 0.00 0.00 0.00 0.01 0.01 0.02 0.03 0.04 0.06 0.07 0.09 0.11 0.13 0.13 0.14 0.14 0.10 0.07 0.04 0.02 0.01 0.02 0.02 0.03 0.04 0.03 0.03 0.03 0.03 0.04 0.04 0.03 0.07 0.10 0.11 0.11 0.13 0.21 0.27 0.28
0.00 0.00 0.00 0.00 0.00 0.00 0.01 0.01 0.02 0.03 0.05 0.07 0.08 0.10 0.13 0.14 0.16 0.17 0.19 0.20 0.17 0.10 0.06 0.03 0.04 0.05 0.05 0.06 0.05 0.06 0.06 0.05 0.06 0.07 0.07 0.08 0.10 0.10 0.09 0.10 0.12 0.17 0.21
0.00 0.00 0.00 0.00 0.00 0.00 0.00 0.01 0.02 0.03 0.04 0.06 0.08 0.10 0.12 0.13 0.15 0.17 0.20 0.24 0.26 0.21 0.11 0.06 0.05 0.04 0.05 0.06 0.06 0.08 0.08 0.07 0.09 0.10 0.11 0.11 0.11 0.11 0.09 0.09 0.10 0.11 0.14
0.00 0.00 0.00 0.00 0.00 0.00 0.00 0.00 0.01 0.01 0.02 0.03 0.05 0.07 0.09 0.10 0.11 0.14 0.16 0.19 0.23 0.25 0.17 0.06 0.05 0.05 0.07 0.07 0.07 0.10 0.09 0.11 0.12 0.12 0.13 0.13 0.13 0.13 0.12 0.11 0.10 0.10 0.10
0.00 0.00 0.00 0.00 0.00 0.00 0.00 0.00 0.00 0.00 0.01 0.02 0.03 0.05 0.07 0.08 0.10 0.10 0.12 0.14 0.17 0.22 0.20 0.08 0.06 0.09 0.10 0.09 0.10 0.12 0.11 0.11 0.10 0.11 0.13 0.14 0.15 0.16 0.16 0.16 0.14 0.13 0.11
0.00 0.00 0.00 0.00 0.00 0.00 0.00 0.00 0.00 0.00 0.00 0.00 0.01 0.03 0.05 0.07 0.08 0.09 0.11 0.12 0.14 0.17 0.21 0.16 0.10 0.12 0.12 0.14 0.17 0.18 0.15 0.14 0.12 0.12 0.15 0.17 0.19 0.20 0.20 0.21 0.22 0.22 0.20
0.00 0.00 0.00 0.00 0.00 0.00 0.00 0.00 0.00 0.00 0.00 0.00 0.00 0.01 0.03 0.05 0.06 0.06 0.07 0.10 0.12 0.16 0.21 0.23 0.17 0.15 0.14 0.15 0.17 0.18 0.18 0.16 0.15 0.16 0.20 0.21 0.23 0.23 0.24 0.25 0.27 0.29 0.30
0.00 0.00 0.00 0.00 0.00 0.00 0.00 0.00 0.00 0.00 0.00 0.00 0.00 0.01 0.01 0.02 0.02 0.03 0.06 0.08 0.13 0.17 0.20 0.22 0.20 0.17 0.18 0.18 0.19 0.17 0.16 0.15 0.16 0.17 0.21 0.25 0.27 0.30 0.32 0.34 0.36 0.38 0.40
0.00 0.00 0.00 0.00 0.00 0.00 0.00 0.00 0.00 0.00 0.00 0.00 0.00 0.00 0.00 0.01 0.01 0.03 0.06 0.09 0.16 0.20 0.22 0.26 0.26 0.26 0.26 0.23 0.19 0.20 0.24 0.25 0.25 0.22 0.23 0.26 0.30 0.35 0.38 0.40 0.43 0.44 0.44
0.00 0.00 0.00 0.00 0.00 0.00 0.00 0.00 0.00 0.00 0.00 0.00 0.00 0.00 0.00 0.00 0.01 0.03 0.06 0.12 0.22 0.28 0.33 0.34 0.35 0.36 0.32 0.29 0.29 0.32 0.37 0.41 0.38 0.27 0.27 0.31 0.34 0.40 0.42 0.43 0.49 0.50 0.48
0.00 0.00 0.00 0.00 0.00 0.00 0.00 0.00 0.00 0.00 0.00 0.00 0.00 0.00 0.01 0.01 0.01 0.02 0.05 0.11 0.18 0.23 0.29 0.33 0.35 0.32 0.30 0.29 0.34 0.38 0.41 0.43 0.37 0.31 0.35 0.40 0.37 0.39 0.42 0.46 0.53 0.52 0.47
0.00 0.00 0.00 0.00 0.00 0.00 0.00 0.00 0.00 0.00 0.00 0.00 0.00 0.01 0.01 0.01 0.01 0.03 0.06 0.10 0.10 0.11 0.16 0.23 0.27 0.28 0.30 0.34 0.38 0.43 0.51 0.60 0.58 0.49 0.44 0.43 0.35 0.34 0.37 0.41 0.49 0.47 0.41
0.00 0.00 0.00 0.00 0.00 0.00 0.00 0.00 0.00 0.00 0.00 0.00 0.00 0.01 0.01 0.01 0.02 0.05 0.10 0.15 0.14 0.11 0.14 0.20 0.26 0.30 0.30 0.33 0.38 0.45 0.54 0.62 0.60 0.49 0.43 0.45 0.42 0.41 0.41 0.40 0.42 0.44 0.37
0.00 0.00 0.00 0.00 0.00 0.00 0.00 0.00 0.01 0.01 0.01 0.01 0.01 0.01 0.02 0.03 0.04 0.08 0.13 0.19 0.20 0.15 0.16 0.21 0.25 0.26 0.26 0.29 0.35 0.37 0.49 0.65 0.68 0.58 0.46 0.45 0.44 0.44 0.46 0.42 0.39 0.38 0.34

GEFSMA_prec_meanprecacc_024.txt.gz
Total_Precipitation_Accumulation
0.00 0.00 0.00 0.00 0.00 0.00 0.00 0.00 0.00 0.00 0.00 0.00 0.00 0.00 0.00 0.00 0.00 0.00 0.00 0.00 0.00 0.00 0.00 0.00 0.00 0.00 0.01 0.02 0.02 0.02 0.02 0.02 0.01 0.01 0.01 0.00 0.00 0.00 0.00 0.00 0.00 0.00 0.00
0.00 0.00 0.00 0.00 0.00 0.00 0.00 0.00 0.00 0.00 0.00 0.00 0.00 0.00 0.00 0.00 0.00 0.00 0.00 0.00 0.00 0.00 0.00 0.00 0.00 0.00 0.00 0.01 0.02 0.03 0.03 0.04 0.04 0.03 0.03 0.02 0.01 0.01 0.00 0.00 0.01 0.01 0.01
0.00 0.00 0.00 0.00 0.00 0.00 0.00 0.00 0.00 0.00 0.00 0.00 0.00 0.00 0.00 0.00 0.00 0.00 0.00 0.00 0.00 0.00 0.00 0.00 0.00 0.00 0.00 0.00 0.00 0.01 0.02 0.03 0.04 0.05 0.06 0.06 0.06 0.05 0.04 0.04 0.03 0.03 0.03
0.00 0.00 0.00 0.00 0.00 0.00 0.00 0.00 0.00 0.00 0.00 0.00 0.00 0.00 0.00 0.00 0.00 0.00 0.00 0.00 0.00 0.00 0.00 0.00 0.00 0.00 0.00 0.00 0.00 0.00 0.00 0.01 0.02 0.02 0.03 0.04 0.05 0.06 0.07 0.08 0.08 0.09 0.10
0.00 0.00 0.00 0.00 0.00 0.00 0.00 0.00 0.00 0.00 0.00 0.00 0.00 0.00 0.00 0.00 0.00 0.00 0.00 0.00 0.00 0.00 0.00 0.00 0.00 0.00 0.00 0.00 0.00 0.00 0.01 0.01 0.01 0.01 0.01 0.02 0.02 0.03 0.05 0.07 0.09 0.11 0.16
0.00 0.00 0.00 0.00 0.00 0.00 0.00 0.00 0.00 0.00 0.00 0.00 0.00 0.00 0.00 0.00 0.00 0.00 0.00 0.00 0.00 0.00 0.00 0.00 0.00 0.00 0.00 0.00 0.00 0.00 0.00 0.01 0.02 0.02 0.02 0.01 0.01 0.02 0.03 0.05 0.08 0.13 0.21
0.00 0.00 0.00 0.00 0.00 0.00 0.00 0.00 0.00 0.00 0.00 0.00 0.00 0.01 0.00 0.00 0.00 0.00 0.00 0.00 0.00 0.00 0.00 0.00 0.00 0.00 0.00 0.00 0.00 0.00 0.00 0.00 0.02 0.03 0.03 0.03 0.03 0.03 0.03 0.05 0.09 0.14 0.20
0.00 0.00 0.00 0.00 0.00 0.00 0.00 0.00 0.00 0.00 0.00 0.00 0.01 0.03 0.01 0.00 0.00 0.00 0.00 0.00 0.00 0.00 0.00 0.00 0.01 0.01 0.01 0.01 0.00 0.00 0.00 0.00 0.01 0.05 0.06 0.07 0.06 0.06 0.07 0.09 0.13 0.15 0.18
0.00 0.00 0.00 0.00 0.00 0.00 0.00 0.00 0.00 0.01 0.01 0.01 0.01 0.04 0.05 0.03 0.02 0.01 0.00 0.00 0.00 0.00 0.00 0.00 0.00 0.00 0.01 0.01 0.01 0.01 0.01 0.01 0.01 0.04 0.09 0.13 0.15 0.16 0.16 0.16 0.17 0.17 0.20
0.00 0.00 0.00 0.00 0.00 0.00 0.00 0.00 0.01 0.02 0.03 0.03 0.02 0.03 0.05 0.06 0.07 0.05 0.02 0.01 0.00 0.00 0.00 0.00 0.00 0.00 0.00 0.01 0.01 0.01 0.02 0.03 0.04 0.05 0.10 0.17 0.22 0.26 0.28 0.29 0.28 0.29 0.27
0.00 0.00 0.00 0.00 0.00 0.00 0.01 0.01 0.02 0.03 0.04 0.05 0.06 0.06 0.06 0.07 0.09 0.11 0.07 0.03 0.01 0.00 0.00 0.00 0.00 0.00 0.00 0.01 0.01 0.02 0.03 0.06 0.08 0.09 0.16 0.25 0.31 0.38 0.45 0.50 0.50 0.46 0.40
0.00 0.00 0.00 0.00 0.00 0.00 0.01 0.01 0.02 0.04 0.05 0.06 0.08 0.09 0.11 0.12 0.10 0.11 0.10 0.06 0.04 0.01 0.00 0.00 0.00 0.00 0.01 0.02 0.02 0.03 0.04 0.06 0.08 0.11 0.19 0.30 0.38 0.45 0.54 0.64 0.69 0.68 0.63
0.00 0.00 0.00 0.00 0.00 0.00 0.01 0.01 0.02 0.03 0.04 0.06 0.07 0.09 0.11 0.13 0.13 0.14 0.15 0.10 0.07 0.04 0.02 0.01 0.02 0.02 0.03 0.04 0.04 0.04 0.04 0.05 0.07 0.10 0.15 0.28 0.35 0.39 0.43 0.51 0.66 0.77 0.82
0.00 0.00 0.00 0.00 0.00 0.00 0.01 0.01 0.02 0.03 0.05 0.07 0.08 0.10 0.13 0.14 0.16 0.17 0.19 0.20 0.18 0.10 0.06 0.03 0.04 0.05 0.05 0.06 0.06 0.07 0.06 0.06 0.07 0.10 0.13 0.19 0.24 0.27 0.32 0.38 0.48 0.59 0.69
0.00 0.00 0.00 0.00 0.00 0.00 0.00 0.01 0.02 0.03 0.04 0.06 0.08 0.10 0.12 0.13 0.15 0.17 0.20 0.24 0.27 0.21 0.11 0.06 0.05 0.04 0.05 0.06 0.06 0.08 0.08 0.07 0.09 0.11 0.12 0.13 0.16 0.19 0.21 0.24 0.30 0.37 0.45
0.00 0.00 0.00 0.00 0.00 0.00 0.00 0.00 0.01 0.01 0.02 0.03 0.05 0.07 0.09 0.10 0.11 0.14 0.16 0.19 0.23 0.26 0.17 0.06 0.05 0.05 0.07 0.07 0.07 0.10 0.09 0.11 0.12 0.12 0.13 0.13 0.14 0.15 0.16 0.18 0.20 0.23 0.28
0.00 0.00 0.00 0.00 0.00 0.00 0.00 0.00 0.00 0.00 0.01 0.02 0.03 0.05 0.07 0.08 0.10 0.10 0.12 0.14 0.17 0.22 0.21 0.08 0.06 0.09 0.10 0.09 0.10 0.12 0.11 0.11 0.10 0.11 0.13 0.15 0.15 0.17 0.18 0.18 0.19 0.20 0.22
0.00 0.00 0.00 0.00 0.00 0.00 0.00 0.00 0.00 0.00 0.00 0.00 0.01 0.03 0.05 0.07 0.08 0.09 0.11 0.12 0.14 0.17 0.23 0.18 0.10 0.12 0.12 0.14 0.17 0.18 0.15 0.14 0.12 0.12 0.15 0.17 0.19 0.21 0.21 0.22 0.24 0.25 0.26
0.00 0.00 0.00 0.00 0.00 0.00 0.00 0.00 0.00 0.00 0.00 0.00 0.00 0.01 0.03 0.05 0.06 0.06 0.07 0.10 0.12 0.17 0.23 0.24 0.18 0.16 0.14 0.15 0.17 0.18 0.18 0.16 0.15 0.16 0.20 0.22 0.23 0.24 0.25 0.26 0.28 0.30 0.32
0.00 0.00 0.00 0.00 0.00 0.00 0.00 0.00 0.00 0.00 0.00 0.00 0.00 0.01 0.01 0.02 0.02 0.03 0.06 0.09 0.14 0.18 0.21 0.24 0.22 0.18 0.19 0.18 0.19 0.17 0.16 0.15 0.16 0.17 0.21 0.25 0.27 0.30 0.32 0.34 0.36 0.39 0.41
0.00 0.00 0.00 0.00 0.00 0.00 0.00 0.00 0.00 0.00 0.00 0.00 0.00 0.00 0.00 0.01 0.01 0.03 0.06 0.10 0.17 0.22 0.25 0.28 0.29 0.28 0.27 0.24 0.20 0.21 0.25 0.26 0.25 0.22 0.23 0.26 0.31 0.36 0.38 0.41 0.43 0.44 0.44
0.00 0.00 0.00 0.00 0.00 0.00 0.00 0.00 0.00 0.00 0.00 0.00 0.00 0.00 0.00 0.00 0.01 0.03 0.07 0.14 0.24 0.31 0.36 0.38 0.40 0.39 0.33 0.30 0.30 0.34 0.39 0.44 0.41 0.28 0.30 0.33 0.35 0.41 0.42 0.44 0.49 0.50 0.48
0.00 0.00 0.00 0.00 0.00 0.00 0.00 0.00 0.00 0.00 0.00 0.00 0.00 0.00 0.01 0.01 0.02 0.03 0.05 0.13 0.20 0.25 0.31 0.35 0.38 0.34 0.32 0.31 0.37 0.43 0.47 0.50 0.44 0.34 0.38 0.43 0.39 0.40 0.42 0.46 0.54 0.52 0.47
0.00 0.00 0.00 0.00 0.00 0.00 0.00 0.00 0.00 0.00 0.00 0.00 0.00 0.01 0.01 0.01 0.02 0.04 0.09 0.13 0.12 0.12 0.17 0.24 0.28 0.30 0.33 0.38 0.45 0.54 0.63 0.71 0.64 0.52 0.47 0.47 0.38 0.36 0.39 0.42 0.49 0.47 0.41
0.00 0.00 0.00 0.00 0.00 0.00 0.00 0.00 0.01 0.00 0.00 0.00 0.00 0.01 0.02 0.02 0.03 0.08 0.15 0.18 0.15 0.12 0.14 0.21 0.28 0.32 0.33 0.36 0.42 0.56 0.69 0.76 0.70 0.53 0.45 0.50 0.47 0.45 0.44 0.42 0.43 0.44 0.38
0.00 0.00 0.00 0.00 0.00 0.00 0.00 0.00 0.01 0.02 0.02 0.02 0.01 0.01 0.02 0.04 0.06 0.11 0.16 0.21 0.21 0.16 0.17 0.22 0.25 0.27 0.26 0.29 0.37 0.46 0.67 0.86 0.82 0.65 0.48 0.49 0.49 0.50 0.54 0.45 0.40 0.40 0.36

GEFSMA_prec_meanprecacc_030.txt.gz
Total_Precipitation_Accumulation
0.00 0.00 0.00 0.00 0.00 0.00 0.00 0.00 0.00 0.00 0.00 0.00 0.00 0.00 0.00 0.00 0.00 0.00 0.00 0.00 0.00 0.00 0.00 0.00 0.00 0.01 0.02 0.03 0.03 0.03 0.02 0.02 0.02 0.01 0.01 0.01 0.01 0.01 0.01 0.01 0.01 0.00 0.00
0.00 0.00 0.00 0.00 0.00 0.00 0.00 0.00 0.00 0.00 0.00 0.00 0.00 0.00 0.00 0.00 0.00 0.00 0.00 0.00 0.00 0.00 0.00 0.00 0.00 0.01 0.02 0.03 0.05 0.06 0.06 0.06 0.05 0.04 0.04 0.03 0.03 0.02 0.02 0.02 0.02 0.02 0.02
0.00 0.00 0.00 0.00 0.00 0.00 0.00 0.00 0.00 0.00 0.00 0.00 0.00 0.00 0.00 0.00 0.00 0.00 0.00 0.00 0.00 0.00 0.00 0.00 0.00 0.01 0.01 0.02 0.04 0.06 0.07 0.09 0.09 0.09 0.08 0.08 0.07 0.07 0.07 0.07 0.07 0.07 0.06
0.00 0.00 0.00 0.00 0.00 0.00 0.00 0.00 0.00 0.00 0.00 0.00 0.00 0.00 0.00 0.00 0.00 0.00 0.00 0.00 0.00 0.00 0.00 0.00 0.00 0.00 0.01 0.01 0.02 0.04 0.05 0.07 0.08 0.09 0.10 0.10 0.10 0.11 0.11 0.13 0.14 0.15 0.16
0.00 0.00 0.00 0.00 0.00 0.00 0.00 0.00 0.00 0.00 0.00 0.00 0.00 0.00 0.00 0.00 0.00 0.00 0.00 0.00 0.00 0.00 0.00 0.00 0.00 0.00 0.01 0.01 0.01 0.02 0.04 0.07 0.08 0.09 0.10 0.11 0.12 0.13 0.14 0.16 0.17 0.20 0.24
0.00 0.00 0.00 0.00 0.00 0.00 0.00 0.00 0.00 0.00 0.00 0.00 0.00 0.00 0.00 0.00 0.00 0.00 0.00 0.00 0.00 0.00 0.00 0.00 0.00 0.00 0.00 0.01 0.02 0.02 0.04 0.06 0.07 0.09 0.10 0.12 0.14 0.16 0.18 0.20 0.23 0.26 0.33
0.00 0.00 0.00 0.00 0.00 0.00 0.00 0.00 0.00 0.00 0.00 0.00 0.00 0.01 0.00 0.00 0.00 0.00 0.00 0.00 0.00 0.00 0.00 0.00 0.00 0.01 0.01 0.01 0.02 0.02 0.02 0.04 0.06 0.09 0.11 0.14 0.16 0.19 0.22 0.26 0.30 0.35 0.40
0.00 0.00 0.00 0.00 0.00 0.00 0.00 0.00 0.00 0.00 0.00 0.00 0.01 0.03 0.01 0.00 0.00 0.00 0.00 0.00 0.00 0.00 0.00 0.00 0.01 0.01 0.01 0.02 0.01 0.01 0.01 0.02 0.04 0.09 0.14 0.17 0.19 0.22 0.26 0.32 0.38 0.42 0.44
0.00 0.00 0.00 0.00 0.00 0.00 0.00 0.00 0.00 0.01 0.01 0.01 0.01 0.04 0.05 0.03 0.02 0.01 0.00 0.00 0.00 0.00 0.00 0.00 0.00 0.00 0.01 0.01 0.01 0.01 0.01 0.02 0.03 0.07 0.14 0.20 0.24 0.29 0.34 0.38 0.41 0.44 0.49
0.00 0.00 0.00 0.00 0.00 0.00 0.00 0.00 0.01 0.02 0.03 0.03 0.02 0.03 0.05 0.06 0.07 0.05 0.02 0.01 0.00 0.00 0.00 0.00 0.00 0.00 0.00 0.01 0.01 0.01 0.02 0.03 0.05 0.07 0.13 0.22 0.30 0.37 0.44 0.50 0.53 0.56 0.58
0.00 0.00 0.00 0.00 0.00 0.00 0.01 0.01 0.02 0.03 0.04 0.05 0.06 0.06 0.06 0.07 0.09 0.11 0.07 0.03 0.01 0.00 0.00 0.00 0.00 0.00 0.00 0.01 0.01 0.02 0.03 0.06 0.08 0.10 0.17 0.27 0.35 0.44 0.55 0.65 0.69 0.70 0.70
0.00 0.00 0.00 0.00 0.00 0.00 0.01 0.01 0.02 0.04 0.05 0.06 0.08 0.09 0.11 0.12 0.10 0.11 0.10 0.06 0.04 0.01 0.00 0.00 0.00 0.00 0.01 0.02 0.02 0.03 0.04 0.06 0.08 0.11 0.19 0.31 0.39 0.47 0.57 0.69 0.77 0.81 0.83
0.00 0.00 0.00 0.00 0.00 0.00 0.01 0.01 0.02 0.03 0.04 0.06 0.07 0.09 0.11 0.13 0.13 0.14 0.15 0.10 0.07 0.04 0.02 0.01 0.02 0.02 0.03 0.04 0.04 0.04 0.04 0.05 0.07 0.10 0.15 0.28 0.36 0.40 0.44 0.52 0.67 0.79 0.88
0.00 0.00 0.00 0.00 0.00 0.00 0.01 0.01 0.02 0.03 0.05 0.07 0.08 0.10 0.13 0.14 0.16 0.17 0.19 0.20 0.18 0.10 0.06 0.03 0.04 0.05 0.05 0.06 0.06 0.07 0.06 0.06 0.07 0.10 0.13 0.19 0.24 0.27 0.32 0.38 0.49 0.60 0.71
0.00 0.00 0.00 0.00 0.00 0.00 0.00 0.01 0.02 0.03 0.04 0.06 0.08 0.10 0.12 0.13 0.15 0.17 0.20 0.24 0.27 0.21 0.11 0.06 0.05 0.04 0.05 0.06 0.06 0.08 0.08 0.07 0.09 0.11 0.12 0.13 0.16 0.19 0.21 0.25 0.31 0.38 0.46
0.00 0.00 0.00 0.00 0.00 0.00 0.00 0.00 0.01 0.01 0.02 0.03 0.05 0.07 0.09 0.10 0.11 0.14 0.16 0.19 0.23 0.26 0.17 0.06 0.05 0.05 0.07 0.07 0.07 0.10 0.09 0.11 0.12 0.12 0.13 0.14 0.15 0.15 0.17 0.18 0.20 0.24 0.28
0.00 0.00 0.00 0.00 0.00 0.00 0.00 0.00 0.00 0.00 0.01 0.02 0.03 0.05 0.07 0.08 0.10 0.10 0.12 0.14 0.17 0.22 0.21 0.08 0.06 0.09 0.10 0.09 0.10 0.12 0.11 0.11 0.10 0.11 0.13 0.15 0.16 0.17 0.18 0.19 0.20 0.21 0.23
0.00 0.00 0.00 0.00 0.00 0.00 0.00 0.00 0.00 0.00 0.00 0.00 0.01 0.03 0.05 0.07 0.08 0.09 0.11 0.12 0.14 0.17 0.24 0.19 0.11 0.12 0.12 0.14 0.17 0.18 0.16 0.14 0.12 0.12 0.15 0.18 0.20 0.21 0.22 0.23 0.25 0.27 0.27
0.00 0.00 0.00 0.00 0.00 0.00 0.00 0.00 0.00 0.00 0.00 0.00 0.00 0.01 0.03 0.05 0.06 0.06 0.07 0.10 0.13 0.17 0.24 0.26 0.19 0.16 0.15 0.15 0.18 0.18 0.18 0.16 0.15 0.16 0.20 0.22 0.23 0.24 0.26 0.28 0.30 0.32 0.34
0.00 0.00 0.00 0.00 0.00 0.00 0.00 0.00 0.00 0.00 0.00 0.00 0.00 0.01 0.01 0.02 0.02 0.03 0.06 0.09 0.15 0.20 0.23 0.26 0.24 0.20 0.20 0.19 0.20 0.17 0.16 0.15 0.16 0.17 0.21 0.25 0.28 0.31 0.33 0.36 0.38 0.41 0.43
0.00 0.00 0.00 0.00 0.00 0.00 0.00 0.00 0.00 0.00 0.00 0.00 0.00 0.00 0.00 0.01 0.01 0.03 0.07 0.12 0.19 0.25 0.29 0.33 0.33 0.32 0.29 0.25 0.21 0.21 0.26 0.26 0.25 0.23 0.24 0.26 0.31 0.37 0.39 0.42 0.45 0.45 0.46
0.00 0.00 0.00 0.00 0.00 0.00 0.00 0.00 0.00 0.00 0.00 0.00 0.00 0.00 0.00 0.00 0.01 0.04 0.08 0.16 0.27 0.36 0.42 0.44 0.45 0.43 0.35 0.31 0.31 0.35 0.40 0.46 0.42 0.29 0.31 0.34 0.36 0.42 0.43 0.45 0.51 0.53 0.51
0.00 0.00 0.00 0.00 0.00 0.00 0.00 0.00 0.00 0.00 0.00 0.00 0.00 0.00 0.01 0.01 0.02 0.03 0.06 0.14 0.22 0.29 0.35 0.40 0.42 0.36 0.33 0.32 0.38 0.47 0.51 0.55 0.48 0.36 0.41 0.47 0.40 0.42 0.43 0.48 0.56 0.55 0.51
0.00 0.00 0.00 0.00 0.00 0.00 0.00 0.00 0.00 0.00 0.00 0.00 0.00 0.01 0.01 0.01 0.02 0.05 0.11 0.15 0.14 0.13 0.19 0.25 0.29 0.31 0.34 0.39 0.48 0.60 0.70 0.76 0.67 0.53 0.50 0.53 0.41 0.38 0.40 0.44 0.51 0.49 0.44
0.00 0.00 0.00 0.00 0.00 0.00 0.00 0.00 0.01 0.00 0.00 0.00 0.00 0.01 0.02 0.02 0.04 0.11 0.18 0.22 0.17 0.12 0.15 0.21 0.29 0.33 0.34 0.37 0.44 0.60 0.77 0.85 0.75 0.54 0.47 0.54 0.50 0.46 0.45 0.42 0.44 0.48 0.44
0.00 0.00 0.00 0.00 0.00 0.00 0.00 0.00 0.01 0.02 0.02 0.02 0.02 0.02 0.03 0.04 0.08 0.15 0.20 0.24 0.22 0.16 0.18 0.23 0.26 0.27 0.26 0.30 0.38 0.50 0.78 1.02 0.92 0.69 0.49 0.52 0.53 0.54 0.59 0.46 0.42 0.44 0.42

GEFSMA_prec_meanprecacc_036.txt.gz
Total_Precipitation_Accumulation
0.00 0.00 0.00 0.00 0.00 0.00 0.00 0.00 0.00 0.00 0.00 0.00 0.00 0.00 0.00 0.00 0.00 0.00 0.00 0.00 0.00 0.00 0.01 0.01 0.02 0.04 0.06 0.09 0.11 0.12 0.12 0.11 0.12 0.12 0.12 0.11 0.10 0.09 0.08 0.06 0.06 0.05 0.04
0.00 0.00 0.00 0.00 0.00 0.00 0.00 0.00 0.00 0.00 0.00 0.00 0.00 0.00 0.00 0.00 0.00 0.00 0.00 0.00 0.00 0.00 0.00 0.00 0.01 0.03 0.05 0.07 0.10 0.12 0.12 0.13 0.13 0.14 0.15 0.15 0.16 0.16 0.16 0.15 0.14 0.12 0.10
0.00 0.00 0.00 0.00 0.00 0.00 0.00 0.00 0.00 0.00 0.00 0.00 0.00 0.00 0.00 0.00 0.00 0.00 0.00 0.00 0.00 0.00 0.00 0.00 0.01 0.02 0.03 0.04 0.06 0.08 0.10 0.13 0.14 0.16 0.17 0.18 0.20 0.21 0.23 0.24 0.24 0.24 0.22
0.00 0.00 0.00 0.00 0.00 0.00 0.00 0.00 0.00 0.00 0.00 0.00 0.00 0.00 0.00 0.00 0.00 0.00 0.00 0.00 0.00 0.00 0.00 0.00 0.01 0.01 0.01 0.02 0.03 0.05 0.08 0.10 0.12 0.13 0.15 0.17 0.19 0.21 0.25 0.29 0.32 0.34 0.36
0.00 0.00 0.00 0.00 0.00 0.00 0.00 0.00 0.00 0.00 0.00 0.00 0.00 0.00 0.00 0.00 0.00 0.00 0.00 0.00 0.00 0.00 0.00 0.00 0.00 0.00 0.01 0.01 0.01 0.03 0.06 0.08 0.10 0.12 0.13 0.15 0.17 0.20 0.24 0.28 0.33 0.38 0.45
0.00 0.00 0.00 0.00 0.00 0.00 0.00 0.00 0.00 0.00 0.00 0.00 0.00 0.00 0.00 0.00 0.00 0.00 0.00 0.00 0.00 0.00 0.00 0.00 0.00 0.00 0.00 0.01 0.02 0.02 0.04 0.06 0.08 0.10 0.12 0.14 0.16 0.19 0.22 0.27 0.32 0.39 0.50
0.00 0.00 0.00 0.00 0.00 0.00 0.00 0.00 0.00 0.00 0.00 0.00 0.00 0.01 0.00 0.00 0.00 0.00 0.00 0.00 0.00 0.00 0.00 0.00 0.00 0.01 0.01 0.01 0.02 0.02 0.02 0.04 0.06 0.09 0.12 0.14 0.17 0.20 0.24 0.29 0.35 0.41 0.49
0.00 0.00 0.00 0.00 0.00 0.00 0.00 0.00 0.00 0.00 0.00 0.00 0.01 0.03 0.01 0.00 0.00 0.00 0.00 0.00 0.00 0.00 0.00 0.00 0.01 0.01 0.01 0.02 0.01 0.01 0.01 0.02 0.04 0.09 0.14 0.17 0.19 0.23 0.27 0.33 0.40 0.45 0.50
0.00 0.00 0.00 0.00 0.00 0.00 0.00 0.00 0.00 0.01 0.01 0.01 0.01 0.04 0.05 0.03 0.02 0.01 0.00 0.00 0.00 0.00 0.00 0.00 0.00 0.00 0.01 0.01 0.01 0.01 0.01 0.02 0.03 0.07 0.14 0.20 0.24 0.29 0.34 0.39 0.43 0.47 0.52
0.00 0.00 0.00 0.00 0.00 0.00 0.00 0.00 0.01 0.02 0.03 0.03 0.02 0.03 0.05 0.06 0.07 0.05 0.02 0.01 0.00 0.00 0.00 0.00 0.00 0.00 0.00 0.01 0.01 0.01 0.02 0.03 0.05 0.07 0.13 0.22 0.30 0.37 0.45 0.51 0.54 0.58 0.59
0.00 0.00 0.00 0.00 0.00 0.00 0.01 0.01 0.02 0.03 0.04 0.05 0.06 0.06 0.06 0.07 0.09 0.11 0.07 0.03 0.01 0.00 0.00 0.00 0.00 0.00 0.00 0.01 0.01 0.02 0.03 0.06 0.08 0.10 0.17 0.27 0.35 0.45 0.56 0.66 0.71 0.72 0.72
0.00 0.00 0.00 0.00 0.00 0.00 0.01 0.01 0.02 0.04 0.05 0.06 0.08 0.09 0.11 0.12 0.10 0.11 0.10 0.06 0.04 0.01 0.00 0.00 0.00 0.00 0.01 0.02 0.02 0.03 0.04 0.06 0.08 0.11 0.19 0.31 0.39 0.48 0.59 0.71 0.80 0.84 0.87
0.00 0.00 0.00 0.00 0.00 0.00 0.01 0.01 0.02 0.03 0.04 0.06 0.07 0.09 0.11 0.13 0.13 0.14 0.15 0.10 0.07 0.04 0.02 0.01 0.02 0.02 0.03 0.04 0.04 0.04 0.04 0.05 0.07 0.10 0.16 0.28 0.37 0.41 0.45 0.54 0.70 0.82 0.91
0.00 0.00 0.00 0.00 0.00 0.00 0.01 0.01 0.02 0.03 0.05 0.07 0.08 0.10 0.13 0.14 0.16 0.17 0.19 0.20 0.18 0.10 0.06 0.03 0.04 0.05 0.05 0.06 0.06 0.07 0.06 0.06 0.07 0.10 0.13 0.19 0.25 0.28 0.33 0.40 0.50 0.62 0.74
0.00 0.00 0.00 0.00 0.00 0.00 0.00 0.01 0.02 0.03 0.04 0.06 0.08 0.10 0.12 0.13 0.15 0.17 0.20 0.24 0.27 0.21 0.11 0.06 0.05 0.04 0.05 0.06 0.06 0.08 0.08 0.07 0.09 0.11 0.12 0.14 0.17 0.20 0.23 0.26 0.33 0.40 0.49
0.00 0.00 0.00 0.00 0.00 0.00 0.00 0.00 0.01 0.01 0.02 0.03 0.05 0.07 0.09 0.10 0.11 0.14 0.16 0.19 0.23 0.26 0.17 0.06 0.05 0.05 0.07 0.07 0.07 0.10 0.09 0.11 0.12 0.13 0.13 0.15 0.16 0.17 0.18 0.20 0.23 0.27 0.32
0.00 0.00 0.00 0.00 0.00 0.00 0.00 0.00 0.00 0.00 0.01 0.02 0.03 0.05 0.07 0.08 0.10 0.10 0.12 0.14 0.17 0.22 0.21 0.08 0.06 0.09 0.10 0.09 0.10 0.12 0.11 0.11 0.10 0.11 0.14 0.16 0.17 0.19 0.21 0.21 0.22 0.24 0.26
0.00 0.00 0.00 0.00 0.00 0.00 0.00 0.00 0.00 0.00 0.00 0.00 0.01 0.03 0.05 0.07 0.08 0.09 0.11 0.12 0.14 0.17 0.24 0.19 0.11 0.12 0.12 0.14 0.17 0.18 0.16 0.14 0.12 0.12 0.16 0.19 0.21 0.23 0.24 0.25 0.27 0.29 0.31
0.00 0.00 0.00 0.00 0.00 0.00 0.00 0.00 0.00 0.00 0.00 0.00 0.00 0.01 0.03 0.05 0.06 0.06 0.07 0.10 0.13 0.18 0.25 0.28 0.20 0.16 0.15 0.15 0.18 0.18 0.18 0.16 0.15 0.16 0.20 0.22 0.24 0.25 0.27 0.30 0.32 0.35 0.37
0.00 0.00 0.00 0.00 0.00 0.00 0.00 0.00 0.00 0.00 0.00 0.00 0.00 0.01 0.01 0.02 0.02 0.03 0.06 0.10 0.16 0.20 0.23 0.28 0.26 0.21 0.21 0.19 0.21 0.18 0.16 0.15 0.16 0.17 0.21 0.25 0.28 0.32 0.34 0.37 0.40 0.42 0.44
0.00 0.00 0.00 0.00 0.00 0.00 0.00 0.00 0.00 0.00 0.00 0.00 0.00 0.00 0.00 0.01 0.01 0.04 0.08 0.13 0.20 0.27 0.32 0.37 0.37 0.33 0.30 0.25 0.21 0.22 0.26 0.26 0.25 0.23 0.24 0.27 0.32 0.37 0.40 0.42 0.45 0.46 0.47
0.00 0.00 0.00 0.00 0.00 0.00 0.00 0.00 0.00 0.00 0.00 0.00 0.00 0.00 0.00 0.00 0.01 0.04 0.09 0.17 0.30 0.40 0.48 0.50 0.50 0.45 0.36 0.31 0.31 0.35 0.42 0.49 0.44 0.29 0.32 0.34 0.36 0.43 0.43 0.45 0.51 0.54 0.54
0.00 0.00 0.00 0.00 0.00 0.00 0.00 0.00 0.00 0.00 0.00 0.00 0.00 0.00 0.01 0.01 0.02 0.03 0.06 0.16 0.25 0.33 0.40 0.44 0.45 0.37 0.34 0.33 0.41 0.52 0.56 0.60 0.51 0.36 0.42 0.48 0.41 0.43 0.44 0.48 0.57 0.57 0.53
0.00 0.00 0.00 0.00 0.00 0.00 0.00 0.00 0.00 0.00 0.00 0.00 0.00 0.01 0.01 0.01 0.02 0.06 0.12 0.17 0.16 0.15 0.20 0.26 0.30 0.32 0.35 0.41 0.51 0.66 0.76 0.80 0.68 0.53 0.50 0.54 0.41 0.38 0.40 0.44 0.51 0.50 0.45
0.00 0.00 0.00 0.00 0.00 0.00 0.00 0.00 0.01 0.00 0.00 0.00 0.00 0.01 0.03 0.03 0.05 0.14 0.22 0.26 0.20 0.13 0.15 0.22 0.30 0.34 0.35 0.38 0.45 0.66 0.83 0.90 0.78 0.55 0.47 0.55 0.51 0.47 0.45 0.42 0.44 0.48 0.46
0.00 0.00 0.00 0.00 0.00 0.00 0.00 0.00 0.01 0.02 0.02 0.02 0.02 0.02 0.03 0.05 0.10 0.19 0.24 0.28 0.24 0.17 0.19 0.23 0.26 0.27 0.26 0.30 0.39 0.54 0.88 1.15 0.99 0.72 0.50 0.55 0.57 0.58 0.64 0.47 0.42 0.45 0.44

GEFSMA_prec_meanprecacc_042.txt.gz
Total_Precipitation_Accumulation
0.00 0.00 0.00 0.00 0.00 0.00 0.00 0.00 0.00 0.00 0.00 0.00 0.00 0.00 0.00 0.00 0.00 0.00 0.00 0.00 0.00 0.00 0.01 0.01 0.02 0.04 0.06 0.09 0.11 0.13 0.13 0.13 0.13 0.13 0.14 0.15 0.15 0.16 0.16 0.17 0.18 0.18 0.18
0.00 0.00 0.00 0.00 0.00 0.00 0.00 0.00 0.00 0.00 0.00 0.00 0.00 0.00 0.00 0.00 0.00 0.00 0.00 0.00 0.00 0.00 0.00 0.00 0.01 0.03 0.05 0.07 0.10 0.12 0.13 0.13 0.13 0.14 0.15 0.16 0.17 0.18 0.19 0.20 0.21 0.22 0.22
0.00 0.00 0.00 0.00 0.00 0.00 0.00 0.00 0.00 0.00 0.00 0.00 0.00 0.00 0.00 0.00 0.00 0.00 0.00 0.00 0.00 0.00 0.00 0.00 0.01 0.02 0.03 0.04 0.06 0.08 0.10 0.13 0.14 0.16 0.17 0.19 0.20 0.21 0.23 0.25 0.26 0.27 0.28
0.00 0.00 0.00 0.00 0.00 0.00 0.00 0.00 0.00 0.00 0.00 0.00 0.00 0.00 0.00 0.00 0.00 0.00 0.00 0.00 0.00 0.00 0.00 0.00 0.01 0.01 0.01 0.02 0.03 0.05 0.08 0.10 0.12 0.13 0.15 0.17 0.19 0.21 0.25 0.29 0.32 0.35 0.37
0.00 0.00 0.00 0.00 0.00 0.00 0.00 0.00 0.00 0.00 0.00 0.00 0.00 0.00 0.00 0.00 0.00 0.00 0.00 0.00 0.00 0.00 0.00 0.00 0.00 0.00 0.01 0.01 0.01 0.03 0.06 0.08 0.10 0.12 0.13 0.15 0.17 0.20 0.24 0.28 0.33 0.38 0.45
0.00 0.00 0.00 0.00 0.00 0.00 0.00 0.00 0.00 0.00 0.00 0.00 0.00 0.00 0.00 0.00 0.00 0.00 0.00 0.00 0.00 0.00 0.00 0.00 0.00 0.00 0.00 0.01 0.02 0.02 0.04 0.06 0.08 0.10 0.12 0.14 0.16 0.19 0.22 0.27 0.32 0.39 0.50
0.00 0.00 0.00 0.00 0.00 0.00 0.00 0.00 0.00 0.00 0.00 0.00 0.00 0.01 0.00 0.00 0.00 0.00 0.00 0.00 0.00 0.00 0.00 0.00 0.00 0.01 0.01 0.01 0.02 0.02 0.02 0.04 0.06 0.09 0.12 0.14 0.17 0.20 0.24 0.29 0.35 0.41 0.49
0.00 0.00 0.00 0.00 0.00 0.00 0.00 0.00 0.00 0.00 0.00 0.00 0.01 0.03 0.01 0.00 0.00 0.00 0.00 0.00 0.00 0.00 0.00 0.00 0.01 0.01 0.01 0.02 0.01 0.01 0.01 0.02 0.04 0.09 0.14 0.17 0.20 0.23 0.27 0.33 0.40 0.45 0.50
0.00 0.00 0.00 0.00 0.00 0.00 0.00 0.00 0.00 0.01 0.01 0.01 0.01 0.04 0.05 0.03 0.02 0.01 0.00 0.00 0.00 0.00 0.00 0.00 0.00 0.00 0.01 0.01 0.01 0.01 0.01 0.02 0.03 0.07 0.14 0.20 0.25 0.29 0.35 0.40 0.44 0.48 0.53
0.00 0.00 0.00 0.00 0.00 0.00 0.00 0.00 0.01 0.02 0.03 0.03 0.02 0.03 0.05 0.06 0.07 0.05 0.02 0.01 0.00 0.00 0.00 0.00 0.00 0.00 0.00 0.01 0.01 0.01 0.02 0.03 0.05 0.07 0.13 0.22 0.30 0.38 0.46 0.52 0.56 0.60 0.62
0.00 0.00 0.00 0.00 0.00 0.00 0.01 0.01 0.02 0.03 0.04 0.05 0.06 0.06 0.06 0.07 0.09 0.11 0.07 0.03 0.01 0.00 0.00 0.00 0.00 0.00 0.00 0.01 0.01 0.02 0.03 0.06 0.08 0.10 0.18 0.28 0.36 0.46 0.59 0.69 0.74 0.76 0.76
0.00 0.00 0.00 0.00 0.00 0.00 0.01 0.01 0.02 0.04 0.05 0.06 0.08 0.09 0.11 0.12 0.10 0.11 0.10 0.06 0.04 0.01 0.00 0.00 0.00 0.00 0.01 0.02 0.02 0.03 0.04 0.06 0.08 0.11 0.20 0.32 0.41 0.50 0.62 0.75 0.84 0.88 0.91
0.00 0.00 0.00 0.00 0.00 0.00 0.01 0.01 0.02 0.03 0.04 0.06 0.07 0.09 0.11 0.13 0.13 0.14 0.15 0.10 0.07 0.04 0.02 0.01 0.02 0.02 0.03 0.04 0.04 0.04 0.04 0.05 0.07 0.10 0.16 0.30 0.38 0.43 0.48 0.57 0.73 0.86 0.96
0.00 0.00 0.00 0.00 0.00 0.00 0.01 0.01 0.02 0.03 0.05 0.07 0.08 0.10 0.13 0.14 0.16 0.17 0.19 0.20 0.18 0.10 0.06 0.03 0.04 0.05 0.05 0.06 0.06 0.07 0.06 0.06 0.07 0.10 0.14 0.21 0.27 0.30 0.34 0.42 0.53 0.66 0.78
0.00 0.00 0.00 0.00 0.00 0.00 0.00 0.01 0.02 0.03 0.04 0.06 0.08 0.10 0.12 0.13 0.15 0.17 0.20 0.24 0.27 0.21 0.11 0.06 0.05 0.04 0.05 0.06 0.06 0.08 0.08 0.07 0.09 0.12 0.14 0.15 0.18 0.22 0.25 0.29 0.36 0.44 0.53
0.00 0.00 0.00 0.00 0.00 0.00 0.00 0.00 0.01 0.01 0.02 0.03 0.05 0.07 0.09 0.10 0.11 0.14 0.16 0.19 0.23 0.26 0.17 0.06 0.05 0.05 0.07 0.07 0.07 0.10 0.09 0.11 0.12 0.13 0.14 0.16 0.18 0.19 0.21 0.23 0.26 0.31 0.37
0.00 0.00 0.00 0.00 0.00 0.00 0.00 0.00 0.00 0.00 0.01 0.02 0.03 0.05 0.07 0.08 0.10 0.10 0.12 0.14 0.17 0.22 0.21 0.08 0.06 0.09 0.10 0.09 0.10 0.12 0.11 0.11 0.10 0.11 0.15 0.17 0.19 0.21 0.23 0.25 0.26 0.28 0.31
0.00 0.00 0.00 0.00 0.00 0.00 0.00 0.00 0.00 0.00 0.00 0.00 0.01 0.03 0.05 0.07 0.08 0.09 0.11 0.12 0.14 0.17 0.24 0.21 0.11 0.12 0.12 0.14 0.17 0.18 0.16 0.15 0.13 0.12 0.16 0.20 0.22 0.25 0.26 0.27 0.30 0.33 0.35
0.00 0.00 0.00 0.00 0.00 0.00 0.00 0.00 0.00 0.00 0.00 0.00 0.00 0.01 0.03 0.05 0.06 0.06 0.07 0.10 0.13 0.18 0.25 0.29 0.20 0.16 0.15 0.15 0.18 0.19 0.18 0.16 0.15 0.16 0.20 0.22 0.24 0.26 0.29 0.32 0.35 0.38 0.41
0.00 0.00 0.00 0.00 0.00 0.00 0.00 0.00 0.00 0.00 0.00 0.00 0.00 0.01 0.01 0.02 0.02 0.03 0.06 0.10 0.16 0.21 0.24 0.29 0.28 0.22 0.21 0.19 0.21 0.18 0.16 0.15 0.16 0.17 0.21 0.25 0.29 0.32 0.35 0.38 0.41 0.43 0.45
0.00 0.00 0.00 0.00 0.00 0.00 0.00 0.00 0.00 0.00 0.00 0.00 0.00 0.00 0.00 0.01 0.01 0.04 0.09 0.13 0.21 0.28 0.35 0.41 0.39 0.35 0.30 0.25 0.21 0.22 0.27 0.26 0.25 0.23 0.24 0.27 0.32 0.37 0.40 0.42 0.45 0.46 0.47
0.00 0.00 0.00 0.00 0.00 0.00 0.00 0.00 0.00 0.00 0.00 0.00 0.00 0.00 0.00 0.00 0.01 0.05 0.09 0.18 0.32 0.44 0.52 0.55 0.54 0.47 0.36 0.31 0.32 0.37 0.44 0.51 0.46 0.29 0.32 0.35 0.36 0.43 0.43 0.45 0.51 0.54 0.55
0.00 0.00 0.00 0.00 0.00 0.00 0.00 0.00 0.00 0.00 0.00 0.00 0.00 0.00 0.01 0.01 0.02 0.03 0.06 0.17 0.27 0.37 0.44 0.47 0.47 0.38 0.35 0.34 0.44 0.56 0.59 0.63 0.53 0.37 0.43 0.48 0.41 0.43 0.44 0.48 0.57 0.57 0.54
0.00 0.00 0.00 0.00 0.00 0.00 0.00 0.00 0.00 0.00 0.00 0.00 0.00 0.01 0.01 0.01 0.02 0.07 0.14 0.21 0.18 0.16 0.21 0.27 0.31 0.33 0.36 0.42 0.55 0.72 0.80 0.82 0.69 0.53 0.50 0.55 0.41 0.38 0.40 0.44 0.51 0.50 0.46
0.00 0.00 0.00 0.00 0.00 0.00 0.00 0.00 0.01 0.00 0.00 0.00 0.00 0.01 0.03 0.03 0.05 0.16 0.26 0.29 0.21 0.13 0.15 0.23 0.31 0.34 0.35 0.38 0.46 0.71 0.89 0.92 0.79 0.55 0.47 0.55 0.51 0.47 0.45 0.42 0.44 0.48 0.46
0.00 0.00 0.00 0.00 0.00 0.00 0.00 0.00 0.01 0.02 0.02 0.02 0.02 0.02 0.03 0.05 0.12 0.22 0.27 0.29 0.25 0.17 0.21 0.24 0.26 0.27 0.26 0.30 0.39 0.57 0.96 1.24 1.03 0.73 0.50 0.57 0.59 0.61 0.68 0.47 0.42 0.45 0.45

GEFSMA_prec_meanprecacc_048.txt.gz
Total_Precipitation_Accumulation
0.00 0.00 0.00 0.00 0.00 0.00 0.00 0.00 0.00 0.00 0.00 0.00 0.00 0.00 0.00 0.00 0.00 0.00 0.00 0.00 0.00 0.00 0.01 0.01 0.02 0.04 0.06 0.09 0.11 0.13 0.13 0.13 0.13 0.13 0.14 0.15 0.15 0.16 0.16 0.17 0.18 0.19 0.20
0.00 0.00 0.00 0.00 0.00 0.00 0.00 0.00 0.00 0.00 0.00 0.00 0.00 0.00 0.00 0.00 0.00 0.00 0.00 0.00 0.00 0.00 0.00 0.00 0.01 0.03 0.05 0.07 0.10 0.12 0.13 0.13 0.13 0.14 0.15 0.16 0.17 0.18 0.19 0.20 0.21 0.22 0.22
0.00 0.00 0.00 0.00 0.00 0.00 0.00 0.00 0.00 0.00 0.00 0.00 0.00 0.00 0.00 0.00 0.00 0.00 0.00 0.00 0.00 0.00 0.00 0.00 0.01 0.02 0.03 0.04 0.06 0.08 0.10 0.13 0.14 0.16 0.17 0.19 0.20 0.21 0.23 0.25 0.26 0.27 0.28
0.00 0.00 0.00 0.00 0.00 0.00 0.00 0.00 0.00 0.00 0.00 0.00 0.00 0.00 0.00 0.00 0.00 0.00 0.00 0.00 0.00 0.00 0.00 0.00 0.01 0.01 0.01 0.02 0.03 0.05 0.08 0.10 0.12 0.13 0.15 0.17 0.19 0.21 0.25 0.29 0.32 0.35 0.37
0.01 0.01 0.00 0.00 0.00 0.00 0.00 0.00 0.00 0.00 0.00 0.00 0.00 0.00 0.00 0.00 0.00 0.00 0.00 0.00 0.00 0.00 0.00 0.00 0.00 0.00 0.01 0.01 0.01 0.03 0.06 0.08 0.10 0.12 0.13 0.15 0.17 0.20 0.24 0.28 0.33 0.38 0.45
0.01 0.01 0.00 0.00 0.00 0.00 0.00 0.00 0.00 0.00 0.00 0.00 0.00 0.00 0.00 0.00 0.00 0.00 0.00 0.00 0.00 0.00 0.00 0.00 0.00 0.00 0.00 0.01 0.02 0.02 0.04 0.06 0.08 0.10 0.12 0.14 0.16 0.19 0.22 0.27 0.32 0.39 0.50
0.02 0.01 0.00 0.00 0.00 0.00 0.00 0.00 0.00 0.00 0.00 0.00 0.00 0.01 0.00 0.00 0.00 0.00 0.00 0.00 0.00 0.00 0.00 0.00 0.00 0.01 0.01 0.01 0.02 0.02 0.02 0.04 0.06 0.09 0.12 0.14 0.17 0.20 0.24 0.29 0.35 0.42 0.50
0.03 0.01 0.00 0.00 0.00 0.00 0.00 0.00 0.00 0.00 0.00 0.00 0.01 0.03 0.01 0.00 0.00 0.00 0.00 0.00 0.00 0.00 0.00 0.00 0.01 0.01 0.01 0.02 0.01 0.01 0.01 0.02 0.04 0.09 0.14 0.17 0.20 0.23 0.28 0.34 0.41 0.46 0.51
0.02 0.01 0.00 0.00 0.00 0.00 0.00 0.00 0.00 0.01 0.01 0.01 0.01 0.04 0.05 0.03 0.02 0.01 0.00 0.00 0.00 0.00 0.00 0.00 0.00 0.00 0.01 0.01 0.01 0.01 0.01 0.02 0.03 0.07 0.14 0.20 0.25 0.30 0.36 0.42 0.46 0.50 0.55
0.01 0.01 0.00 0.00 0.00 0.00 0.00 0.00 0.01 0.02 0.03 0.03 0.02 0.03 0.05 0.06 0.07 0.05 0.02 0.01 0.00 0.00 0.00 0.00 0.00 0.00 0.00 0.01 0.01 0.01 0.02 0.03 0.05 0.07 0.14 0.23 0.31 0.40 0.49 0.55 0.59 0.64 0.65
0.00 0.00 0.00 0.00 0.00 0.00 0.01 0.01 0.02 0.03 0.04 0.05 0.06 0.06 0.06 0.07 0.09 0.11 0.07 0.03 0.01 0.00 0.00 0.00 0.00 0.00 0.00 0.01 0.01 0.02 0.03 0.06 0.08 0.11 0.18 0.29 0.38 0.49 0.62 0.73 0.79 0.81 0.81
0.00 0.00 0.00 0.00 0.00 0.00 0.01 0.01 0.02 0.04 0.05 0.06 0.08 0.09 0.11 0.12 0.10 0.11 0.10 0.06 0.04 0.01 0.00 0.00 0.00 0.00 0.01 0.02 0.02 0.03 0.04 0.06 0.09 0.11 0.21 0.34 0.43 0.53 0.65 0.79 0.89 0.94 0.97
0.01 0.00 0.00 0.00 0.00 0.00 0.01 0.01 0.02 0.03 0.04 0.06 0.07 0.09 0.11 0.13 0.13 0.14 0.15 0.10 0.07 0.04 0.02 0.01 0.02 0.02 0.03 0.04 0.04 0.04 0.04 0.05 0.07 0.10 0.17 0.31 0.41 0.46 0.51 0.61 0.78 0.91 1.01
0.01 0.00 0.00 0.00 0.00 0.00 0.01 0.01 0.02 0.03 0.05 0.07 0.08 0.10 0.13 0.14 0.16 0.17 0.19 0.20 0.18 0.10 0.06 0.03 0.04 0.05 0.05 0.06 0.06 0.07 0.06 0.06 0.07 0.11 0.15 0.22 0.29 0.32 0.37 0.45 0.57 0.71 0.83
0.00 0.00 0.00 0.00 0.00 0.00 0.00 0.01 0.02 0.03 0.04 0.06 0.08 0.10 0.12 0.13 0.15 0.17 0.20 0.24 0.27 0.21 0.11 0.06 0.05 0.04 0.05 0.06 0.06 0.08 0.08 0.07 0.10 0.12 0.14 0.16 0.19 0.23 0.27 0.32 0.40 0.49 0.58
0.00 0.00 0.00 0.00 0.00 0.00 0.00 0.00 0.01 0.01 0.02 0.03 0.05 0.07 0.09 0.10 0.11 0.14 0.16 0.19 0.23 0.26 0.17 0.06 0.05 0.05 0.07 0.07 0.07 0.10 0.09 0.11 0.13 0.13 0.15 0.17 0.19 0.21 0.23 0.26 0.30 0.35 0.41
0.00 0.00 0.00 0.00 0.00 0.00 0.00 0.00 0.00 0.00 0.01 0.02 0.03 0.05 0.07 0.08 0.10 0.10 0.12 0.14 0.17 0.22 0.21 0.09 0.06 0.09 0.10 0.09 0.10 0.12 0.11 0.11 0.10 0.11 0.15 0.18 0.20 0.23 0.25 0.27 0.29 0.31 0.35
0.00 0.00 0.00 0.00 0.00 0.00 0.00 0.00 0.00 0.00 0.00 0.00 0.01 0.03 0.05 0.07 0.08 0.09 0.11 0.12 0.14 0.17 0.25 0.21 0.11 0.12 0.12 0.14 0.17 0.18 0.16 0.15 0.13 0.12 0.16 0.20 0.23 0.26 0.27 0.29 0.32 0.36 0.39
0.00 0.00 0.00 0.00 0.00 0.00 0.00 0.00 0.00 0.00 0.00 0.00 0.00 0.01 0.03 0.05 0.06 0.06 0.07 0.10 0.13 0.18 0.26 0.29 0.20 0.16 0.15 0.15 0.18 0.19 0.18 0.16 0.15 0.16 0.20 0.22 0.24 0.27 0.30 0.33 0.37 0.40 0.43
0.00 0.00 0.00 0.00 0.00 0.00 0.00 0.00 0.00 0.00 0.00 0.00 0.00 0.01 0.01 0.02 0.02 0.03 0.06 0.10 0.16 0.21 0.24 0.30 0.30 0.23 0.21 0.19 0.21 0.18 0.16 0.15 0.16 0.17 0.21 0.25 0.29 0.33 0.35 0.38 0.41 0.43 0.46
0.00 0.00 0.00 0.00 0.00 0.00 0.00 0.00 0.00 0.00 0.00 0.00 0.00 0.00 0.00 0.01 0.01 0.04 0.09 0.14 0.21 0.29 0.38 0.44 0.42 0.36 0.31 0.25 0.21 0.22 0.27 0.27 0.26 0.23 0.24 0.27 0.32 0.37 0.40 0.42 0.45 0.46 0.48
0.00 0.00 0.00 0.00 0.00 0.00 0.00 0.00 0.00 0.00 0.00 0.00 0.00 0.00 0.00 0.00 0.01 0.05 0.09 0.19 0.33 0.47 0.56 0.59 0.56 0.48 0.37 0.32 0.32 0.37 0.45 0.52 0.46 0.29 0.32 0.35 0.36 0.43 0.43 0.45 0.51 0.54 0.55
0.00 0.00 0.00 0.00 0.00 0.00 0.00 0.00 0.00 0.00 0.00 0.00 0.00 0.00 0.01 0.01 0.02 0.03 0.07 0.18 0.29 0.39 0.46 0.49 0.48 0.38 0.35 0.34 0.46 0.59 0.61 0.65 0.54 0.37 0.43 0.48 0.41 0.43 0.44 0.48 0.57 0.57 0.54
0.00 0.00 0.00 0.00 0.00 0.00 0.00 0.00 0.00 0.00 0.00 0.00 0.00 0.01 0.01 0.01 0.02 0.07 0.15 0.23 0.19 0.17 0.21 0.27 0.31 0.33 0.36 0.43 0.57 0.76 0.82 0.84 0.69 0.53 0.50 0.55 0.41 0.38 0.40 0.44 0.51 0.50 0.46
0.00 0.00 0.00 0.00 0.00 0.00 0.00 0.00 0.01 0.00 0.00 0.00 0.00 0.01 0.03 0.03 0.05 0.17 0.29 0.32 0.21 0.13 0.15 0.23 0.32 0.35 0.36 0.38 0.46 0.73 0.91 0.95 0.80 0.55 0.47 0.55 0.51 0.47 0.45 0.42 0.44 0.48 0.46
0.00 0.00 0.00 0.00 0.00 0.00 0.00 0.00 0.01 0.02 0.02 0.02 0.02 0.02 0.03 0.06 0.12 0.24 0.29 0.31 0.25 0.17 0.21 0.24 0.26 0.27 0.26 0.30 0.39 0.58 0.99 1.29 1.07 0.75 0.50 0.58 0.60 0.62 0.70 0.47 0.42 0.45 0.45

GEFSMA_prec_meanprecacc_054.txt.gz
Total_Precipitation_Accumulation
0.00 0.00 0.00 0.00 0.00 0.00 0.00 0.00 0.00 0.00 0.00 0.00 0.00 0.00 0.00 0.00 0.00 0.00 0.00 0.00 0.00 0.00 0.01 0.01 0.02 0.04 0.06 0.09 0.11 0.13 0.13 0.13 0.13 0.13 0.14 0.15 0.15 0.16 0.16 0.17 0.18 0.19 0.20
0.00 0.00 0.00 0.00 0.00 0.00 0.00 0.00 0.00 0.00 0.00 0.00 0.00 0.00 0.00 0.00 0.00 0.00 0.00 0.00 0.00 0.00 0.00 0.00 0.01 0.03 0.05 0.07 0.10 0.12 0.13 0.13 0.13 0.14 0.15 0.16 0.17 0.18 0.19 0.20 0.21 0.22 0.22
0.00 0.00 0.00 0.00 0.00 0.00 0.00 0.00 0.00 0.00 0.00 0.00 0.00 0.00 0.00 0.00 0.00 0.00 0.00 0.00 0.00 0.00 0.00 0.00 0.01 0.02 0.03 0.04 0.06 0.08 0.10 0.13 0.14 0.16 0.17 0.19 0.20 0.21 0.23 0.25 0.26 0.27 0.28
0.01 0.00 0.00 0.00 0.00 0.00 0.00 0.00 0.00 0.00 0.00 0.00 0.00 0.00 0.00 0.00 0.00 0.00 0.00 0.00 0.00 0.00 0.00 0.00 0.01 0.01 0.01 0.02 0.03 0.05 0.08 0.10 0.12 0.13 0.15 0.17 0.19 0.21 0.25 0.29 0.32 0.35 0.37
0.02 0.01 0.00 0.00 0.00 0.00 0.00 0.00 0.00 0.00 0.00 0.00 0.00 0.00 0.00 0.00 0.00 0.00 0.00 0.00 0.00 0.00 0.00 0.00 0.00 0.00 0.01 0.01 0.01 0.03 0.06 0.08 0.10 0.12 0.13 0.15 0.17 0.20 0.24 0.28 0.33 0.38 0.45
0.03 0.01 0.01 0.00 0.00 0.00 0.00 0.00 0.00 0.00 0.00 0.00 0.00 0.00 0.00 0.00 0.00 0.00 0.00 0.00 0.00 0.00 0.00 0.00 0.00 0.00 0.00 0.01 0.02 0.02 0.04 0.06 0.08 0.10 0.12 0.14 0.16 0.19 0.22 0.27 0.32 0.40 0.51
0.05 0.02 0.01 0.01 0.00 0.00 0.00 0.00 0.00 0.00 0.00 0.00 0.00 0.01 0.00 0.00 0.00 0.00 0.00 0.00 0.00 0.00 0.00 0.00 0.00 0.01 0.01 0.01 0.02 0.02 0.02 0.04 0.06 0.09 0.12 0.14 0.17 0.20 0.25 0.30 0.36 0.43 0.51
0.07 0.05 0.03 0.02 0.01 0.01 0.00 0.00 0.00 0.00 0.00 0.00 0.01 0.03 0.01 0.00 0.00 0.00 0.00 0.00 0.00 0.00 0.00 0.00 0.01 0.01 0.01 0.02 0.01 0.01 0.01 0.02 0.04 0.09 0.14 0.17 0.20 0.24 0.29 0.35 0.42 0.47 0.53
0.07 0.05 0.04 0.02 0.01 0.01 0.00 0.00 0.00 0.01 0.01 0.01 0.01 0.04 0.05 0.03 0.02 0.01 0.00 0.00 0.00 0.00 0.00 0.00 0.00 0.00 0.01 0.01 0.01 0.01 0.01 0.02 0.03 0.07 0.14 0.21 0.26 0.32 0.38 0.43 0.48 0.52 0.58
0.04 0.04 0.03 0.02 0.02 0.01 0.01 0.01 0.01 0.02 0.03 0.03 0.02 0.03 0.05 0.06 0.07 0.05 0.02 0.01 0.00 0.00 0.00 0.00 0.00 0.00 0.00 0.01 0.01 0.01 0.02 0.03 0.05 0.07 0.14 0.24 0.33 0.42 0.51 0.59 0.63 0.68 0.70
0.02 0.02 0.02 0.02 0.02 0.01 0.01 0.01 0.02 0.03 0.04 0.05 0.06 0.06 0.06 0.07 0.09 0.11 0.07 0.03 0.01 0.00 0.00 0.00 0.00 0.00 0.00 0.01 0.01 0.02 0.03 0.06 0.08 0.11 0.19 0.30 0.41 0.52 0.66 0.77 0.84 0.86 0.87
0.02 0.02 0.02 0.02 0.01 0.01 0.01 0.01 0.02 0.04 0.05 0.06 0.08 0.09 0.11 0.12 0.10 0.11 0.10 0.06 0.04 0.01 0.00 0.00 0.00 0.00 0.01 0.02 0.02 0.03 0.04 0.06 0.09 0.12 0.21 0.35 0.46 0.57 0.70 0.84 0.95 0.99 1.02
0.03 0.02 0.02 0.02 0.01 0.01 0.01 0.01 0.02 0.03 0.04 0.06 0.07 0.09 0.11 0.13 0.13 0.14 0.15 0.10 0.07 0.04 0.02 0.01 0.02 0.02 0.03 0.04 0.04 0.04 0.04 0.05 0.07 0.10 0.17 0.33 0.43 0.48 0.54 0.64 0.82 0.96 1.06
0.03 0.03 0.02 0.02 0.01 0.01 0.01 0.01 0.02 0.03 0.05 0.07 0.08 0.10 0.13 0.14 0.16 0.17 0.19 0.20 0.18 0.10 0.06 0.03 0.04 0.05 0.05 0.06 0.06 0.07 0.06 0.06 0.07 0.11 0.15 0.23 0.30 0.33 0.38 0.47 0.60 0.74 0.87
0.02 0.02 0.02 0.01 0.00 0.00 0.00 0.01 0.02 0.03 0.04 0.06 0.08 0.10 0.12 0.13 0.15 0.17 0.20 0.24 0.27 0.21 0.11 0.06 0.05 0.04 0.05 0.06 0.06 0.08 0.08 0.07 0.10 0.13 0.15 0.17 0.20 0.24 0.28 0.34 0.42 0.52 0.61
0.01 0.01 0.01 0.00 0.00 0.00 0.00 0.00 0.01 0.01 0.02 0.03 0.05 0.07 0.09 0.10 0.11 0.14 0.16 0.19 0.23 0.26 0.17 0.06 0.05 0.05 0.07 0.07 0.07 0.10 0.09 0.11 0.13 0.13 0.15 0.17 0.20 0.22 0.24 0.27 0.32 0.37 0.44
0.00 0.00 0.00 0.00 0.00 0.00 0.00 0.00 0.00 0.00 0.01 0.02 0.03 0.05 0.07 0.08 0.10 0.10 0.12 0.14 0.17 0.22 0.21 0.09 0.06 0.09 0.10 0.09 0.10 0.12 0.11 0.11 0.10 0.11 0.15 0.18 0.20 0.23 0.26 0.28 0.30 0.33 0.37
0.00 0.00 0.00 0.00 0.00 0.00 0.00 0.00 0.00 0.00 0.00 0.00 0.01 0.03 0.05 0.07 0.08 0.09 0.11 0.12 0.14 0.17 0.25 0.21 0.11 0.12 0.12 0.14 0.17 0.18 0.16 0.15 0.13 0.12 0.16 0.20 0.23 0.26 0.28 0.30 0.33 0.37 0.40
0.00 0.00 0.00 0.00 0.00 0.00 0.00 0.00 0.00 0.00 0.00 0.00 0.00 0.01 0.03 0.05 0.06 0.06 0.07 0.10 0.13 0.18 0.26 0.30 0.20 0.17 0.15 0.15 0.18 0.19 0.18 0.16 0.15 0.16 0.20 0.22 0.24 0.27 0.30 0.34 0.37 0.41 0.43
0.00 0.00 0.00 0.00 0.00 0.00 0.00 0.00 0.00 0.00 0.00 0.00 0.00 0.01 0.01 0.02 0.02 0.03 0.06 0.10 0.16 0.21 0.25 0.31 0.30 0.23 0.22 0.19 0.21 0.18 0.16 0.15 0.16 0.17 0.21 0.25 0.29 0.33 0.35 0.38 0.41 0.43 0.46
0.00 0.00 0.00 0.00 0.00 0.00 0.00 0.00 0.00 0.00 0.00 0.00 0.00 0.00 0.00 0.01 0.01 0.04 0.09 0.14 0.21 0.29 0.38 0.45 0.43 0.37 0.31 0.26 0.22 0.22 0.27 0.27 0.26 0.23 0.24 0.27 0.32 0.37 0.40 0.42 0.45 0.46 0.48
0.00 0.00 0.00 0.00 0.00 0.00 0.00 0.00 0.00 0.00 0.00 0.00 0.00 0.00 0.00 0.00 0.01 0.05 0.09 0.19 0.33 0.47 0.58 0.61 0.58 0.50 0.37 0.32 0.32 0.37 0.45 0.53 0.47 0.29 0.32 0.35 0.36 0.43 0.43 0.45 0.51 0.54 0.55
0.00 0.00 0.00 0.00 0.00 0.00 0.00 0.00 0.00 0.00 0.00 0.00 0.00 0.00 0.01 0.01 0.02 0.03 0.07 0.18 0.29 0.40 0.47 0.51 0.49 0.39 0.35 0.34 0.47 0.60 0.63 0.67 0.55 0.37 0.43 0.48 0.41 0.43 0.44 0.48 0.57 0.57 0.54
0.00 0.00 0.00 0.00 0.00 0.00 0.00 0.00 0.00 0.00 0.00 0.00 0.00 0.01 0.01 0.01 0.02 0.07 0.15 0.24 0.20 0.17 0.22 0.27 0.31 0.33 0.37 0.43 0.58 0.78 0.85 0.86 0.70 0.53 0.50 0.55 0.41 0.38 0.40 0.44 0.51 0.50 0.46
0.00 0.00 0.00 0.00 0.00 0.00 0.00 0.00 0.01 0.00 0.00 0.00 0.00 0.01 0.03 0.03 0.05 0.18 0.30 0.33 0.22 0.13 0.15 0.23 0.32 0.35 0.36 0.39 0.47 0.73 0.92 0.97 0.82 0.55 0.47 0.55 0.51 0.47 0.45 0.42 0.44 0.48 0.46
0.00 0.00 0.00 0.00 0.00 0.00 0.00 0.00 0.01 0.02 0.02 0.02 0.02 0.02 0.03 0.06 0.13 0.25 0.30 0.32 0.26 0.18 0.21 0.24 0.26 0.27 0.26 0.30 0.39 0.58 0.99 1.33 1.11 0.77 0.50 0.59 0.61 0.64 0.72 0.48 0.42 0.45 0.45

GEFSMA_prec_meanprecacc_060.txt.gz
Total_Precipitation_Accumulation
0.00 0.00 0.00 0.00 0.00 0.00 0.00 0.00 0.00 0.00 0.00 0.00 0.00 0.00 0.00 0.00 0.00 0.00 0.00 0.00 0.00 0.00 0.01 0.01 0.02 0.04 0.06 0.09 0.11 0.13 0.13 0.13 0.13 0.13 0.14 0.15 0.15 0.16 0.16 0.17 0.18 0.19 0.20
0.00 0.00 0.00 0.00 0.00 0.00 0.00 0.00 0.00 0.00 0.00 0.00 0.00 0.00 0.00 0.00 0.00 0.00 0.00 0.00 0.00 0.00 0.00 0.00 0.01 0.03 0.05 0.07 0.10 0.12 0.13 0.13 0.13 0.14 0.15 0.16 0.17 0.18 0.19 0.20 0.21 0.22 0.22
0.00 0.00 0.00 0.00 0.00 0.00 0.00 0.00 0.00 0.00 0.00 0.00 0.00 0.00 0.00 0.00 0.00 0.00 0.00 0.00 0.00 0.00 0.00 0.00 0.01 0.02 0.03 0.04 0.06 0.08 0.10 0.13 0.14 0.16 0.17 0.19 0.20 0.21 0.23 0.25 0.26 0.27 0.28
0.01 0.00 0.00 0.00 0.00 0.00 0.00 0.00 0.00 0.00 0.00 0.00 0.00 0.00 0.00 0.00 0.00 0.00 0.00 0.00 0.00 0.00 0.00 0.00 0.01 0.01 0.01 0.02 0.03 0.05 0.08 0.10 0.12 0.13 0.15 0.17 0.19 0.22 0.25 0.29 0.32 0.35 0.38
0.02 0.01 0.00 0.00 0.00 0.00 0.00 0.00 0.00 0.00 0.00 0.00 0.00 0.00 0.00 0.00 0.00 0.00 0.00 0.00 0.00 0.00 0.00 0.00 0.00 0.00 0.01 0.01 0.01 0.03 0.06 0.08 0.10 0.12 0.13 0.15 0.17 0.20 0.24 0.28 0.33 0.39 0.46
0.03 0.01 0.01 0.00 0.00 0.00 0.00 0.00 0.00 0.00 0.00 0.00 0.00 0.00 0.00 0.00 0.00 0.00 0.00 0.00 0.00 0.00 0.00 0.00 0.00 0.00 0.00 0.01 0.02 0.02 0.04 0.06 0.08 0.10 0.12 0.14 0.16 0.19 0.23 0.27 0.33 0.40 0.51
0.06 0.03 0.01 0.01 0.00 0.00 0.00 0.00 0.00 0.00 0.00 0.00 0.00 0.01 0.00 0.00 0.00 0.00 0.00 0.00 0.00 0.00 0.00 0.00 0.00 0.01 0.01 0.01 0.02 0.02 0.02 0.04 0.06 0.09 0.12 0.14 0.17 0.21 0.25 0.30 0.37 0.44 0.52
0.09 0.07 0.04 0.02 0.01 0.01 0.00 0.00 0.00 0.00 0.00 0.00 0.01 0.03 0.01 0.00 0.00 0.00 0.00 0.00 0.00 0.00 0.00 0.00 0.01 0.01 0.01 0.02 0.01 0.01 0.01 0.02 0.04 0.09 0.14 0.17 0.20 0.24 0.29 0.36 0.44 0.49 0.55
0.11 0.09 0.06 0.05 0.03 0.02 0.01 0.01 0.01 0.01 0.02 0.01 0.01 0.04 0.05 0.03 0.02 0.01 0.00 0.00 0.00 0.00 0.00 0.00 0.00 0.00 0.01 0.01 0.01 0.01 0.01 0.02 0.03 0.07 0.14 0.21 0.26 0.33 0.39 0.46 0.50 0.55 0.61
0.10 0.09 0.07 0.06 0.05 0.04 0.03 0.02 0.02 0.02 0.03 0.03 0.02 0.03 0.05 0.06 0.07 0.05 0.02 0.01 0.00 0.00 0.00 0.00 0.00 0.00 0.00 0.01 0.01 0.01 0.02 0.03 0.05 0.07 0.14 0.25 0.34 0.44 0.54 0.61 0.67 0.72 0.74
0.08 0.08 0.07 0.07 0.06 0.05 0.04 0.03 0.03 0.04 0.05 0.06 0.06 0.06 0.06 0.07 0.09 0.11 0.07 0.03 0.01 0.00 0.00 0.00 0.00 0.00 0.00 0.01 0.01 0.02 0.03 0.06 0.08 0.11 0.19 0.31 0.42 0.54 0.69 0.81 0.88 0.90 0.90
0.07 0.07 0.07 0.07 0.05 0.04 0.04 0.03 0.04 0.04 0.05 0.07 0.08 0.09 0.11 0.12 0.10 0.11 0.10 0.06 0.04 0.01 0.00 0.00 0.00 0.00 0.01 0.02 0.02 0.03 0.04 0.06 0.09 0.12 0.21 0.36 0.48 0.59 0.73 0.88 0.98 1.03 1.06
0.08 0.08 0.07 0.06 0.05 0.04 0.03 0.04 0.04 0.04 0.05 0.06 0.07 0.09 0.11 0.13 0.13 0.14 0.15 0.10 0.07 0.04 0.02 0.01 0.02 0.02 0.03 0.04 0.04 0.04 0.04 0.05 0.07 0.10 0.18 0.34 0.44 0.50 0.56 0.67 0.85 1.00 1.11
0.11 0.10 0.08 0.06 0.05 0.03 0.03 0.03 0.03 0.04 0.05 0.07 0.08 0.10 0.13 0.14 0.16 0.17 0.19 0.20 0.18 0.10 0.06 0.03 0.04 0.05 0.05 0.06 0.06 0.07 0.06 0.06 0.07 0.11 0.16 0.24 0.31 0.34 0.40 0.49 0.62 0.78 0.91
0.08 0.08 0.06 0.05 0.04 0.03 0.02 0.02 0.03 0.03 0.05 0.06 0.08 0.10 0.12 0.13 0.15 0.17 0.20 0.24 0.27 0.21 0.11 0.06 0.05 0.04 0.05 0.06 0.06 0.08 0.08 0.07 0.10 0.13 0.15 0.17 0.21 0.25 0.29 0.35 0.44 0.54 0.64
0.05 0.05 0.04 0.03 0.03 0.02 0.02 0.01 0.01 0.01 0.02 0.03 0.05 0.07 0.09 0.10 0.11 0.14 0.16 0.19 0.23 0.26 0.17 0.06 0.05 0.05 0.07 0.07 0.07 0.10 0.09 0.11 0.13 0.13 0.15 0.17 0.20 0.22 0.25 0.28 0.33 0.39 0.47
0.03 0.03 0.03 0.03 0.02 0.02 0.01 0.01 0.00 0.00 0.01 0.02 0.03 0.05 0.07 0.08 0.10 0.10 0.12 0.14 0.17 0.22 0.21 0.09 0.06 0.09 0.10 0.09 0.10 0.12 0.11 0.11 0.10 0.11 0.15 0.18 0.20 0.24 0.27 0.29 0.31 0.35 0.39
0.03 0.03 0.03 0.02 0.02 0.01 0.01 0.00 0.00 0.00 0.00 0.00 0.01 0.03 0.05 0.07 0.08 0.09 0.11 0.12 0.14 0.17 0.25 0.21 0.11 0.12 0.12 0.14 0.17 0.18 0.16 0.15 0.13 0.12 0.16 0.20 0.23 0.26 0.28 0.30 0.34 0.39 0.42
0.02 0.02 0.02 0.02 0.01 0.01 0.01 0.01 0.01 0.00 0.00 0.00 0.00 0.01 0.03 0.05 0.06 0.06 0.07 0.10 0.13 0.18 0.26 0.30 0.20 0.17 0.15 0.15 0.18 0.19 0.18 0.16 0.15 0.16 0.20 0.22 0.24 0.27 0.30 0.34 0.38 0.41 0.44
0.02 0.02 0.01 0.01 0.01 0.01 0.01 0.01 0.01 0.00 0.00 0.00 0.00 0.01 0.01 0.02 0.02 0.03 0.06 0.10 0.16 0.21 0.25 0.31 0.30 0.23 0.22 0.19 0.21 0.18 0.16 0.15 0.16 0.17 0.21 0.25 0.29 0.33 0.35 0.38 0.41 0.43 0.46
0.02 0.02 0.02 0.02 0.02 0.01 0.01 0.01 0.01 0.01 0.00 0.00 0.00 0.00 0.00 0.01 0.01 0.04 0.09 0.14 0.21 0.29 0.38 0.45 0.44 0.37 0.31 0.26 0.22 0.22 0.27 0.27 0.26 0.23 0.24 0.27 0.32 0.37 0.40 0.42 0.45 0.46 0.48
0.03 0.03 0.03 0.03 0.03 0.02 0.01 0.01 0.01 0.01 0.01 0.00 0.00 0.00 0.00 0.00 0.01 0.05 0.09 0.19 0.34 0.47 0.58 0.62 0.59 0.50 0.37 0.32 0.32 0.37 0.46 0.54 0.48 0.29 0.32 0.35 0.36 0.43 0.43 0.45 0.51 0.54 0.55
0.05 0.05 0.04 0.04 0.03 0.02 0.01 0.01 0.01 0.00 0.00 0.00 0.00 0.00 0.01 0.01 0.02 0.03 0.07 0.18 0.29 0.40 0.48 0.51 0.50 0.39 0.35 0.34 0.47 0.61 0.64 0.69 0.56 0.37 0.43 0.49 0.41 0.43 0.44 0.48 0.57 0.57 0.54
0.06 0.05 0.04 0.02 0.02 0.01 0.01 0.00 0.00 0.00 0.00 0.00 0.00 0.01 0.01 0.01 0.02 0.07 0.15 0.24 0.20 0.17 0.22 0.27 0.31 0.33 0.37 0.43 0.59 0.81 0.88 0.88 0.70 0.53 0.50 0.55 0.41 0.38 0.40 0.44 0.51 0.50 0.46
0.07 0.04 0.02 0.02 0.01 0.01 0.01 0.01 0.01 0.00 0.00 0.00 0.00 0.01 0.03 0.03 0.05 0.18 0.30 0.33 0.22 0.13 0.15 0.23 0.32 0.35 0.37 0.39 0.47 0.74 0.92 0.98 0.83 0.55 0.47 0.55 0.51 0.47 0.45 0.42 0.44 0.48 0.46
0.04 0.03 0.02 0.01 0.01 0.00 0.00 0.01 0.01 0.02 0.02 0.02 0.02 0.02 0.03 0.06 0.13 0.25 0.30 0.32 0.26 0.18 0.21 0.24 0.26 0.27 0.26 0.30 0.39 0.58 1.00 1.37 1.15 0.79 0.50 0.60 0.62 0.65 0.74 0.48 0.42 0.45 0.45

GEFSMA_prec_meanprecacc_066.txt.gz
Total_Precipitation_Accumulation
0.00 0.00 0.00 0.00 0.00 0.00 0.00 0.00 0.00 0.00 0.00 0.00 0.00 0.00 0.00 0.00 0.00 0.00 0.00 0.00 0.00 0.00 0.01 0.01 0.02 0.04 0.06 0.09 0.11 0.13 0.13 0.13 0.13 0.13 0.14 0.15 0.15 0.16 0.16 0.17 0.18 0.19 0.20
0.00 0.00 0.00 0.00 0.00 0.00 0.00 0.00 0.00 0.00 0.00 0.00 0.00 0.00 0.00 0.00 0.00 0.00 0.00 0.00 0.00 0.00 0.00 0.00 0.01 0.03 0.05 0.07 0.10 0.12 0.13 0.13 0.13 0.14 0.15 0.16 0.17 0.18 0.19 0.20 0.21 0.22 0.23
0.00 0.00 0.00 0.00 0.00 0.00 0.00 0.00 0.00 0.00 0.00 0.00 0.00 0.00 0.00 0.00 0.00 0.00 0.00 0.00 0.00 0.00 0.00 0.00 0.01 0.02 0.03 0.04 0.06 0.08 0.10 0.13 0.14 0.16 0.17 0.19 0.20 0.21 0.23 0.25 0.26 0.27 0.29
0.01 0.00 0.00 0.00 0.00 0.00 0.00 0.00 0.00 0.00 0.00 0.00 0.00 0.00 0.00 0.00 0.00 0.00 0.00 0.00 0.00 0.00 0.00 0.00 0.01 0.01 0.01 0.02 0.03 0.05 0.08 0.10 0.12 0.13 0.15 0.17 0.19 0.22 0.25 0.29 0.32 0.35 0.38
0.02 0.01 0.00 0.00 0.00 0.00 0.00 0.00 0.00 0.00 0.00 0.00 0.00 0.00 0.00 0.00 0.00 0.00 0.00 0.00 0.00 0.00 0.00 0.00 0.00 0.00 0.01 0.01 0.01 0.03 0.06 0.08 0.10 0.12 0.13 0.15 0.17 0.20 0.24 0.29 0.34 0.39 0.46
0.04 0.02 0.01 0.00 0.00 0.00 0.00 0.00 0.00 0.00 0.00 0.00 0.00 0.00 0.00 0.00 0.00 0.00 0.00 0.00 0.00 0.00 0.00 0.00 0.00 0.00 0.00 0.01 0.02 0.02 0.04 0.06 0.08 0.10 0.12 0.14 0.16 0.19 0.23 0.27 0.33 0.41 0.52
0.09 0.04 0.02 0.01 0.00 0.00 0.00 0.00 0.00 0.00 0.00 0.00 0.01 0.01 0.00 0.00 0.00 0.00 0.00 0.00 0.00 0.00 0.00 0.00 0.00 0.01 0.01 0.01 0.02 0.02 0.02 0.04 0.06 0.09 0.12 0.14 0.17 0.21 0.25 0.31 0.37 0.45 0.53
0.14 0.10 0.06 0.04 0.03 0.02 0.01 0.01 0.01 0.01 0.01 0.01 0.02 0.03 0.02 0.00 0.00 0.00 0.00 0.00 0.00 0.00 0.00 0.00 0.01 0.01 0.01 0.02 0.01 0.01 0.01 0.02 0.04 0.09 0.14 0.17 0.20 0.25 0.30 0.37 0.45 0.51 0.56
0.18 0.16 0.13 0.10 0.08 0.05 0.04 0.04 0.04 0.03 0.03 0.02 0.02 0.05 0.05 0.03 0.02 0.01 0.00 0.00 0.00 0.00 0.00 0.00 0.00 0.00 0.01 0.01 0.01 0.01 0.01 0.02 0.03 0.07 0.14 0.21 0.27 0.33 0.40 0.47 0.52 0.57 0.63
0.20 0.19 0.18 0.15 0.12 0.10 0.09 0.08 0.07 0.06 0.06 0.05 0.04 0.04 0.05 0.06 0.07 0.05 0.02 0.01 0.00 0.00 0.00 0.00 0.00 0.00 0.00 0.01 0.01 0.01 0.02 0.03 0.05 0.07 0.14 0.25 0.34 0.44 0.55 0.63 0.69 0.74 0.76
0.17 0.18 0.17 0.16 0.14 0.14 0.13 0.12 0.11 0.10 0.09 0.09 0.08 0.07 0.07 0.08 0.09 0.11 0.07 0.03 0.01 0.00 0.00 0.00 0.00 0.00 0.00 0.01 0.01 0.02 0.03 0.06 0.08 0.11 0.19 0.31 0.42 0.55 0.70 0.83 0.90 0.93 0.93
0.17 0.16 0.17 0.16 0.16 0.15 0.14 0.13 0.13 0.11 0.10 0.10 0.10 0.11 0.12 0.13 0.11 0.11 0.10 0.06 0.04 0.01 0.00 0.00 0.00 0.00 0.01 0.02 0.02 0.03 0.04 0.06 0.09 0.12 0.21 0.36 0.48 0.60 0.74 0.90 1.00 1.05 1.08
0.14 0.15 0.16 0.17 0.17 0.17 0.17 0.15 0.13 0.11 0.10 0.10 0.10 0.11 0.12 0.13 0.13 0.15 0.15 0.10 0.07 0.04 0.02 0.01 0.02 0.02 0.03 0.04 0.04 0.04 0.04 0.05 0.07 0.10 0.18 0.34 0.45 0.51 0.57 0.68 0.87 1.02 1.13
0.18 0.21 0.19 0.18 0.16 0.16 0.15 0.14 0.12 0.11 0.10 0.10 0.10 0.12 0.14 0.14 0.16 0.18 0.19 0.20 0.18 0.10 0.06 0.03 0.04 0.05 0.05 0.06 0.06 0.07 0.06 0.06 0.07 0.11 0.16 0.24 0.31 0.35 0.40 0.50 0.64 0.79 0.93
0.15 0.16 0.16 0.16 0.15 0.13 0.12 0.11 0.10 0.09 0.08 0.09 0.10 0.12 0.14 0.14 0.16 0.18 0.20 0.24 0.27 0.21 0.11 0.06 0.05 0.04 0.05 0.06 0.06 0.08 0.08 0.07 0.10 0.13 0.15 0.17 0.21 0.25 0.30 0.36 0.45 0.56 0.66
0.11 0.12 0.12 0.12 0.12 0.10 0.09 0.07 0.07 0.06 0.06 0.06 0.08 0.09 0.10 0.11 0.12 0.14 0.16 0.19 0.23 0.26 0.17 0.06 0.05 0.05 0.07 0.07 0.07 0.10 0.09 0.11 0.13 0.13 0.15 0.18 0.20 0.23 0.26 0.30 0.34 0.41 0.48
0.08 0.08 0.08 0.09 0.09 0.08 0.07 0.06 0.06 0.06 0.06 0.06 0.08 0.09 0.09 0.10 0.11 0.11 0.12 0.14 0.17 0.22 0.21 0.09 0.06 0.09 0.10 0.09 0.10 0.12 0.11 0.11 0.10 0.11 0.15 0.18 0.21 0.24 0.27 0.30 0.33 0.36 0.41
0.06 0.06 0.06 0.06 0.06 0.06 0.05 0.05 0.06 0.07 0.07 0.07 0.07 0.07 0.08 0.09 0.10 0.11 0.11 0.12 0.14 0.18 0.25 0.21 0.11 0.12 0.12 0.14 0.17 0.18 0.16 0.15 0.13 0.12 0.16 0.20 0.24 0.26 0.28 0.31 0.35 0.40 0.43
0.05 0.04 0.05 0.06 0.06 0.05 0.05 0.05 0.06 0.06 0.05 0.05 0.04 0.05 0.06 0.07 0.08 0.08 0.08 0.10 0.13 0.18 0.26 0.30 0.20 0.17 0.15 0.15 0.18 0.19 0.18 0.16 0.15 0.16 0.20 0.22 0.24 0.27 0.31 0.35 0.39 0.42 0.45
0.04 0.04 0.03 0.03 0.04 0.05 0.06 0.06 0.07 0.07 0.07 0.07 0.06 0.06 0.05 0.04 0.04 0.04 0.07 0.10 0.16 0.21 0.25 0.31 0.30 0.23 0.22 0.19 0.21 0.18 0.16 0.15 0.16 0.17 0.21 0.25 0.29 0.33 0.35 0.38 0.41 0.44 0.46
0.04 0.04 0.05 0.05 0.05 0.05 0.06 0.07 0.08 0.08 0.08 0.07 0.05 0.04 0.02 0.02 0.02 0.04 0.09 0.14 0.21 0.29 0.38 0.46 0.44 0.37 0.31 0.26 0.22 0.22 0.27 0.27 0.26 0.23 0.24 0.27 0.32 0.37 0.40 0.42 0.45 0.46 0.48
0.05 0.05 0.07 0.08 0.08 0.09 0.11 0.10 0.08 0.07 0.07 0.06 0.04 0.03 0.02 0.02 0.02 0.05 0.09 0.19 0.34 0.47 0.58 0.62 0.59 0.50 0.37 0.32 0.32 0.37 0.46 0.54 0.48 0.29 0.32 0.35 0.36 0.43 0.43 0.45 0.51 0.54 0.55
0.12 0.12 0.12 0.13 0.14 0.15 0.16 0.12 0.09 0.07 0.05 0.04 0.03 0.02 0.02 0.01 0.02 0.03 0.07 0.18 0.29 0.40 0.48 0.51 0.50 0.39 0.35 0.35 0.47 0.63 0.66 0.70 0.57 0.37 0.43 0.49 0.41 0.43 0.44 0.48 0.57 0.57 0.54
0.18 0.17 0.17 0.16 0.14 0.13 0.11 0.08 0.06 0.04 0.03 0.02 0.02 0.02 0.02 0.02 0.02 0.07 0.15 0.24 0.20 0.17 0.22 0.27 0.31 0.33 0.37 0.43 0.60 0.83 0.90 0.89 0.71 0.53 0.50 0.55 0.41 0.38 0.40 0.44 0.51 0.50 0.46
0.22 0.19 0.16 0.13 0.12 0.10 0.08 0.05 0.04 0.03 0.02 0.01 0.01 0.01 0.03 0.03 0.05 0.18 0.30 0.33 0.22 0.13 0.15 0.23 0.32 0.36 0.37 0.40 0.47 0.74 0.93 0.99 0.84 0.55 0.47 0.55 0.51 0.47 0.45 0.42 0.44 0.48 0.46
0.21 0.17 0.14 0.10 0.08 0.06 0.04 0.03 0.03 0.03 0.02 0.02 0.02 0.02 0.03 0.06 0.13 0.25 0.30 0.32 0.26 0.18 0.21 0.24 0.26 0.27 0.26 0.30 0.39 0.58 1.00 1.39 1.17 0.81 0.50 0.60 0.62 0.65 0.75 0.48 0.42 0.45 0.45

GEFSMA_prec_meanprecacc_072.txt.gz
Total_Precipitation_Accumulation
0.00 0.00 0.00 0.00 0.00 0.00 0.00 0.00 0.00 0.00 0.00 0.00 0.00 0.00 0.00 0.00 0.00 0.00 0.00 0.00 0.00 0.00 0.01 0.01 0.02 0.04 0.06 0.09 0.11 0.13 0.13 0.13 0.13 0.13 0.14 0.15 0.15 0.16 0.16 0.17 0.18 0.19 0.20
0.00 0.00 0.00 0.00 0.00 0.00 0.00 0.00 0.00 0.00 0.00 0.00 0.00 0.00 0.00 0.00 0.00 0.00 0.00 0.00 0.00 0.00 0.00 0.00 0.01 0.03 0.05 0.07 0.10 0.12 0.13 0.13 0.13 0.14 0.15 0.16 0.17 0.18 0.19 0.20 0.21 0.22 0.23
0.00 0.00 0.00 0.00 0.00 0.00 0.00 0.00 0.00 0.00 0.00 0.00 0.00 0.00 0.00 0.00 0.00 0.00 0.00 0.00 0.00 0.00 0.00 0.00 0.01 0.02 0.03 0.04 0.06 0.08 0.10 0.13 0.14 0.16 0.17 0.19 0.20 0.21 0.23 0.25 0.26 0.27 0.29
0.01 0.00 0.00 0.00 0.00 0.00 0.00 0.00 0.00 0.00 0.00 0.00 0.00 0.00 0.00 0.00 0.00 0.00 0.00 0.00 0.00 0.00 0.00 0.00 0.01 0.01 0.01 0.02 0.03 0.05 0.08 0.10 0.12 0.13 0.15 0.17 0.19 0.22 0.25 0.29 0.32 0.35 0.38
0.02 0.01 0.01 0.00 0.00 0.00 0.00 0.00 0.00 0.00 0.00 0.00 0.00 0.00 0.00 0.00 0.00 0.00 0.00 0.00 0.00 0.00 0.00 0.00 0.00 0.00 0.01 0.01 0.01 0.03 0.06 0.08 0.10 0.12 0.13 0.15 0.17 0.20 0.24 0.29 0.34 0.39 0.47
0.04 0.02 0.01 0.00 0.00 0.00 0.00 0.00 0.00 0.00 0.00 0.00 0.00 0.00 0.00 0.00 0.00 0.00 0.00 0.00 0.00 0.00 0.00 0.00 0.00 0.00 0.00 0.01 0.02 0.02 0.04 0.06 0.08 0.10 0.12 0.14 0.16 0.19 0.23 0.27 0.34 0.42 0.53
0.10 0.05 0.03 0.02 0.01 0.00 0.00 0.00 0.00 0.00 0.00 0.00 0.01 0.01 0.00 0.00 0.00 0.00 0.00 0.00 0.00 0.00 0.00 0.00 0.00 0.01 0.01 0.01 0.02 0.02 0.02 0.04 0.06 0.09 0.12 0.14 0.17 0.21 0.26 0.31 0.38 0.45 0.54
0.16 0.12 0.07 0.05 0.04 0.03 0.02 0.02 0.02 0.02 0.01 0.01 0.02 0.03 0.02 0.00 0.00 0.00 0.00 0.00 0.00 0.00 0.00 0.00 0.01 0.01 0.01 0.02 0.01 0.01 0.01 0.02 0.04 0.09 0.14 0.17 0.20 0.25 0.30 0.37 0.46 0.52 0.57
0.20 0.17 0.15 0.13 0.10 0.08 0.06 0.06 0.05 0.05 0.04 0.03 0.03 0.05 0.06 0.04 0.02 0.01 0.01 0.00 0.00 0.00 0.00 0.00 0.00 0.00 0.01 0.01 0.01 0.01 0.01 0.02 0.03 0.07 0.14 0.21 0.27 0.33 0.40 0.47 0.53 0.58 0.64
0.22 0.22 0.21 0.19 0.16 0.14 0.12 0.12 0.11 0.10 0.10 0.08 0.07 0.06 0.08 0.09 0.10 0.07 0.03 0.02 0.01 0.00 0.00 0.00 0.00 0.00 0.00 0.01 0.01 0.01 0.02 0.03 0.05 0.07 0.14 0.25 0.34 0.45 0.56 0.64 0.70 0.76 0.78
0.19 0.20 0.20 0.21 0.19 0.19 0.19 0.19 0.18 0.17 0.16 0.15 0.13 0.12 0.11 0.11 0.12 0.14 0.09 0.04 0.03 0.01 0.00 0.00 0.00 0.00 0.00 0.01 0.01 0.02 0.03 0.06 0.08 0.11 0.19 0.31 0.43 0.56 0.71 0.84 0.92 0.94 0.94
0.18 0.18 0.19 0.20 0.22 0.23 0.23 0.23 0.24 0.23 0.21 0.20 0.19 0.18 0.19 0.19 0.16 0.17 0.15 0.10 0.07 0.04 0.02 0.01 0.01 0.01 0.01 0.02 0.02 0.03 0.04 0.06 0.09 0.12 0.21 0.36 0.49 0.61 0.75 0.90 1.01 1.06 1.09
0.15 0.17 0.20 0.22 0.23 0.25 0.27 0.27 0.25 0.23 0.22 0.20 0.19 0.19 0.20 0.21 0.21 0.21 0.21 0.16 0.12 0.07 0.05 0.03 0.03 0.03 0.03 0.04 0.04 0.04 0.04 0.05 0.07 0.10 0.18 0.34 0.45 0.51 0.57 0.68 0.87 1.02 1.14
0.20 0.24 0.24 0.23 0.23 0.24 0.24 0.24 0.24 0.23 0.22 0.22 0.21 0.21 0.22 0.22 0.24 0.25 0.27 0.28 0.25 0.16 0.10 0.06 0.05 0.06 0.06 0.07 0.06 0.07 0.06 0.06 0.07 0.11 0.16 0.24 0.31 0.35 0.40 0.50 0.64 0.80 0.94
0.17 0.19 0.20 0.21 0.21 0.20 0.20 0.20 0.20 0.19 0.20 0.20 0.21 0.23 0.24 0.24 0.26 0.28 0.30 0.34 0.36 0.29 0.16 0.09 0.08 0.06 0.06 0.07 0.06 0.09 0.08 0.07 0.10 0.13 0.15 0.17 0.21 0.26 0.30 0.37 0.46 0.56 0.67
0.12 0.13 0.14 0.15 0.16 0.15 0.15 0.15 0.15 0.15 0.16 0.17 0.18 0.20 0.21 0.22 0.24 0.26 0.27 0.28 0.32 0.33 0.23 0.11 0.08 0.07 0.08 0.08 0.08 0.10 0.09 0.11 0.13 0.13 0.15 0.18 0.20 0.23 0.26 0.30 0.35 0.42 0.50
0.08 0.09 0.10 0.11 0.11 0.11 0.11 0.11 0.12 0.13 0.15 0.17 0.20 0.23 0.25 0.26 0.26 0.25 0.25 0.26 0.28 0.31 0.28 0.13 0.09 0.11 0.12 0.10 0.10 0.12 0.11 0.11 0.10 0.11 0.15 0.18 0.21 0.24 0.28 0.30 0.33 0.37 0.42
0.07 0.07 0.07 0.07 0.08 0.08 0.08 0.09 0.11 0.13 0.15 0.18 0.19 0.22 0.24 0.26 0.26 0.26 0.26 0.25 0.23 0.24 0.29 0.24 0.13 0.14 0.13 0.14 0.17 0.18 0.16 0.15 0.13 0.12 0.16 0.20 0.24 0.26 0.28 0.31 0.36 0.41 0.44
0.05 0.05 0.06 0.07 0.07 0.07 0.07 0.08 0.09 0.11 0.12 0.13 0.14 0.15 0.17 0.18 0.19 0.17 0.16 0.17 0.17 0.21 0.28 0.31 0.21 0.17 0.16 0.15 0.18 0.19 0.18 0.16 0.15 0.16 0.20 0.22 0.24 0.27 0.31 0.35 0.39 0.42 0.45
0.05 0.05 0.05 0.05 0.06 0.08 0.09 0.11 0.12 0.13 0.12 0.12 0.12 0.13 0.13 0.12 0.11 0.10 0.11 0.14 0.19 0.23 0.26 0.32 0.31 0.24 0.22 0.19 0.21 0.18 0.16 0.15 0.16 0.17 0.21 0.25 0.29 0.33 0.35 0.38 0.41 0.44 0.46
0.06 0.07 0.08 0.09 0.09 0.09 0.11 0.12 0.13 0.13 0.13 0.12 0.12 0.10 0.09 0.08 0.07 0.08 0.12 0.17 0.23 0.31 0.39 0.46 0.44 0.38 0.31 0.26 0.22 0.22 0.27 0.27 0.26 0.23 0.24 0.27 0.32 0.37 0.40 0.42 0.45 0.46 0.48
0.09 0.10 0.13 0.15 0.15 0.16 0.19 0.17 0.13 0.13 0.13 0.11 0.10 0.08 0.07 0.07 0.06 0.07 0.11 0.20 0.34 0.48 0.59 0.62 0.60 0.50 0.37 0.32 0.32 0.38 0.46 0.55 0.48 0.29 0.32 0.35 0.36 0.43 0.43 0.45 0.51 0.54 0.55
0.19 0.19 0.20 0.21 0.22 0.24 0.25 0.19 0.15 0.12 0.10 0.08 0.07 0.06 0.05 0.04 0.04 0.04 0.07 0.19 0.30 0.40 0.48 0.52 0.50 0.39 0.35 0.35 0.48 0.63 0.66 0.71 0.58 0.37 0.43 0.49 0.41 0.43 0.44 0.48 0.57 0.57 0.54
0.27 0.28 0.27 0.24 0.22 0.22 0.19 0.14 0.11 0.09 0.08 0.07 0.05 0.04 0.04 0.03 0.03 0.07 0.16 0.24 0.20 0.17 0.22 0.27 0.31 0.33 0.37 0.44 0.61 0.84 0.91 0.90 0.71 0.53 0.50 0.55 0.41 0.38 0.40 0.44 0.51 0.50 0.46
0.31 0.28 0.25 0.23 0.21 0.19 0.14 0.10 0.08 0.07 0.05 0.04 0.03 0.03 0.04 0.03 0.06 0.18 0.30 0.33 0.22 0.13 0.15 0.23 0.32 0.36 0.37 0.40 0.47 0.74 0.93 1.00 0.84 0.55 0.47 0.55 0.51 0.47 0.45 0.42 0.44 0.48 0.46
0.29 0.26 0.22 0.18 0.15 0.12 0.10 0.07 0.06 0.05 0.04 0.03 0.03 0.02 0.03 0.06 0.13 0.26 0.30 0.33 0.26 0.18 0.21 0.24 0.26 0.27 0.26 0.30 0.39 0.58 1.01 1.40 1.18 0.81 0.50 0.60 0.62 0.66 0.76 0.48 0.42 0.45 0.45

GEFSMA_prec_meanprecacc_078.txt.gz
Total_Precipitation_Accumulation
0.00 0.00 0.00 0.00 0.00 0.00 0.00 0.00 0.00 0.00 0.00 0.00 0.00 0.00 0.00 0.00 0.00 0.00 0.00 0.00 0.00 0.00 0.01 0.01 0.02 0.04 0.06 0.09 0.11 0.13 0.13 0.13 0.13 0.13 0.14 0.15 0.15 0.16 0.16 0.17 0.18 0.19 0.20
0.00 0.00 0.00 0.00 0.00 0.00 0.00 0.00 0.00 0.00 0.00 0.00 0.00 0.00 0.00 0.00 0.00 0.00 0.00 0.00 0.00 0.00 0.00 0.00 0.01 0.03 0.05 0.07 0.10 0.12 0.13 0.13 0.13 0.14 0.15 0.16 0.17 0.18 0.19 0.20 0.21 0.22 0.23
0.00 0.00 0.00 0.00 0.00 0.00 0.00 0.00 0.00 0.00 0.00 0.00 0.00 0.00 0.00 0.00 0.00 0.00 0.00 0.00 0.00 0.00 0.00 0.00 0.01 0.02 0.03 0.04 0.06 0.08 0.10 0.13 0.14 0.16 0.17 0.19 0.20 0.21 0.23 0.25 0.26 0.27 0.29
0.01 0.00 0.00 0.00 0.00 0.00 0.00 0.00 0.00 0.00 0.00 0.00 0.00 0.00 0.00 0.00 0.00 0.00 0.00 0.00 0.00 0.00 0.00 0.00 0.01 0.01 0.01 0.02 0.03 0.05 0.08 0.10 0.12 0.13 0.15 0.17 0.19 0.22 0.25 0.29 0.32 0.35 0.38
0.02 0.01 0.01 0.00 0.00 0.00 0.00 0.00 0.00 0.00 0.00 0.00 0.00 0.00 0.00 0.00 0.00 0.00 0.00 0.00 0.00 0.00 0.00 0.00 0.00 0.00 0.01 0.01 0.01 0.03 0.06 0.08 0.10 0.12 0.13 0.15 0.17 0.20 0.24 0.29 0.34 0.39 0.47
0.04 0.02 0.01 0.01 0.00 0.00 0.00 0.00 0.00 0.00 0.00 0.00 0.00 0.00 0.00 0.00 0.00 0.00 0.00 0.00 0.00 0.00 0.00 0.00 0.00 0.00 0.00 0.01 0.02 0.02 0.04 0.06 0.08 0.10 0.12 0.14 0.16 0.19 0.23 0.28 0.34 0.42 0.53
0.10 0.05 0.03 0.02 0.01 0.00 0.00 0.00 0.00 0.00 0.00 0.00 0.01 0.01 0.00 0.00 0.00 0.00 0.00 0.00 0.00 0.00 0.00 0.00 0.00 0.01 0.01 0.01 0.02 0.02 0.02 0.04 0.06 0.09 0.12 0.14 0.17 0.21 0.26 0.31 0.38 0.45 0.54
0.16 0.12 0.08 0.05 0.04 0.03 0.02 0.02 0.02 0.02 0.01 0.01 0.02 0.03 0.02 0.00 0.00 0.00 0.00 0.00 0.00 0.00 0.00 0.00 0.01 0.01 0.01 0.02 0.01 0.01 0.01 0.02 0.04 0.09 0.14 0.17 0.20 0.25 0.30 0.37 0.46 0.52 0.58
0.21 0.18 0.16 0.13 0.11 0.09 0.07 0.07 0.06 0.05 0.05 0.04 0.04 0.06 0.06 0.04 0.02 0.01 0.01 0.01 0.01 0.02 0.02 0.02 0.02 0.01 0.01 0.01 0.01 0.01 0.01 0.02 0.03 0.07 0.14 0.21 0.27 0.33 0.41 0.48 0.53 0.59 0.65
0.22 0.23 0.22 0.19 0.17 0.15 0.13 0.14 0.13 0.12 0.11 0.10 0.08 0.08 0.09 0.10 0.11 0.08 0.04 0.03 0.03 0.03 0.02 0.02 0.02 0.02 0.01 0.02 0.02 0.02 0.02 0.04 0.05 0.07 0.14 0.25 0.34 0.45 0.56 0.64 0.70 0.76 0.79
0.19 0.21 0.21 0.22 0.20 0.20 0.21 0.22 0.20 0.20 0.19 0.18 0.16 0.15 0.15 0.15 0.16 0.17 0.12 0.06 0.06 0.05 0.04 0.03 0.03 0.03 0.03 0.03 0.03 0.03 0.04 0.07 0.09 0.11 0.20 0.31 0.43 0.56 0.71 0.84 0.92 0.95 0.95
0.18 0.18 0.20 0.22 0.23 0.24 0.25 0.27 0.28 0.27 0.26 0.25 0.23 0.23 0.25 0.25 0.23 0.24 0.23 0.16 0.13 0.10 0.09 0.08 0.07 0.06 0.05 0.06 0.06 0.05 0.06 0.07 0.10 0.13 0.22 0.37 0.49 0.61 0.75 0.91 1.01 1.06 1.09
0.15 0.18 0.21 0.24 0.25 0.27 0.30 0.31 0.30 0.28 0.28 0.27 0.26 0.26 0.28 0.29 0.29 0.32 0.35 0.28 0.23 0.17 0.15 0.14 0.14 0.13 0.12 0.12 0.10 0.10 0.08 0.07 0.09 0.11 0.18 0.35 0.46 0.51 0.57 0.68 0.87 1.02 1.14
0.20 0.24 0.25 0.25 0.25 0.26 0.27 0.28 0.28 0.28 0.28 0.30 0.30 0.31 0.32 0.31 0.34 0.37 0.41 0.45 0.41 0.31 0.24 0.20 0.19 0.20 0.19 0.17 0.14 0.14 0.10 0.09 0.09 0.12 0.17 0.25 0.32 0.35 0.41 0.50 0.64 0.80 0.94
0.17 0.19 0.20 0.22 0.22 0.22 0.22 0.23 0.23 0.24 0.25 0.27 0.30 0.33 0.35 0.34 0.36 0.40 0.44 0.52 0.58 0.53 0.37 0.28 0.25 0.23 0.22 0.20 0.18 0.17 0.15 0.12 0.13 0.15 0.16 0.18 0.21 0.26 0.30 0.37 0.46 0.57 0.67
0.12 0.14 0.14 0.15 0.16 0.16 0.16 0.17 0.18 0.19 0.22 0.23 0.26 0.29 0.32 0.33 0.37 0.41 0.46 0.50 0.57 0.62 0.51 0.33 0.26 0.24 0.24 0.22 0.18 0.17 0.14 0.14 0.14 0.15 0.16 0.18 0.21 0.23 0.26 0.30 0.35 0.42 0.50
0.09 0.10 0.10 0.11 0.12 0.12 0.12 0.13 0.15 0.16 0.19 0.23 0.27 0.31 0.35 0.38 0.41 0.43 0.45 0.48 0.52 0.55 0.52 0.34 0.25 0.24 0.22 0.18 0.16 0.15 0.13 0.13 0.11 0.12 0.15 0.18 0.21 0.24 0.28 0.31 0.33 0.37 0.42
0.07 0.07 0.08 0.08 0.08 0.08 0.09 0.10 0.13 0.15 0.19 0.23 0.26 0.30 0.35 0.38 0.41 0.43 0.44 0.44 0.43 0.43 0.47 0.39 0.24 0.22 0.19 0.19 0.20 0.19 0.16 0.15 0.13 0.13 0.16 0.20 0.24 0.26 0.28 0.31 0.36 0.41 0.45
0.05 0.05 0.06 0.07 0.08 0.08 0.08 0.09 0.11 0.14 0.17 0.19 0.21 0.25 0.28 0.32 0.32 0.31 0.29 0.29 0.30 0.31 0.37 0.38 0.27 0.21 0.18 0.17 0.19 0.19 0.18 0.16 0.15 0.16 0.20 0.22 0.24 0.27 0.31 0.35 0.39 0.43 0.45
0.05 0.05 0.05 0.05 0.07 0.08 0.11 0.13 0.16 0.18 0.19 0.20 0.21 0.23 0.23 0.22 0.20 0.18 0.19 0.20 0.24 0.28 0.30 0.35 0.33 0.26 0.23 0.20 0.21 0.18 0.17 0.15 0.16 0.17 0.21 0.25 0.29 0.33 0.35 0.38 0.41 0.44 0.46
0.06 0.07 0.08 0.09 0.10 0.11 0.14 0.16 0.18 0.20 0.21 0.21 0.21 0.19 0.17 0.17 0.15 0.15 0.17 0.21 0.27 0.34 0.41 0.48 0.45 0.38 0.32 0.26 0.22 0.22 0.27 0.27 0.26 0.23 0.24 0.27 0.32 0.37 0.40 0.42 0.45 0.46 0.48
0.09 0.11 0.13 0.16 0.18 0.19 0.24 0.22 0.19 0.20 0.22 0.21 0.19 0.17 0.16 0.15 0.13 0.13 0.16 0.23 0.37 0.50 0.60 0.63 0.60 0.51 0.37 0.32 0.32 0.38 0.46 0.55 0.48 0.29 0.32 0.35 0.36 0.43 0.43 0.45 0.51 0.54 0.55
0.20 0.20 0.20 0.22 0.25 0.29 0.30 0.24 0.20 0.17 0.17 0.16 0.14 0.13 0.11 0.09 0.09 0.08 0.10 0.21 0.31 0.41 0.49 0.52 0.50 0.39 0.35 0.35 0.48 0.63 0.67 0.71 0.58 0.37 0.43 0.49 0.41 0.43 0.44 0.48 0.57 0.57 0.54
0.27 0.28 0.28 0.25 0.24 0.25 0.23 0.18 0.15 0.13 0.14 0.13 0.10 0.08 0.07 0.06 0.06 0.10 0.17 0.25 0.21 0.17 0.22 0.28 0.31 0.33 0.37 0.44 0.61 0.84 0.92 0.90 0.71 0.53 0.50 0.55 0.41 0.38 0.40 0.44 0.51 0.50 0.46
0.33 0.30 0.27 0.26 0.24 0.23 0.19 0.14 0.11 0.10 0.09 0.08 0.06 0.06 0.06 0.05 0.07 0.19 0.31 0.34 0.22 0.13 0.15 0.24 0.32 0.36 0.37 0.40 0.48 0.74 0.93 1.00 0.84 0.55 0.47 0.55 0.51 0.47 0.45 0.42 0.44 0.48 0.46
0.30 0.28 0.24 0.20 0.18 0.17 0.15 0.12 0.09 0.08 0.07 0.06 0.05 0.04 0.05 0.06 0.13 0.26 0.31 0.33 0.26 0.18 0.21 0.24 0.26 0.27 0.26 0.30 0.39 0.58 1.01 1.40 1.19 0.82 0.50 0.60 0.62 0.66 0.77 0.48 0.42 0.45 0.45

GEFSMA_prec_meanprecacc_084.txt.gz
Total_Precipitation_Accumulation
0.00 0.00 0.00 0.00 0.00 0.00 0.00 0.00 0.00 0.00 0.00 0.00 0.00 0.00 0.00 0.00 0.00 0.00 0.00 0.00 0.00 0.00 0.01 0.01 0.02 0.04 0.06 0.09 0.11 0.13 0.13 0.13 0.13 0.13 0.14 0.15 0.15 0.16 0.16 0.17 0.18 0.19 0.20
0.00 0.00 0.00 0.00 0.00 0.00 0.00 0.00 0.00 0.00 0.00 0.00 0.00 0.00 0.00 0.00 0.00 0.00 0.00 0.00 0.00 0.00 0.00 0.00 0.01 0.03 0.05 0.08 0.10 0.12 0.13 0.13 0.13 0.14 0.15 0.16 0.17 0.18 0.19 0.20 0.21 0.22 0.23
0.00 0.00 0.00 0.00 0.00 0.00 0.00 0.00 0.00 0.00 0.00 0.00 0.00 0.00 0.00 0.00 0.00 0.00 0.00 0.00 0.00 0.00 0.00 0.00 0.01 0.02 0.03 0.04 0.06 0.08 0.10 0.13 0.14 0.16 0.17 0.19 0.20 0.21 0.23 0.25 0.26 0.27 0.29
0.01 0.00 0.00 0.00 0.00 0.00 0.00 0.00 0.00 0.00 0.00 0.00 0.00 0.00 0.00 0.00 0.00 0.00 0.00 0.00 0.00 0.00 0.00 0.00 0.01 0.01 0.01 0.02 0.03 0.05 0.08 0.10 0.12 0.13 0.15 0.17 0.19 0.22 0.25 0.29 0.32 0.35 0.38
0.02 0.01 0.01 0.00 0.00 0.00 0.00 0.00 0.00 0.00 0.00 0.00 0.00 0.00 0.00 0.00 0.00 0.00 0.00 0.00 0.00 0.00 0.00 0.00 0.00 0.00 0.01 0.01 0.02 0.03 0.06 0.08 0.10 0.12 0.13 0.15 0.17 0.20 0.24 0.29 0.34 0.39 0.47
0.04 0.02 0.01 0.01 0.00 0.00 0.00 0.00 0.00 0.00 0.00 0.00 0.00 0.00 0.00 0.00 0.00 0.00 0.00 0.00 0.00 0.00 0.00 0.00 0.00 0.00 0.00 0.01 0.02 0.02 0.04 0.06 0.08 0.10 0.12 0.14 0.16 0.19 0.23 0.28 0.34 0.42 0.53
0.11 0.06 0.03 0.02 0.01 0.01 0.01 0.00 0.00 0.00 0.00 0.00 0.01 0.01 0.00 0.00 0.00 0.00 0.00 0.00 0.00 0.00 0.00 0.00 0.00 0.01 0.01 0.01 0.02 0.02 0.03 0.04 0.07 0.09 0.12 0.14 0.17 0.21 0.26 0.31 0.38 0.46 0.54
0.16 0.12 0.08 0.06 0.05 0.03 0.03 0.02 0.03 0.02 0.02 0.02 0.03 0.04 0.02 0.01 0.00 0.00 0.00 0.00 0.00 0.00 0.00 0.01 0.01 0.01 0.02 0.02 0.02 0.02 0.02 0.02 0.05 0.10 0.14 0.17 0.21 0.25 0.30 0.38 0.46 0.52 0.58
0.22 0.19 0.18 0.15 0.12 0.10 0.08 0.07 0.07 0.07 0.06 0.05 0.05 0.07 0.07 0.04 0.03 0.02 0.01 0.01 0.02 0.02 0.02 0.02 0.02 0.02 0.02 0.02 0.02 0.02 0.03 0.04 0.05 0.09 0.16 0.22 0.28 0.34 0.41 0.48 0.54 0.59 0.66
0.24 0.24 0.23 0.21 0.18 0.16 0.14 0.15 0.14 0.14 0.13 0.11 0.09 0.09 0.10 0.11 0.12 0.09 0.04 0.04 0.04 0.04 0.04 0.03 0.03 0.03 0.03 0.04 0.05 0.06 0.08 0.10 0.11 0.13 0.19 0.29 0.37 0.47 0.57 0.66 0.72 0.78 0.80
0.20 0.23 0.23 0.23 0.22 0.22 0.23 0.24 0.23 0.23 0.22 0.21 0.19 0.18 0.18 0.17 0.18 0.19 0.13 0.08 0.08 0.07 0.07 0.06 0.06 0.06 0.06 0.07 0.08 0.10 0.14 0.17 0.19 0.20 0.27 0.38 0.48 0.60 0.74 0.87 0.95 0.97 0.97
0.20 0.20 0.22 0.23 0.25 0.26 0.28 0.29 0.31 0.31 0.30 0.29 0.27 0.27 0.29 0.29 0.27 0.29 0.28 0.20 0.17 0.14 0.13 0.13 0.12 0.12 0.12 0.13 0.14 0.15 0.15 0.17 0.20 0.24 0.33 0.47 0.58 0.67 0.80 0.95 1.05 1.09 1.12
0.16 0.19 0.23 0.25 0.27 0.29 0.32 0.34 0.34 0.34 0.34 0.33 0.31 0.32 0.34 0.36 0.37 0.41 0.44 0.37 0.30 0.23 0.21 0.20 0.21 0.22 0.22 0.23 0.23 0.25 0.23 0.23 0.25 0.26 0.32 0.48 0.56 0.59 0.63 0.72 0.90 1.05 1.16
0.21 0.25 0.26 0.26 0.26 0.27 0.29 0.31 0.32 0.33 0.35 0.37 0.37 0.38 0.39 0.38 0.41 0.45 0.51 0.56 0.52 0.40 0.32 0.28 0.29 0.32 0.34 0.34 0.33 0.34 0.28 0.27 0.27 0.28 0.31 0.37 0.41 0.41 0.44 0.52 0.66 0.82 0.95
0.17 0.19 0.21 0.23 0.23 0.23 0.23 0.25 0.26 0.27 0.30 0.33 0.36 0.40 0.42 0.41 0.44 0.49 0.55 0.65 0.74 0.68 0.51 0.41 0.39 0.39 0.41 0.40 0.38 0.35 0.29 0.27 0.27 0.26 0.25 0.25 0.27 0.30 0.33 0.39 0.47 0.58 0.68
0.12 0.14 0.15 0.16 0.18 0.18 0.18 0.19 0.20 0.22 0.25 0.26 0.30 0.34 0.38 0.40 0.44 0.49 0.56 0.62 0.71 0.78 0.67 0.46 0.40 0.38 0.39 0.37 0.34 0.30 0.24 0.25 0.23 0.22 0.22 0.23 0.25 0.27 0.29 0.32 0.36 0.43 0.51
0.09 0.10 0.11 0.12 0.13 0.13 0.13 0.14 0.16 0.18 0.21 0.25 0.29 0.35 0.40 0.43 0.46 0.48 0.51 0.56 0.61 0.68 0.68 0.50 0.41 0.40 0.37 0.31 0.27 0.24 0.21 0.19 0.17 0.17 0.20 0.22 0.24 0.26 0.29 0.31 0.34 0.37 0.43
0.07 0.07 0.08 0.08 0.08 0.09 0.09 0.11 0.14 0.16 0.20 0.25 0.28 0.33 0.38 0.41 0.45 0.47 0.48 0.50 0.50 0.52 0.59 0.53 0.37 0.34 0.30 0.28 0.28 0.26 0.21 0.19 0.16 0.15 0.18 0.22 0.25 0.27 0.29 0.31 0.36 0.41 0.45
0.05 0.05 0.06 0.07 0.08 0.08 0.08 0.10 0.12 0.14 0.17 0.20 0.23 0.26 0.31 0.34 0.36 0.35 0.34 0.35 0.37 0.40 0.47 0.49 0.38 0.31 0.27 0.24 0.25 0.23 0.21 0.18 0.16 0.17 0.21 0.23 0.25 0.27 0.31 0.35 0.39 0.43 0.46
0.05 0.05 0.05 0.05 0.07 0.08 0.11 0.13 0.16 0.19 0.20 0.20 0.22 0.24 0.25 0.25 0.24 0.23 0.24 0.27 0.32 0.37 0.40 0.44 0.42 0.33 0.29 0.24 0.25 0.20 0.18 0.16 0.17 0.17 0.22 0.26 0.29 0.33 0.35 0.38 0.41 0.44 0.46
0.06 0.07 0.08 0.09 0.10 0.11 0.14 0.16 0.18 0.20 0.21 0.22 0.21 0.20 0.19 0.19 0.18 0.19 0.22 0.27 0.33 0.40 0.47 0.53 0.50 0.42 0.35 0.28 0.24 0.23 0.29 0.28 0.26 0.23 0.24 0.27 0.32 0.37 0.40 0.42 0.45 0.46 0.48
0.09 0.11 0.13 0.16 0.18 0.19 0.24 0.22 0.19 0.21 0.22 0.21 0.20 0.19 0.18 0.18 0.16 0.17 0.20 0.28 0.41 0.54 0.64 0.67 0.64 0.54 0.40 0.34 0.33 0.39 0.47 0.55 0.49 0.29 0.32 0.35 0.36 0.43 0.43 0.45 0.51 0.54 0.55
0.20 0.20 0.20 0.22 0.25 0.29 0.30 0.24 0.20 0.17 0.17 0.16 0.15 0.14 0.13 0.12 0.12 0.11 0.14 0.24 0.34 0.43 0.51 0.54 0.52 0.41 0.37 0.35 0.48 0.64 0.67 0.72 0.58 0.37 0.43 0.49 0.41 0.43 0.44 0.48 0.57 0.57 0.54
0.27 0.28 0.28 0.25 0.24 0.25 0.23 0.18 0.15 0.14 0.14 0.13 0.11 0.10 0.10 0.09 0.09 0.12 0.20 0.27 0.23 0.19 0.23 0.29 0.33 0.34 0.37 0.44 0.61 0.85 0.92 0.90 0.71 0.53 0.50 0.55 0.41 0.38 0.40 0.44 0.51 0.50 0.46
0.33 0.30 0.27 0.26 0.25 0.23 0.19 0.14 0.12 0.10 0.10 0.08 0.07 0.07 0.07 0.07 0.09 0.21 0.32 0.35 0.23 0.14 0.16 0.24 0.33 0.36 0.37 0.40 0.48 0.74 0.93 1.00 0.84 0.55 0.47 0.55 0.51 0.47 0.45 0.42 0.44 0.48 0.46
0.30 0.28 0.24 0.21 0.18 0.17 0.15 0.12 0.09 0.08 0.08 0.07 0.06 0.06 0.06 0.08 0.14 0.27 0.31 0.33 0.26 0.18 0.21 0.24 0.26 0.27 0.26 0.30 0.39 0.58 1.01 1.40 1.19 0.82 0.50 0.60 0.62 0.66 0.77 0.48 0.42 0.45 0.45

GEFSMA_prec_meanprecacc_090.txt.gz
Total_Precipitation_Accumulation
0.00 0.00 0.00 0.00 0.00 0.00 0.00 0.00 0.00 0.00 0.00 0.00 0.00 0.00 0.00 0.00 0.00 0.00 0.00 0.00 0.00 0.00 0.01 0.01 0.02 0.04 0.06 0.09 0.11 0.13 0.13 0.13 0.13 0.13 0.14 0.15 0.15 0.16 0.16 0.17 0.18 0.19 0.20
0.00 0.00 0.00 0.00 0.00 0.00 0.00 0.00 0.00 0.00 0.00 0.00 0.00 0.00 0.00 0.00 0.00 0.00 0.00 0.00 0.00 0.00 0.00 0.01 0.01 0.03 0.05 0.08 0.10 0.12 0.13 0.13 0.13 0.14 0.15 0.16 0.17 0.18 0.19 0.20 0.21 0.22 0.23
0.00 0.00 0.00 0.00 0.00 0.00 0.00 0.00 0.00 0.00 0.00 0.00 0.00 0.00 0.00 0.00 0.00 0.00 0.00 0.00 0.00 0.00 0.00 0.00 0.01 0.02 0.03 0.04 0.07 0.09 0.11 0.13 0.14 0.16 0.17 0.19 0.20 0.21 0.23 0.25 0.26 0.27 0.29
0.01 0.00 0.00 0.00 0.00 0.00 0.00 0.00 0.00 0.00 0.00 0.00 0.00 0.00 0.00 0.00 0.00 0.00 0.00 0.00 0.00 0.00 0.00 0.00 0.01 0.01 0.01 0.02 0.03 0.06 0.08 0.10 0.12 0.13 0.15 0.17 0.19 0.22 0.25 0.29 0.32 0.35 0.38
0.02 0.01 0.01 0.00 0.00 0.00 0.00 0.00 0.00 0.00 0.00 0.00 0.00 0.00 0.00 0.00 0.00 0.00 0.00 0.00 0.00 0.00 0.00 0.00 0.01 0.01 0.01 0.01 0.02 0.04 0.07 0.10 0.11 0.12 0.13 0.15 0.17 0.20 0.24 0.29 0.34 0.39 0.47
0.05 0.02 0.01 0.01 0.00 0.00 0.00 0.00 0.00 0.00 0.00 0.00 0.00 0.00 0.00 0.00 0.00 0.00 0.00 0.00 0.00 0.00 0.00 0.00 0.00 0.00 0.01 0.02 0.02 0.03 0.05 0.07 0.09 0.10 0.12 0.14 0.16 0.19 0.23 0.28 0.34 0.42 0.53
0.11 0.06 0.03 0.02 0.01 0.01 0.01 0.01 0.01 0.01 0.00 0.00 0.01 0.01 0.00 0.00 0.00 0.00 0.00 0.00 0.00 0.00 0.00 0.00 0.00 0.01 0.01 0.02 0.03 0.03 0.04 0.06 0.08 0.11 0.12 0.14 0.17 0.21 0.26 0.31 0.38 0.46 0.55
0.17 0.13 0.08 0.06 0.05 0.04 0.03 0.03 0.03 0.03 0.02 0.02 0.03 0.04 0.02 0.01 0.00 0.00 0.00 0.00 0.00 0.00 0.01 0.01 0.01 0.02 0.02 0.03 0.02 0.03 0.03 0.04 0.07 0.13 0.17 0.19 0.22 0.26 0.31 0.39 0.47 0.54 0.60
0.23 0.20 0.18 0.15 0.13 0.10 0.08 0.08 0.07 0.07 0.07 0.05 0.05 0.08 0.08 0.05 0.03 0.02 0.01 0.02 0.02 0.02 0.02 0.03 0.03 0.03 0.03 0.03 0.03 0.04 0.05 0.06 0.08 0.13 0.22 0.27 0.31 0.37 0.45 0.52 0.57 0.63 0.69
0.25 0.26 0.25 0.22 0.19 0.17 0.15 0.16 0.15 0.14 0.14 0.12 0.10 0.10 0.12 0.12 0.13 0.09 0.05 0.04 0.04 0.04 0.04 0.04 0.04 0.04 0.04 0.05 0.06 0.08 0.11 0.13 0.16 0.19 0.28 0.37 0.46 0.56 0.66 0.73 0.79 0.84 0.86
0.24 0.27 0.27 0.26 0.24 0.24 0.25 0.26 0.24 0.24 0.24 0.22 0.20 0.19 0.20 0.19 0.20 0.22 0.15 0.08 0.08 0.08 0.08 0.08 0.08 0.08 0.09 0.11 0.12 0.15 0.19 0.23 0.26 0.29 0.38 0.51 0.63 0.76 0.90 1.01 1.06 1.07 1.05
0.26 0.25 0.27 0.28 0.29 0.29 0.31 0.32 0.34 0.33 0.32 0.31 0.30 0.29 0.31 0.31 0.28 0.32 0.31 0.22 0.19 0.16 0.16 0.16 0.16 0.16 0.16 0.17 0.19 0.21 0.23 0.26 0.31 0.37 0.50 0.66 0.77 0.85 0.95 1.08 1.17 1.19 1.21
0.20 0.22 0.27 0.29 0.30 0.32 0.35 0.38 0.37 0.36 0.36 0.35 0.34 0.35 0.37 0.39 0.40 0.44 0.49 0.41 0.34 0.27 0.24 0.23 0.24 0.25 0.26 0.28 0.29 0.34 0.34 0.35 0.38 0.41 0.49 0.66 0.76 0.77 0.77 0.84 1.01 1.14 1.23
0.24 0.28 0.29 0.29 0.28 0.30 0.32 0.33 0.34 0.35 0.38 0.40 0.41 0.43 0.43 0.42 0.45 0.49 0.56 0.61 0.57 0.43 0.34 0.30 0.31 0.36 0.38 0.40 0.40 0.43 0.38 0.39 0.38 0.40 0.43 0.51 0.55 0.54 0.54 0.60 0.72 0.87 1.00
0.21 0.23 0.25 0.26 0.26 0.26 0.26 0.27 0.28 0.29 0.32 0.35 0.38 0.42 0.44 0.43 0.46 0.51 0.57 0.67 0.78 0.72 0.53 0.43 0.42 0.42 0.45 0.45 0.44 0.41 0.35 0.35 0.35 0.34 0.34 0.33 0.34 0.37 0.39 0.43 0.52 0.62 0.72
0.15 0.17 0.18 0.20 0.20 0.20 0.20 0.21 0.22 0.23 0.26 0.28 0.31 0.35 0.39 0.41 0.45 0.51 0.58 0.64 0.74 0.82 0.70 0.48 0.41 0.40 0.42 0.39 0.38 0.34 0.28 0.31 0.30 0.29 0.29 0.30 0.31 0.32 0.33 0.36 0.40 0.46 0.54
0.11 0.12 0.13 0.14 0.15 0.15 0.15 0.16 0.17 0.19 0.22 0.26 0.30 0.35 0.40 0.43 0.47 0.49 0.53 0.57 0.63 0.71 0.70 0.51 0.42 0.41 0.39 0.34 0.31 0.28 0.24 0.23 0.21 0.22 0.25 0.27 0.28 0.30 0.33 0.35 0.37 0.40 0.45
0.09 0.09 0.10 0.10 0.10 0.10 0.11 0.12 0.14 0.17 0.21 0.25 0.28 0.33 0.38 0.42 0.45 0.47 0.49 0.51 0.51 0.53 0.60 0.54 0.39 0.36 0.32 0.31 0.32 0.31 0.26 0.23 0.19 0.19 0.22 0.25 0.28 0.30 0.31 0.33 0.38 0.43 0.46
0.06 0.06 0.07 0.08 0.09 0.09 0.10 0.11 0.12 0.15 0.18 0.20 0.23 0.26 0.31 0.34 0.36 0.35 0.35 0.36 0.38 0.42 0.48 0.51 0.40 0.34 0.30 0.28 0.29 0.27 0.24 0.21 0.19 0.19 0.24 0.26 0.27 0.29 0.32 0.36 0.40 0.44 0.46
0.05 0.05 0.05 0.06 0.07 0.09 0.11 0.13 0.16 0.19 0.20 0.21 0.22 0.24 0.25 0.25 0.25 0.24 0.25 0.27 0.33 0.38 0.41 0.46 0.43 0.35 0.31 0.27 0.27 0.23 0.20 0.18 0.19 0.19 0.23 0.27 0.30 0.34 0.36 0.39 0.42 0.44 0.46
0.06 0.07 0.08 0.09 0.10 0.11 0.14 0.16 0.18 0.20 0.21 0.22 0.21 0.20 0.19 0.19 0.19 0.19 0.22 0.27 0.33 0.40 0.48 0.54 0.51 0.44 0.36 0.30 0.25 0.25 0.30 0.29 0.27 0.24 0.25 0.27 0.32 0.37 0.40 0.43 0.46 0.46 0.48
0.09 0.11 0.13 0.16 0.18 0.19 0.25 0.23 0.19 0.21 0.22 0.21 0.20 0.19 0.18 0.18 0.16 0.17 0.20 0.28 0.41 0.54 0.64 0.68 0.65 0.55 0.41 0.34 0.34 0.39 0.47 0.56 0.49 0.30 0.33 0.35 0.37 0.43 0.43 0.45 0.51 0.54 0.55
0.20 0.20 0.20 0.22 0.25 0.29 0.31 0.24 0.20 0.17 0.17 0.16 0.15 0.14 0.13 0.12 0.12 0.11 0.14 0.25 0.34 0.44 0.51 0.54 0.53 0.41 0.37 0.36 0.48 0.64 0.67 0.72 0.58 0.37 0.43 0.49 0.41 0.43 0.44 0.48 0.57 0.57 0.54
0.27 0.28 0.28 0.25 0.24 0.25 0.24 0.18 0.15 0.14 0.14 0.13 0.11 0.10 0.10 0.09 0.09 0.13 0.20 0.28 0.23 0.19 0.24 0.29 0.33 0.34 0.37 0.44 0.61 0.85 0.92 0.90 0.71 0.53 0.50 0.55 0.42 0.38 0.40 0.44 0.51 0.50 0.46
0.33 0.30 0.27 0.26 0.25 0.23 0.19 0.14 0.12 0.10 0.10 0.08 0.07 0.07 0.08 0.07 0.09 0.21 0.33 0.35 0.24 0.14 0.16 0.24 0.33 0.36 0.37 0.40 0.48 0.74 0.93 1.00 0.84 0.55 0.47 0.55 0.51 0.47 0.45 0.42 0.44 0.48 0.46
0.30 0.28 0.25 0.21 0.18 0.17 0.15 0.12 0.09 0.08 0.08 0.07 0.06 0.06 0.06 0.08 0.15 0.27 0.32 0.33 0.27 0.18 0.22 0.25 0.26 0.27 0.26 0.30 0.39 0.58 1.01 1.40 1.19 0.82 0.50 0.61 0.62 0.66 0.77 0.48 0.42 0.45 0.45

GEFSMA_prec_meanprecacc_096.txt.gz
Total_Precipitation_Accumulation
0.00 0.00 0.00 0.00 0.00 0.00 0.00 0.00 0.00 0.00 0.00 0.00 0.00 0.00 0.00 0.00 0.00 0.00 0.00 0.00 0.00 0.00 0.01 0.02 0.03 0.04 0.06 0.09 0.11 0.13 0.13 0.13 0.13 0.13 0.14 0.15 0.15 0.16 0.16 0.17 0.18 0.19 0.20
0.00 0.00 0.00 0.00 0.00 0.00 0.00 0.00 0.00 0.00 0.00 0.00 0.00 0.00 0.00 0.00 0.00 0.00 0.00 0.00 0.00 0.00 0.00 0.01 0.02 0.03 0.05 0.08 0.11 0.12 0.13 0.13 0.13 0.14 0.15 0.16 0.17 0.18 0.19 0.20 0.21 0.22 0.23
0.00 0.00 0.00 0.00 0.00 0.00 0.00 0.00 0.00 0.00 0.00 0.00 0.00 0.00 0.00 0.00 0.00 0.00 0.00 0.00 0.00 0.00 0.00 0.01 0.01 0.02 0.03 0.05 0.07 0.09 0.11 0.13 0.15 0.16 0.17 0.19 0.20 0.21 0.23 0.25 0.26 0.27 0.29
0.01 0.00 0.00 0.00 0.00 0.00 0.00 0.00 0.00 0.00 0.00 0.00 0.00 0.00 0.00 0.00 0.00 0.00 0.00 0.00 0.00 0.00 0.00 0.00 0.01 0.02 0.03 0.04 0.05 0.08 0.10 0.12 0.13 0.14 0.15 0.17 0.19 0.22 0.25 0.29 0.32 0.35 0.38
0.02 0.01 0.01 0.00 0.00 0.00 0.00 0.00 0.00 0.00 0.00 0.00 0.00 0.00 0.00 0.00 0.00 0.00 0.00 0.00 0.00 0.00 0.00 0.00 0.01 0.01 0.02 0.03 0.04 0.07 0.10 0.12 0.13 0.13 0.14 0.15 0.17 0.20 0.24 0.29 0.34 0.39 0.47
0.05 0.02 0.01 0.01 0.01 0.00 0.00 0.00 0.00 0.00 0.00 0.00 0.01 0.00 0.00 0.00 0.00 0.00 0.00 0.00 0.00 0.00 0.00 0.00 0.01 0.01 0.01 0.03 0.04 0.05 0.08 0.11 0.12 0.13 0.13 0.15 0.17 0.19 0.23 0.28 0.34 0.42 0.53
0.12 0.07 0.04 0.03 0.02 0.01 0.01 0.01 0.01 0.01 0.01 0.01 0.01 0.01 0.00 0.00 0.00 0.00 0.00 0.00 0.00 0.00 0.00 0.00 0.01 0.01 0.02 0.03 0.03 0.04 0.06 0.09 0.13 0.16 0.16 0.17 0.18 0.22 0.26 0.32 0.39 0.47 0.56
0.19 0.15 0.10 0.07 0.06 0.04 0.04 0.03 0.03 0.03 0.02 0.02 0.03 0.05 0.03 0.01 0.00 0.00 0.00 0.00 0.01 0.01 0.01 0.01 0.01 0.02 0.02 0.03 0.03 0.03 0.04 0.06 0.11 0.19 0.24 0.25 0.26 0.29 0.33 0.40 0.49 0.56 0.62
0.26 0.22 0.20 0.17 0.14 0.11 0.08 0.08 0.08 0.07 0.07 0.05 0.05 0.09 0.09 0.05 0.03 0.02 0.01 0.02 0.02 0.02 0.03 0.03 0.03 0.03 0.03 0.03 0.04 0.04 0.06 0.07 0.10 0.17 0.28 0.36 0.41 0.45 0.51 0.57 0.63 0.68 0.74
0.29 0.29 0.28 0.26 0.22 0.19 0.17 0.17 0.17 0.16 0.16 0.14 0.11 0.11 0.13 0.13 0.15 0.11 0.05 0.04 0.04 0.04 0.04 0.04 0.04 0.04 0.05 0.06 0.08 0.10 0.12 0.14 0.17 0.21 0.32 0.44 0.56 0.66 0.78 0.87 0.93 0.97 0.97
0.29 0.33 0.32 0.31 0.28 0.27 0.28 0.29 0.28 0.27 0.26 0.25 0.23 0.22 0.22 0.21 0.22 0.24 0.17 0.09 0.08 0.08 0.09 0.08 0.09 0.10 0.11 0.12 0.13 0.16 0.21 0.24 0.28 0.32 0.42 0.57 0.73 0.90 1.07 1.18 1.23 1.22 1.18
0.32 0.31 0.33 0.33 0.34 0.33 0.34 0.36 0.38 0.38 0.37 0.35 0.34 0.33 0.36 0.35 0.32 0.35 0.35 0.24 0.21 0.18 0.17 0.17 0.17 0.17 0.17 0.18 0.20 0.22 0.24 0.27 0.33 0.40 0.54 0.73 0.86 0.97 1.09 1.23 1.32 1.34 1.34
0.26 0.28 0.33 0.35 0.35 0.37 0.40 0.42 0.42 0.40 0.40 0.39 0.38 0.39 0.41 0.43 0.44 0.48 0.53 0.44 0.36 0.29 0.25 0.24 0.25 0.26 0.27 0.29 0.30 0.35 0.34 0.36 0.40 0.43 0.52 0.72 0.84 0.85 0.86 0.93 1.11 1.24 1.33
0.28 0.34 0.34 0.34 0.33 0.34 0.35 0.37 0.37 0.37 0.40 0.42 0.43 0.45 0.45 0.44 0.48 0.52 0.58 0.64 0.59 0.44 0.35 0.31 0.32 0.36 0.39 0.40 0.41 0.44 0.39 0.40 0.40 0.42 0.46 0.55 0.60 0.59 0.59 0.65 0.78 0.92 1.06
0.23 0.27 0.29 0.31 0.31 0.29 0.28 0.29 0.30 0.31 0.33 0.36 0.40 0.44 0.46 0.45 0.48 0.53 0.59 0.69 0.80 0.73 0.54 0.43 0.42 0.42 0.46 0.45 0.45 0.43 0.36 0.37 0.38 0.36 0.36 0.36 0.38 0.41 0.43 0.47 0.56 0.66 0.76
0.16 0.19 0.20 0.22 0.23 0.23 0.23 0.24 0.26 0.27 0.30 0.31 0.34 0.38 0.41 0.43 0.47 0.52 0.59 0.66 0.76 0.84 0.71 0.48 0.41 0.40 0.42 0.40 0.39 0.35 0.29 0.33 0.32 0.30 0.30 0.31 0.33 0.35 0.37 0.40 0.44 0.50 0.57
0.11 0.13 0.14 0.15 0.16 0.17 0.18 0.19 0.21 0.22 0.26 0.29 0.33 0.38 0.42 0.45 0.48 0.50 0.53 0.58 0.64 0.71 0.71 0.51 0.42 0.41 0.39 0.34 0.31 0.29 0.25 0.24 0.22 0.24 0.26 0.28 0.30 0.33 0.35 0.37 0.39 0.42 0.47
0.09 0.10 0.10 0.11 0.11 0.11 0.11 0.13 0.16 0.19 0.23 0.27 0.30 0.35 0.40 0.43 0.47 0.48 0.49 0.51 0.52 0.54 0.61 0.54 0.39 0.36 0.33 0.32 0.33 0.31 0.26 0.23 0.19 0.20 0.24 0.27 0.30 0.32 0.33 0.36 0.40 0.45 0.48
0.06 0.06 0.07 0.08 0.09 0.09 0.10 0.11 0.13 0.16 0.19 0.21 0.24 0.27 0.31 0.35 0.37 0.36 0.35 0.36 0.38 0.42 0.48 0.51 0.40 0.34 0.30 0.28 0.29 0.27 0.24 0.21 0.19 0.20 0.25 0.27 0.29 0.31 0.34 0.38 0.42 0.45 0.48
0.05 0.05 0.05 0.06 0.07 0.09 0.11 0.14 0.16 0.19 0.20 0.21 0.22 0.24 0.25 0.25 0.25 0.24 0.25 0.27 0.33 0.38 0.41 0.46 0.43 0.35 0.31 0.27 0.27 0.23 0.21 0.19 0.19 0.19 0.24 0.28 0.31 0.35 0.37 0.40 0.43 0.45 0.47
0.06 0.07 0.08 0.09 0.10 0.11 0.14 0.17 0.18 0.20 0.21 0.22 0.21 0.20 0.19 0.19 0.19 0.19 0.22 0.27 0.34 0.41 0.48 0.54 0.51 0.44 0.37 0.30 0.25 0.25 0.31 0.30 0.28 0.25 0.26 0.28 0.33 0.38 0.41 0.43 0.46 0.47 0.48
0.09 0.11 0.13 0.16 0.18 0.19 0.25 0.23 0.20 0.21 0.22 0.21 0.20 0.19 0.18 0.19 0.16 0.17 0.20 0.28 0.41 0.54 0.64 0.68 0.65 0.55 0.41 0.35 0.34 0.39 0.48 0.56 0.50 0.30 0.33 0.35 0.37 0.43 0.43 0.45 0.51 0.55 0.55
0.20 0.20 0.20 0.22 0.25 0.30 0.31 0.24 0.21 0.18 0.17 0.17 0.15 0.14 0.13 0.12 0.13 0.11 0.14 0.25 0.34 0.44 0.51 0.54 0.53 0.41 0.37 0.36 0.49 0.64 0.68 0.72 0.59 0.37 0.43 0.49 0.41 0.43 0.44 0.48 0.57 0.57 0.54
0.27 0.28 0.28 0.25 0.24 0.25 0.24 0.18 0.15 0.14 0.14 0.13 0.11 0.10 0.10 0.09 0.09 0.13 0.20 0.28 0.23 0.19 0.24 0.29 0.33 0.34 0.37 0.44 0.61 0.85 0.92 0.90 0.71 0.54 0.50 0.55 0.42 0.38 0.40 0.44 0.51 0.50 0.46
0.33 0.30 0.27 0.26 0.25 0.23 0.19 0.14 0.12 0.10 0.10 0.08 0.07 0.07 0.08 0.07 0.09 0.21 0.33 0.35 0.24 0.14 0.16 0.24 0.33 0.36 0.37 0.40 0.48 0.75 0.94 1.00 0.84 0.55 0.47 0.55 0.51 0.47 0.45 0.42 0.44 0.48 0.46
0.30 0.28 0.25 0.21 0.18 0.17 0.16 0.12 0.09 0.08 0.08 0.07 0.06 0.06 0.07 0.08 0.15 0.27 0.32 0.33 0.27 0.18 0.22 0.25 0.26 0.27 0.26 0.30 0.39 0.58 1.01 1.40 1.19 0.82 0.50 0.61 0.62 0.66 0.77 0.48 0.42 0.45 0.45

GEFSMA_prec_meanprecacc_102.txt.gz
Total_Precipitation_Accumulation
0.00 0.00 0.00 0.00 0.00 0.00 0.00 0.00 0.00 0.00 0.00 0.00 0.00 0.00 0.00 0.00 0.00 0.00 0.00 0.00 0.00 0.00 0.01 0.02 0.03 0.04 0.06 0.09 0.12 0.13 0.13 0.13 0.13 0.14 0.14 0.15 0.15 0.16 0.16 0.17 0.18 0.19 0.20
0.01 0.00 0.00 0.00 0.00 0.00 0.00 0.00 0.00 0.00 0.00 0.00 0.00 0.00 0.00 0.00 0.00 0.00 0.00 0.00 0.00 0.00 0.00 0.01 0.02 0.04 0.06 0.09 0.11 0.13 0.13 0.14 0.14 0.15 0.15 0.16 0.17 0.18 0.19 0.20 0.21 0.22 0.23
0.01 0.00 0.00 0.00 0.00 0.00 0.00 0.00 0.00 0.00 0.00 0.00 0.00 0.00 0.00 0.00 0.00 0.00 0.00 0.00 0.00 0.00 0.00 0.01 0.01 0.03 0.04 0.06 0.08 0.11 0.13 0.14 0.15 0.16 0.18 0.19 0.20 0.21 0.23 0.25 0.26 0.27 0.29
0.01 0.01 0.00 0.00 0.00 0.00 0.00 0.00 0.00 0.00 0.00 0.00 0.00 0.00 0.00 0.00 0.00 0.00 0.00 0.00 0.00 0.00 0.00 0.00 0.01 0.02 0.03 0.04 0.06 0.09 0.12 0.14 0.15 0.15 0.16 0.18 0.19 0.22 0.25 0.29 0.33 0.35 0.38
0.03 0.02 0.01 0.01 0.01 0.01 0.00 0.00 0.00 0.00 0.00 0.00 0.00 0.00 0.00 0.00 0.00 0.00 0.00 0.00 0.00 0.00 0.00 0.00 0.01 0.02 0.02 0.03 0.04 0.08 0.12 0.15 0.16 0.15 0.15 0.17 0.18 0.21 0.25 0.29 0.34 0.40 0.48
0.05 0.03 0.02 0.02 0.02 0.01 0.01 0.01 0.01 0.01 0.01 0.01 0.01 0.01 0.00 0.00 0.00 0.00 0.00 0.00 0.00 0.00 0.00 0.00 0.01 0.01 0.01 0.03 0.04 0.07 0.11 0.15 0.15 0.15 0.16 0.17 0.18 0.21 0.24 0.29 0.35 0.43 0.54
0.13 0.08 0.05 0.03 0.03 0.02 0.02 0.02 0.02 0.02 0.01 0.01 0.01 0.01 0.00 0.00 0.00 0.00 0.00 0.00 0.00 0.00 0.00 0.00 0.01 0.01 0.02 0.03 0.04 0.05 0.07 0.11 0.16 0.19 0.20 0.20 0.21 0.24 0.28 0.34 0.40 0.48 0.57
0.22 0.17 0.11 0.08 0.07 0.05 0.05 0.05 0.05 0.04 0.03 0.03 0.04 0.05 0.03 0.01 0.00 0.01 0.01 0.01 0.01 0.01 0.01 0.01 0.01 0.02 0.02 0.03 0.03 0.03 0.04 0.07 0.12 0.22 0.29 0.31 0.31 0.33 0.37 0.44 0.53 0.60 0.66
0.32 0.27 0.24 0.19 0.16 0.13 0.10 0.10 0.10 0.09 0.09 0.07 0.07 0.10 0.11 0.06 0.04 0.02 0.01 0.02 0.02 0.03 0.03 0.03 0.03 0.03 0.03 0.03 0.04 0.04 0.06 0.07 0.10 0.19 0.32 0.42 0.47 0.51 0.57 0.64 0.71 0.77 0.82
0.37 0.36 0.34 0.30 0.26 0.23 0.19 0.20 0.20 0.19 0.18 0.16 0.14 0.13 0.15 0.16 0.17 0.12 0.05 0.04 0.05 0.05 0.05 0.05 0.04 0.05 0.05 0.06 0.08 0.10 0.12 0.15 0.18 0.23 0.34 0.48 0.61 0.74 0.87 0.96 1.03 1.07 1.06
0.37 0.40 0.39 0.38 0.33 0.32 0.33 0.34 0.33 0.32 0.31 0.30 0.28 0.26 0.26 0.25 0.25 0.28 0.19 0.10 0.09 0.09 0.09 0.09 0.09 0.10 0.11 0.12 0.13 0.16 0.21 0.25 0.28 0.32 0.43 0.60 0.78 0.98 1.17 1.30 1.35 1.32 1.26
0.39 0.38 0.39 0.40 0.40 0.38 0.38 0.40 0.44 0.44 0.42 0.40 0.39 0.38 0.40 0.39 0.35 0.40 0.38 0.26 0.22 0.19 0.18 0.19 0.19 0.18 0.18 0.19 0.20 0.23 0.24 0.27 0.33 0.40 0.55 0.76 0.90 1.02 1.16 1.31 1.40 1.42 1.42
0.32 0.33 0.39 0.41 0.42 0.43 0.47 0.50 0.49 0.47 0.47 0.45 0.45 0.45 0.47 0.47 0.47 0.51 0.56 0.47 0.38 0.30 0.26 0.25 0.26 0.27 0.27 0.29 0.30 0.35 0.35 0.37 0.40 0.43 0.53 0.74 0.86 0.88 0.89 0.97 1.15 1.29 1.38
0.33 0.39 0.41 0.40 0.40 0.41 0.43 0.45 0.44 0.45 0.47 0.49 0.50 0.51 0.50 0.48 0.51 0.55 0.61 0.67 0.61 0.45 0.36 0.32 0.32 0.36 0.39 0.40 0.41 0.44 0.39 0.40 0.40 0.42 0.47 0.56 0.61 0.61 0.61 0.66 0.80 0.96 1.10
0.27 0.31 0.34 0.36 0.36 0.36 0.36 0.38 0.37 0.37 0.40 0.42 0.45 0.49 0.50 0.48 0.51 0.56 0.62 0.72 0.83 0.76 0.56 0.44 0.42 0.43 0.46 0.46 0.45 0.43 0.36 0.37 0.38 0.37 0.36 0.37 0.39 0.42 0.44 0.49 0.58 0.69 0.79
0.19 0.21 0.23 0.25 0.27 0.28 0.28 0.30 0.31 0.32 0.35 0.36 0.38 0.41 0.44 0.45 0.49 0.54 0.61 0.68 0.78 0.87 0.74 0.50 0.42 0.40 0.42 0.40 0.39 0.35 0.30 0.33 0.32 0.30 0.30 0.32 0.34 0.36 0.38 0.41 0.46 0.52 0.60
0.13 0.14 0.15 0.16 0.18 0.19 0.20 0.21 0.23 0.25 0.28 0.31 0.35 0.40 0.44 0.46 0.50 0.51 0.55 0.59 0.65 0.73 0.73 0.53 0.43 0.42 0.39 0.34 0.31 0.29 0.25 0.24 0.22 0.24 0.26 0.29 0.30 0.33 0.36 0.38 0.40 0.44 0.49
0.10 0.11 0.12 0.11 0.11 0.12 0.13 0.14 0.17 0.20 0.24 0.28 0.32 0.36 0.41 0.44 0.48 0.49 0.51 0.52 0.53 0.55 0.63 0.56 0.40 0.36 0.33 0.32 0.33 0.31 0.26 0.23 0.20 0.20 0.24 0.27 0.30 0.32 0.34 0.36 0.41 0.46 0.49
0.07 0.07 0.08 0.09 0.10 0.10 0.11 0.12 0.15 0.17 0.20 0.23 0.26 0.30 0.34 0.37 0.39 0.37 0.36 0.37 0.39 0.43 0.49 0.52 0.40 0.34 0.30 0.28 0.29 0.27 0.24 0.21 0.19 0.20 0.25 0.27 0.29 0.31 0.34 0.38 0.42 0.46 0.49
0.05 0.05 0.05 0.06 0.07 0.09 0.12 0.14 0.17 0.20 0.21 0.22 0.24 0.26 0.27 0.27 0.27 0.26 0.27 0.29 0.34 0.39 0.42 0.46 0.44 0.35 0.32 0.27 0.28 0.23 0.21 0.19 0.19 0.19 0.24 0.28 0.32 0.35 0.38 0.40 0.43 0.46 0.48
0.06 0.08 0.09 0.10 0.10 0.11 0.14 0.17 0.18 0.21 0.22 0.23 0.22 0.21 0.20 0.21 0.21 0.21 0.24 0.28 0.35 0.41 0.49 0.54 0.52 0.44 0.37 0.30 0.26 0.26 0.31 0.30 0.28 0.25 0.26 0.28 0.33 0.38 0.41 0.44 0.47 0.47 0.49
0.09 0.11 0.14 0.16 0.18 0.19 0.25 0.23 0.20 0.21 0.23 0.22 0.21 0.19 0.19 0.20 0.18 0.19 0.21 0.29 0.42 0.54 0.65 0.69 0.66 0.55 0.41 0.35 0.34 0.40 0.48 0.56 0.50 0.30 0.33 0.35 0.37 0.43 0.44 0.45 0.52 0.55 0.55
0.20 0.20 0.20 0.22 0.25 0.30 0.31 0.25 0.21 0.18 0.18 0.17 0.16 0.15 0.14 0.13 0.14 0.12 0.16 0.26 0.35 0.44 0.52 0.55 0.53 0.42 0.37 0.36 0.49 0.65 0.68 0.72 0.59 0.37 0.43 0.49 0.41 0.43 0.44 0.48 0.57 0.57 0.54
0.27 0.28 0.28 0.25 0.24 0.25 0.24 0.19 0.16 0.14 0.14 0.13 0.11 0.10 0.10 0.10 0.10 0.14 0.21 0.28 0.23 0.20 0.24 0.29 0.33 0.34 0.37 0.44 0.61 0.85 0.92 0.90 0.71 0.54 0.50 0.55 0.42 0.38 0.40 0.44 0.51 0.50 0.46
0.33 0.30 0.27 0.26 0.25 0.23 0.19 0.14 0.12 0.10 0.10 0.09 0.07 0.07 0.08 0.07 0.09 0.22 0.33 0.35 0.24 0.14 0.16 0.24 0.33 0.36 0.37 0.40 0.48 0.75 0.94 1.00 0.84 0.55 0.47 0.55 0.51 0.47 0.45 0.42 0.44 0.48 0.46
0.30 0.28 0.25 0.21 0.18 0.17 0.16 0.12 0.09 0.08 0.08 0.07 0.07 0.06 0.07 0.08 0.15 0.27 0.32 0.33 0.27 0.18 0.22 0.25 0.26 0.27 0.26 0.30 0.39 0.58 1.01 1.41 1.19 0.82 0.50 0.61 0.62 0.66 0.77 0.48 0.42 0.45 0.45

GEFSMA_prec_meanprecacc_108.txt.gz
Total_Precipitation_Accumulation
0.00 0.00 0.00 0.00 0.00 0.00 0.00 0.00 0.00 0.00 0.00 0.00 0.00 0.00 0.00 0.00 0.00 0.00 0.00 0.00 0.00 0.00 0.01 0.02 0.03 0.04 0.06 0.09 0.12 0.13 0.13 0.13 0.13 0.14 0.14 0.15 0.15 0.16 0.17 0.17 0.18 0.19 0.20
0.01 0.00 0.00 0.00 0.00 0.00 0.00 0.00 0.00 0.00 0.00 0.00 0.00 0.00 0.00 0.00 0.00 0.00 0.00 0.00 0.00 0.00 0.00 0.01 0.02 0.04 0.06 0.09 0.12 0.14 0.14 0.14 0.14 0.15 0.16 0.17 0.17 0.18 0.19 0.20 0.21 0.22 0.23
0.01 0.00 0.00 0.00 0.00 0.00 0.00 0.00 0.00 0.00 0.00 0.00 0.00 0.00 0.00 0.00 0.00 0.00 0.00 0.00 0.00 0.00 0.00 0.01 0.02 0.03 0.04 0.06 0.09 0.12 0.14 0.16 0.16 0.17 0.18 0.19 0.21 0.22 0.24 0.25 0.26 0.28 0.29
0.01 0.01 0.01 0.00 0.00 0.00 0.00 0.00 0.00 0.00 0.00 0.00 0.00 0.00 0.00 0.00 0.00 0.00 0.00 0.00 0.00 0.00 0.00 0.00 0.01 0.02 0.03 0.05 0.07 0.11 0.14 0.16 0.17 0.17 0.18 0.19 0.20 0.22 0.26 0.30 0.33 0.36 0.39
0.03 0.02 0.02 0.01 0.01 0.01 0.00 0.00 0.00 0.00 0.00 0.00 0.00 0.00 0.00 0.00 0.00 0.00 0.00 0.00 0.00 0.00 0.00 0.00 0.01 0.02 0.02 0.03 0.05 0.09 0.15 0.19 0.19 0.17 0.18 0.19 0.20 0.22 0.26 0.30 0.35 0.41 0.48
0.08 0.05 0.04 0.03 0.03 0.02 0.01 0.01 0.01 0.01 0.01 0.01 0.01 0.01 0.00 0.00 0.00 0.00 0.00 0.00 0.00 0.00 0.00 0.00 0.01 0.01 0.01 0.03 0.05 0.08 0.13 0.18 0.20 0.19 0.19 0.21 0.22 0.24 0.26 0.30 0.36 0.44 0.55
0.16 0.10 0.07 0.05 0.04 0.03 0.02 0.02 0.02 0.02 0.01 0.01 0.02 0.01 0.00 0.00 0.00 0.00 0.00 0.00 0.01 0.00 0.00 0.01 0.01 0.01 0.02 0.03 0.04 0.06 0.09 0.14 0.20 0.24 0.25 0.26 0.26 0.29 0.32 0.37 0.44 0.51 0.60
0.25 0.20 0.14 0.10 0.08 0.06 0.05 0.05 0.06 0.04 0.03 0.03 0.05 0.06 0.03 0.01 0.00 0.01 0.01 0.01 0.01 0.01 0.01 0.01 0.02 0.02 0.02 0.03 0.03 0.03 0.05 0.08 0.15 0.27 0.35 0.37 0.38 0.39 0.43 0.50 0.59 0.66 0.72
0.40 0.33 0.28 0.22 0.18 0.14 0.11 0.11 0.11 0.10 0.10 0.08 0.08 0.12 0.12 0.06 0.04 0.02 0.02 0.02 0.03 0.03 0.03 0.03 0.03 0.03 0.03 0.03 0.04 0.05 0.06 0.08 0.11 0.21 0.37 0.49 0.54 0.60 0.66 0.73 0.80 0.87 0.91
0.49 0.46 0.42 0.36 0.30 0.26 0.22 0.22 0.22 0.20 0.19 0.17 0.15 0.15 0.17 0.18 0.19 0.13 0.06 0.05 0.05 0.05 0.05 0.05 0.05 0.05 0.06 0.07 0.08 0.10 0.13 0.15 0.18 0.23 0.36 0.52 0.67 0.82 0.98 1.09 1.16 1.20 1.17
0.50 0.51 0.47 0.44 0.38 0.36 0.36 0.38 0.36 0.35 0.34 0.32 0.31 0.29 0.29 0.28 0.29 0.31 0.20 0.10 0.09 0.09 0.10 0.10 0.10 0.11 0.12 0.13 0.14 0.16 0.21 0.25 0.29 0.33 0.44 0.62 0.83 1.06 1.27 1.42 1.48 1.45 1.38
0.49 0.48 0.48 0.46 0.46 0.44 0.44 0.46 0.50 0.49 0.48 0.47 0.45 0.44 0.46 0.44 0.40 0.45 0.42 0.28 0.24 0.21 0.20 0.21 0.21 0.20 0.20 0.20 0.21 0.24 0.25 0.28 0.34 0.41 0.56 0.77 0.94 1.08 1.21 1.38 1.49 1.53 1.51
0.40 0.42 0.48 0.49 0.50 0.50 0.53 0.56 0.55 0.53 0.53 0.51 0.51 0.52 0.53 0.52 0.52 0.56 0.60 0.51 0.42 0.32 0.28 0.27 0.28 0.29 0.29 0.31 0.31 0.36 0.35 0.37 0.41 0.44 0.54 0.76 0.88 0.90 0.92 1.01 1.21 1.36 1.45
0.38 0.46 0.48 0.49 0.48 0.47 0.49 0.51 0.50 0.49 0.52 0.54 0.55 0.58 0.57 0.54 0.57 0.61 0.67 0.72 0.65 0.48 0.37 0.33 0.34 0.38 0.40 0.41 0.42 0.46 0.40 0.42 0.41 0.43 0.48 0.57 0.62 0.61 0.62 0.69 0.83 0.99 1.13
0.33 0.36 0.38 0.41 0.43 0.42 0.43 0.45 0.44 0.43 0.46 0.48 0.51 0.55 0.56 0.53 0.55 0.60 0.67 0.78 0.89 0.80 0.58 0.45 0.43 0.44 0.47 0.47 0.48 0.45 0.38 0.39 0.39 0.38 0.37 0.38 0.39 0.43 0.46 0.51 0.60 0.71 0.81
0.24 0.26 0.27 0.29 0.31 0.32 0.34 0.36 0.37 0.38 0.41 0.40 0.42 0.45 0.47 0.48 0.52 0.58 0.66 0.73 0.84 0.91 0.77 0.51 0.43 0.41 0.43 0.41 0.41 0.37 0.31 0.35 0.33 0.31 0.31 0.33 0.35 0.36 0.38 0.42 0.47 0.53 0.61
0.17 0.17 0.18 0.19 0.19 0.20 0.22 0.24 0.26 0.28 0.31 0.34 0.37 0.42 0.46 0.48 0.52 0.54 0.57 0.62 0.68 0.76 0.76 0.54 0.44 0.43 0.41 0.35 0.32 0.30 0.26 0.25 0.22 0.25 0.27 0.29 0.31 0.34 0.36 0.38 0.41 0.45 0.50
0.12 0.12 0.13 0.12 0.12 0.13 0.14 0.15 0.17 0.21 0.25 0.29 0.33 0.38 0.42 0.46 0.50 0.52 0.53 0.55 0.56 0.58 0.66 0.58 0.41 0.37 0.33 0.32 0.33 0.32 0.27 0.24 0.20 0.21 0.25 0.28 0.31 0.33 0.35 0.37 0.41 0.46 0.50
0.08 0.08 0.09 0.10 0.10 0.10 0.11 0.13 0.15 0.18 0.21 0.24 0.27 0.31 0.35 0.39 0.40 0.39 0.39 0.40 0.42 0.46 0.53 0.55 0.43 0.36 0.32 0.29 0.30 0.28 0.25 0.22 0.19 0.21 0.25 0.28 0.30 0.32 0.35 0.39 0.43 0.46 0.49
0.07 0.07 0.06 0.07 0.08 0.10 0.12 0.14 0.17 0.20 0.22 0.23 0.25 0.27 0.28 0.28 0.28 0.27 0.28 0.31 0.37 0.43 0.45 0.50 0.47 0.38 0.34 0.29 0.29 0.24 0.21 0.19 0.20 0.20 0.24 0.29 0.32 0.36 0.38 0.41 0.44 0.46 0.48
0.09 0.10 0.11 0.11 0.12 0.12 0.15 0.18 0.19 0.21 0.23 0.23 0.23 0.21 0.20 0.21 0.21 0.22 0.25 0.30 0.37 0.45 0.52 0.58 0.55 0.47 0.39 0.32 0.27 0.27 0.32 0.31 0.29 0.25 0.26 0.29 0.34 0.38 0.41 0.44 0.47 0.47 0.49
0.11 0.12 0.15 0.18 0.19 0.20 0.26 0.24 0.21 0.22 0.23 0.22 0.21 0.19 0.19 0.20 0.18 0.19 0.22 0.31 0.44 0.56 0.67 0.71 0.68 0.58 0.43 0.36 0.36 0.42 0.50 0.58 0.51 0.31 0.33 0.36 0.37 0.44 0.44 0.46 0.52 0.55 0.56
0.21 0.21 0.22 0.23 0.26 0.31 0.32 0.25 0.21 0.18 0.18 0.17 0.16 0.15 0.14 0.13 0.14 0.13 0.16 0.27 0.36 0.46 0.53 0.56 0.54 0.43 0.39 0.38 0.51 0.67 0.69 0.73 0.59 0.38 0.44 0.49 0.41 0.43 0.44 0.48 0.57 0.57 0.55
0.30 0.30 0.29 0.27 0.25 0.26 0.25 0.19 0.16 0.14 0.14 0.13 0.11 0.10 0.10 0.10 0.10 0.14 0.21 0.29 0.24 0.20 0.25 0.30 0.33 0.35 0.38 0.45 0.62 0.86 0.93 0.91 0.72 0.54 0.51 0.55 0.42 0.39 0.40 0.44 0.51 0.51 0.47
0.34 0.31 0.28 0.27 0.25 0.24 0.20 0.15 0.12 0.10 0.10 0.09 0.07 0.07 0.08 0.07 0.10 0.22 0.33 0.35 0.24 0.14 0.16 0.24 0.33 0.36 0.38 0.40 0.48 0.75 0.94 1.01 0.85 0.55 0.47 0.55 0.51 0.47 0.46 0.42 0.44 0.48 0.46
0.31 0.28 0.25 0.21 0.19 0.18 0.16 0.12 0.09 0.08 0.08 0.07 0.07 0.06 0.07 0.09 0.16 0.28 0.32 0.33 0.27 0.18 0.22 0.25 0.26 0.27 0.27 0.30 0.39 0.58 1.01 1.41 1.19 0.82 0.50 0.61 0.63 0.66 0.77 0.48 0.42 0.45 0.45

GEFSMA_prec_meanprecacc_114.txt.gz
Total_Precipitation_Accumulation
0.00 0.00 0.00 0.00 0.00 0.00 0.00 0.00 0.00 0.00 0.00 0.00 0.00 0.00 0.00 0.00 0.00 0.00 0.00 0.00 0.00 0.00 0.01 0.02 0.03 0.04 0.07 0.10 0.13 0.14 0.14 0.14 0.14 0.15 0.15 0.16 0.16 0.17 0.18 0.18 0.19 0.19 0.20
0.01 0.00 0.00 0.00 0.00 0.00 0.00 0.00 0.00 0.00 0.00 0.00 0.00 0.00 0.00 0.00 0.00 0.00 0.00 0.00 0.00 0.00 0.00 0.01 0.02 0.04 0.06 0.09 0.13 0.15 0.16 0.16 0.15 0.16 0.17 0.18 0.18 0.19 0.20 0.21 0.22 0.23 0.23
0.01 0.01 0.00 0.00 0.00 0.00 0.00 0.00 0.00 0.00 0.00 0.00 0.00 0.00 0.00 0.00 0.00 0.00 0.00 0.00 0.00 0.00 0.00 0.01 0.02 0.04 0.05 0.08 0.11 0.15 0.17 0.18 0.18 0.19 0.20 0.21 0.22 0.22 0.24 0.26 0.27 0.28 0.30
0.02 0.01 0.01 0.00 0.00 0.00 0.00 0.00 0.00 0.00 0.00 0.00 0.00 0.00 0.00 0.00 0.00 0.00 0.00 0.00 0.00 0.00 0.00 0.00 0.01 0.02 0.04 0.06 0.10 0.15 0.17 0.19 0.19 0.19 0.20 0.21 0.23 0.25 0.28 0.31 0.34 0.37 0.40
0.04 0.03 0.02 0.02 0.01 0.01 0.00 0.00 0.00 0.00 0.00 0.00 0.00 0.00 0.00 0.00 0.00 0.00 0.00 0.00 0.00 0.00 0.00 0.00 0.01 0.02 0.03 0.04 0.07 0.12 0.19 0.22 0.22 0.21 0.21 0.22 0.24 0.27 0.30 0.33 0.38 0.43 0.50
0.10 0.07 0.05 0.04 0.03 0.02 0.02 0.02 0.01 0.01 0.01 0.01 0.01 0.01 0.00 0.00 0.00 0.00 0.00 0.00 0.00 0.00 0.00 0.01 0.01 0.01 0.01 0.03 0.05 0.09 0.16 0.21 0.23 0.24 0.24 0.25 0.26 0.28 0.31 0.36 0.42 0.49 0.60
0.20 0.13 0.10 0.08 0.06 0.05 0.04 0.03 0.03 0.02 0.02 0.02 0.02 0.01 0.00 0.00 0.00 0.00 0.00 0.00 0.01 0.00 0.00 0.01 0.01 0.01 0.02 0.03 0.04 0.06 0.10 0.16 0.24 0.29 0.31 0.31 0.31 0.33 0.38 0.44 0.51 0.59 0.68
0.31 0.24 0.17 0.13 0.11 0.09 0.08 0.07 0.07 0.06 0.04 0.04 0.05 0.07 0.03 0.01 0.00 0.01 0.01 0.01 0.01 0.01 0.01 0.01 0.02 0.02 0.03 0.03 0.03 0.04 0.05 0.08 0.17 0.31 0.40 0.42 0.44 0.46 0.50 0.58 0.67 0.75 0.81
0.54 0.44 0.39 0.30 0.24 0.18 0.14 0.14 0.14 0.12 0.11 0.09 0.09 0.14 0.13 0.07 0.04 0.02 0.02 0.02 0.03 0.03 0.03 0.04 0.04 0.04 0.04 0.04 0.05 0.05 0.07 0.09 0.12 0.24 0.41 0.54 0.60 0.67 0.75 0.84 0.91 0.99 1.02
0.72 0.67 0.58 0.48 0.39 0.33 0.27 0.27 0.25 0.23 0.22 0.20 0.18 0.17 0.19 0.19 0.20 0.13 0.06 0.05 0.05 0.05 0.06 0.06 0.06 0.06 0.07 0.07 0.09 0.12 0.14 0.17 0.20 0.26 0.39 0.56 0.72 0.89 1.07 1.19 1.29 1.34 1.31
0.72 0.71 0.65 0.59 0.49 0.45 0.43 0.43 0.40 0.39 0.37 0.35 0.33 0.31 0.31 0.30 0.31 0.35 0.22 0.11 0.10 0.10 0.11 0.11 0.11 0.12 0.13 0.14 0.16 0.19 0.25 0.28 0.31 0.35 0.47 0.66 0.88 1.13 1.35 1.51 1.59 1.55 1.49
0.70 0.67 0.65 0.62 0.60 0.55 0.52 0.52 0.55 0.53 0.51 0.49 0.47 0.46 0.49 0.48 0.44 0.50 0.47 0.31 0.26 0.22 0.21 0.22 0.22 0.22 0.22 0.23 0.24 0.27 0.28 0.30 0.35 0.43 0.59 0.80 0.97 1.10 1.25 1.43 1.56 1.60 1.60
0.62 0.61 0.66 0.66 0.65 0.64 0.65 0.65 0.61 0.57 0.57 0.55 0.55 0.55 0.57 0.57 0.56 0.61 0.65 0.55 0.45 0.35 0.29 0.28 0.29 0.31 0.31 0.33 0.33 0.38 0.37 0.39 0.42 0.46 0.56 0.78 0.90 0.92 0.94 1.04 1.25 1.41 1.52
0.57 0.64 0.66 0.65 0.63 0.61 0.61 0.61 0.57 0.55 0.57 0.59 0.60 0.62 0.61 0.59 0.62 0.66 0.72 0.77 0.68 0.50 0.39 0.34 0.35 0.39 0.41 0.43 0.44 0.47 0.41 0.44 0.43 0.45 0.50 0.59 0.64 0.63 0.64 0.70 0.84 1.01 1.17
0.47 0.49 0.51 0.53 0.54 0.53 0.54 0.57 0.54 0.52 0.53 0.54 0.56 0.60 0.61 0.58 0.60 0.64 0.70 0.82 0.93 0.83 0.60 0.46 0.45 0.45 0.48 0.48 0.49 0.46 0.40 0.42 0.41 0.39 0.39 0.39 0.40 0.43 0.46 0.51 0.61 0.72 0.84
0.36 0.37 0.37 0.38 0.39 0.40 0.42 0.45 0.46 0.47 0.49 0.47 0.47 0.50 0.51 0.52 0.55 0.61 0.68 0.75 0.87 0.96 0.80 0.53 0.45 0.43 0.44 0.42 0.42 0.38 0.32 0.37 0.35 0.33 0.33 0.34 0.35 0.37 0.39 0.42 0.48 0.54 0.62
0.25 0.26 0.26 0.26 0.26 0.27 0.28 0.30 0.33 0.35 0.39 0.42 0.44 0.46 0.49 0.51 0.54 0.56 0.59 0.64 0.71 0.80 0.79 0.56 0.45 0.44 0.42 0.36 0.33 0.31 0.27 0.26 0.24 0.27 0.29 0.30 0.32 0.35 0.37 0.39 0.42 0.46 0.51
0.19 0.18 0.18 0.17 0.17 0.17 0.17 0.18 0.21 0.24 0.29 0.34 0.37 0.43 0.46 0.49 0.52 0.54 0.55 0.57 0.58 0.61 0.68 0.60 0.43 0.39 0.35 0.34 0.35 0.33 0.28 0.25 0.21 0.23 0.26 0.29 0.32 0.34 0.35 0.38 0.42 0.47 0.51
0.12 0.12 0.12 0.12 0.12 0.12 0.13 0.14 0.16 0.20 0.23 0.26 0.29 0.34 0.38 0.42 0.42 0.41 0.40 0.42 0.43 0.48 0.55 0.57 0.45 0.38 0.33 0.31 0.32 0.30 0.26 0.23 0.20 0.22 0.27 0.29 0.31 0.33 0.36 0.40 0.44 0.47 0.50
0.10 0.09 0.09 0.09 0.10 0.12 0.14 0.16 0.19 0.21 0.23 0.24 0.26 0.28 0.30 0.30 0.29 0.29 0.30 0.32 0.38 0.44 0.46 0.51 0.48 0.39 0.35 0.30 0.30 0.26 0.23 0.21 0.21 0.22 0.27 0.30 0.33 0.37 0.39 0.41 0.44 0.47 0.49
0.10 0.12 0.13 0.13 0.13 0.14 0.16 0.19 0.21 0.23 0.24 0.24 0.24 0.22 0.21 0.22 0.22 0.22 0.26 0.31 0.38 0.45 0.53 0.58 0.55 0.48 0.40 0.33 0.29 0.29 0.34 0.33 0.31 0.27 0.28 0.30 0.34 0.39 0.42 0.45 0.47 0.48 0.49
0.13 0.15 0.17 0.20 0.21 0.22 0.28 0.26 0.23 0.23 0.24 0.23 0.22 0.20 0.20 0.20 0.18 0.20 0.23 0.31 0.44 0.57 0.67 0.71 0.68 0.58 0.43 0.37 0.37 0.43 0.51 0.60 0.53 0.32 0.34 0.36 0.38 0.44 0.45 0.46 0.53 0.56 0.56
0.23 0.24 0.24 0.26 0.28 0.33 0.34 0.28 0.23 0.19 0.19 0.18 0.17 0.15 0.14 0.13 0.14 0.13 0.16 0.27 0.37 0.46 0.54 0.56 0.54 0.43 0.39 0.38 0.51 0.67 0.70 0.74 0.60 0.38 0.44 0.50 0.42 0.43 0.44 0.49 0.58 0.58 0.55
0.31 0.32 0.32 0.29 0.28 0.29 0.27 0.21 0.18 0.15 0.15 0.14 0.12 0.11 0.11 0.10 0.10 0.14 0.21 0.29 0.24 0.21 0.25 0.30 0.34 0.35 0.39 0.45 0.62 0.86 0.93 0.91 0.72 0.55 0.51 0.56 0.42 0.39 0.41 0.44 0.52 0.51 0.47
0.35 0.32 0.31 0.30 0.28 0.27 0.22 0.17 0.14 0.12 0.11 0.10 0.08 0.08 0.08 0.07 0.10 0.22 0.33 0.36 0.24 0.15 0.17 0.25 0.34 0.37 0.38 0.41 0.49 0.75 0.94 1.01 0.85 0.55 0.47 0.55 0.51 0.47 0.46 0.43 0.45 0.49 0.47
0.32 0.30 0.26 0.23 0.21 0.20 0.18 0.13 0.11 0.09 0.09 0.08 0.07 0.06 0.08 0.09 0.16 0.28 0.32 0.34 0.27 0.18 0.22 0.25 0.27 0.28 0.27 0.30 0.40 0.58 1.01 1.41 1.20 0.82 0.50 0.61 0.63 0.67 0.78 0.49 0.42 0.45 0.45